     2.11           OBSERVATION DATA    G (GPS)             RINEX VERSION / TYPE
teqc 2007Jun25 20080612 09:24:09UTC                         PGM / RUN BY / DATE
MSXP|IAx86-PII|bcc32 5.0|MSWin95->XP|486/DX+                COMMENT
2.10 OBSERVATION DATA G (GPS)                               COMMENT
JPS2RIN 1.40 RUN BY 24-APR-08 23:46                         COMMENT
build Feb 6 2004 (c) Javad Navigation Systems               COMMENT
Use -p (profile) switch to override ANTENNA TYPE and DELTA  COMMENT
and other fields                                            COMMENT
JAV0424b.jps                                                COMMENT
SE TPS 00000000                                             COMMENT
JAV0424b_277K                                               MARKER NAME
OBSERVER AGENCY                                             OBSERVER / AGENCY
8QG3JM7277K TPS MAXOR 2.6.0 Apr,18,2007                     REC # / TYPE / VERS
JAV0424b -Unknown-                                          ANT # / TYPE
   895922.6423  -268178.8496  6288108.3281                  APPROX POSITION XYZ
        0.0000        0.0000        0.0000                  ANTENNA: DELTA H/E/N
     1     1                                                WAVELENGTH FACT L1/2
     7    C1    P1    P2    L1    L2    D1    D2            # / TYPES OF OBSERV
    30.0000                                                 INTERVAL
Forced Modulo Decimation to 30 seconds                      COMMENT
teqc windowed: start @ 2008 Apr 24 09:01:00.000             COMMENT
  2008     4    24     9     1    0.0000000     GPS         TIME OF FIRST OBS
                                                            END OF HEADER
 08  4 24  9  1  0.0000000  0  7G 1G 9G11G12G14G17G32
  21986272.752    21986272.0494   21986275.6314  115538641.870 7  90030129.73245
       744.572         580.186
  22545294.610                                   118476321.924 7
     -3186.523
  21677128.066    21677127.7894   21677129.2114  113914074.841 8  88764235.12846
     -2529.722       -1971.211
  23806213.383    23806213.3574   23806215.4714  125102499.820 7  97482487.30544
      2357.523        1837.032
  21976219.371    21976219.0694   21976221.6914  115485811.552 7  89988965.02145
     -1290.208       -1005.356
  21338289.102    21338289.0524   21338290.8344  112133464.360 8  87376745.92246
      -152.880        -119.125
  21751085.386    21751084.8134   21751088.3614  114302722.027 8  89067079.75746
     -1826.481       -1423.234
 08  4 24  9  1 30.0000000  0 10G 1G 5G 9G11G12G14G17G20G28G32
  21982102.495    21982101.9194   21982105.3964  115516727.118 7  90013053.27645
       716.348         558.194
  24084669.654    24084669.2364   24084673.6224  126565792.746 6  98622717.08143
      2895.934        2256.560
  22563565.139    22563564.9634   22563568.1684  118572334.767 7  92394047.33245
     -3214.342       -2504.677
  21691643.367    21691642.9744   21691644.5904  113990352.905 8  88823672.56646
     -2555.478       -1991.268
  23792815.184    23792815.3424   23792817.3044  125032092.619 7  97427624.55544
      2336.231        1820.439
  21983670.303    21983669.9474   21983672.4724  115524965.665 7  90019474.68445
     -1320.075       -1028.627
  21339246.355    21339246.3674   21339248.0844  112138494.447 8  87380665.46346
      -182.473        -142.186
  22281156.897    22281156.2854   22281158.9884  117088271.015 7  91237632.71745
      2254.367        1756.656
  24476459.252    24476458.7014   24476461.3304  128624663.592 6 100227029.98542
     -4050.531       -3156.264
  21761587.612    21761586.8804   21761590.4414  114357910.922 8  89110084.14446
     -1852.773       -1443.719
 08  4 24  9  2  0.0000000  0 10G 1G 5G 9G11G12G14G17G20G28G32
  21978094.358    21978093.8114   21978097.3644  115495665.452 7  89996641.72345
       687.853         535.984
  24068191.607    24068190.5684   24068195.0694  126479196.360 6  98555239.33043
      2877.252        2242.023
  22581995.248    22581994.9084   22581998.0374  118669185.083 7  92469515.07945
     -3242.243       -2526.420
  21706306.270    21706305.9604   21706307.5854  114067407.140 8  88883714.85846
     -2581.380       -2011.466
  23779540.175    23779540.0864   23779542.3434  124962330.814 7  97373264.74744
      2314.640        1803.616
  21991292.528    21991292.2444   21991294.7054  115565020.547 7  90050686.23045
     -1350.152       -1052.062
  21340373.456    21340373.4474   21340375.2574  112144417.691 8  87385280.98046
      -212.310        -165.440
  22268353.689    22268352.9764   22268355.7584  117020989.751 7  91185205.74845
      2231.136        1738.555
  24499628.209    24499627.4544   24499630.0344  128746416.678 6 100321902.45942
     -4066.275       -3168.532
  21772240.415    21772239.7214   21772243.2734  114413892.153 8  89153705.93446
     -1879.205       -1464.318
 08  4 24  9  2 30.0000000  0 10G 1G 5G 9G11G12G14G17G20G28G32
  21974246.134    21974245.5114   21974249.1524  115475442.819 8  89980883.88345
       660.357         514.559
  24051816.539    24051816.0904   24051820.3544  126393146.169 6  98488187.28943
      2859.435        2228.147
  22600581.298    22600580.9444   22600584.2104  118766855.271 7  92545621.69845
     -3269.066       -2547.322
  21721113.891    21721113.5014   21721115.0264  114145220.888 8  88944348.89246
     -2606.174       -2030.782
  23766384.839    23766385.1834   23766387.3304  124893201.567 7  97319397.79044
      2293.976        1787.513
  21999083.402    21999082.7994   21999085.5154  115605960.421 7  90082587.36945
     -1379.164       -1074.668
  21341667.953    21341667.8084   21341669.5924  112151219.328 8  87390580.95246
      -241.123        -187.886
  22255680.364    22255679.6144   22255682.5614  116954391.264 7  91133310.80845
      2208.795        1721.138
  24522883.745    24522883.5934   24522885.5304  128868624.677 6 100417129.42442
     -4080.931       -3179.954
  21783040.899    21783040.2184   21783043.7874  114470649.566 8  89197932.52446
     -1904.568       -1484.081
 08  4 24  9  3  0.0000000  0 10G 1G 5G 9G11G12G14G17G20G28G32
  21970552.693    21970552.0044   21970555.5694  115456033.062 7  89965759.46345
       633.769         493.838
  24035540.806    24035540.1154   24035544.0444  126307617.217 6  98421541.43143
      2842.607        2215.031
  22619317.495    22619317.1794   22619320.5064  118865314.999 7  92622343.52945
     -3294.778       -2567.351
  21736060.262    21736059.8694   21736061.5314  114223764.551 8  89005551.68946
     -2629.878       -2049.251
  23753346.009    23753345.9704   23753348.1204  124824680.244 7  97266004.53944
      2274.232        1772.132
  22007036.813    22007036.3034   22007039.0174  115647756.876 7  90115156.00745
     -1407.118       -1096.457
  21343124.219    21343124.2634   21343125.8574  112158872.458 8  87396544.42546
      -268.952        -209.573
  22243132.094    22243131.4374   22243134.5194  116888449.984 7  91081927.96245
      2187.427        1704.491
  24546219.888    24546219.6764   24546221.6094  128991257.451 6 100512687.39842
     -4094.471       -3190.522
  21793983.647    21793983.0844   21793986.6504  114528154.176 8  89242741.24946
     -1928.879       -1503.012
 08  4 24  9  3 30.0000000  0 10G 1G 5G 9G11G12G14G17G20G28G32
  21967005.263    21967004.6164   21967008.1104  115437391.465 7  89951233.57445
       609.253         474.742
  24019355.664    24019355.2424   24019359.7564  126222566.771 6  98355268.48943
      2827.688        2203.381
  22638194.581    22638194.3414   22638197.5764  118964514.853 7  92699642.10445
     -3318.271       -2585.667
  21751136.416    21751136.1564   21751137.5794  114302990.530 8  89067286.24946
     -2651.536       -2066.135
  23740414.405    23740414.3194   23740416.4634  124756724.271 7  97213051.88844
      2256.446        1758.266
  22015144.366    22015144.1324   22015146.6584  115690363.555 7  90148356.03045
     -1433.021       -1116.643
  21344734.057    21344733.9864   21344735.6544  112167331.780 8  87403136.10446
      -294.714        -229.649
  22230700.896    22230700.2094   22230703.1694  116823122.684 7  91031023.50145
      2167.979        1689.319
  24569627.786    24569627.5804   24569629.1664  129114266.852 6 100608538.85342
     -4105.863       -3199.382
  21805059.907    21805059.0954   21805062.6944  114586359.315 8  89288095.95846
     -1951.134       -1520.369
 08  4 24  9  4  0.0000000  0  9G 1G 5G 9G11G12G14G17G20G32
  21963802.637    21963801.9114   21963805.3754  115420552.506 8  89938112.36845
       518.140         403.745
  24003461.556                                   126139028.025 6
      2746.126
  22657410.587    22657410.0254   22657413.3794  119065484.205 7  92778319.28945
     -3408.212       -2655.745
  21766540.356    21766540.1344   21766541.6484  114383927.867 8  89130354.90346
     -2739.584       -2134.740
  23727788.741    23727789.0064   23727790.8724  124690364.085 7  97161341.78245
      2172.082        1692.538
  22023604.622    22023604.2614   22023606.9514  115734812.414 7  90182991.53245
     -1525.422       -1188.641
  21346695.568    21346695.6744   21346697.1894  112177630.764 8  87411161.28346
      -387.077        -301.615
  22218584.941    22218584.3374   22218587.4254  116759442.053 7  90981402.66745
      2081.956        1622.305
  21816467.192    21816466.5234   21816469.9824  114646295.411 8  89334798.19546
     -2039.851       -1589.494
 08  4 24  9  4 30.0000000  0  9G 1G 5G 9G11G12G14G17G20G32
  21960915.821    21960915.4704   21960919.0104  115405384.148 7  89926292.93345
       493.232         384.340
  23987828.217    23987827.7304   23987831.2064  126056875.899 6  98226166.33043
      2730.778        2127.890
  22676935.512    22676935.3644   22676938.3694  119168088.818 7  92858270.89945
     -3431.884       -2674.200
  21782242.991    21782242.5894   21782244.1454  114466445.443 8  89194654.31946
     -2761.420       -2151.755
  23715441.501    23715441.3584   23715443.3064  124625477.568 7  97110780.87244
      2153.802        1678.287
  22032388.176    22032387.8424   22032390.0544  115780969.004 7  90218957.70245
     -1551.523       -1208.978
  21348980.055    21348980.1604   21348981.8224  112189636.535 8  87420516.42646
      -413.161        -321.946
  22206756.527    22206755.9074   22206758.8584  116697282.812 7  90932966.91645
      2062.086        1606.817
  21828176.865    21828176.2054   21828179.7194  114707829.923 8  89382747.12646
     -2062.285       -1606.972
 08  4 24  9  5  0.0000000  0  9G 1G 5G 9G11G12G14G17G20G32
  21958169.186    21958168.5684   21958172.1254  115390948.792 7  89915044.52445
       469.450         365.810
  23972280.634    23972280.0894   23972283.9224  125975172.192 6  98162501.02943
      2716.428        2116.711
  22696592.475    22696591.9774   22696595.2854  119271386.177 7  92938762.28945
     -3454.261       -2691.630
  21798066.801    21798066.5204   21798068.1534  114549601.006 8  89259450.87746
     -2781.978       -2167.775
  23703195.629    23703195.4124   23703197.4884  124561124.819 7  97060635.87044
      2136.692        1664.952
  22041317.617    22041317.4344   22041319.7064  115827894.230 7  90255522.78845
     -1576.500       -1228.443
  21351411.204    21351411.1534   21351412.7354  112202410.972 8  87430470.51646
      -438.125        -341.392
  22195039.056    22195038.2284   22195041.2174  116635706.135 7  90884985.10145
      2043.348        1592.216
  21840011.686    21840011.0804   21840014.4624  114770022.183 8  89431208.60846
     -2083.549       -1623.543
 08  4 24  9  5 30.0000000  0  9G 1G 5G 9G11G12G14G17G20G32
  21955558.095    21955557.6014   21955561.1264  115377228.070 7  89904353.03745
       445.382         347.049
  23956815.255    23956814.6004   23956818.3594  125893899.872 6  98099171.82443
      2701.773        2105.289
  22716376.820    22716376.3954   22716379.4994  119375353.082 7  93019775.42845
     -3476.702       -2709.116
  21814008.125    21814007.7554   21814009.3114  114633372.353 8  89324727.25545
     -2802.651       -2183.888
  23691047.690    23691047.6874   23691049.9204  124497288.109 7  97010893.02444
      2119.229        1651.348
  22050389.463    22050389.1244   22050391.4584  115875566.885 7  90292670.33745
     -1601.542       -1247.951
  21353984.427    21353984.5974   21353986.1394  112215934.574 8  87441008.37746
      -463.317        -361.028
  22183428.703    22183428.0514   22183431.0404  116574694.171 7  90837443.33145
      2024.240        1577.328
  21851967.472    21851966.8904   21851970.4344  114832850.691 8  89480165.89746
     -2104.904       -1640.188
 08  4 24  9  6  0.0000000  0  9G 1G 5G 9G11G12G14G17G20G32
  21953083.281    21953082.6644   21953085.9894  115364222.322 7  89894218.72245
       421.751         328.635
  23941432.233    23941431.3974   23941435.5974  125813061.223 6  98036180.62843
      2687.507        2094.158
  22736287.681    22736287.2884   22736290.5934  119479985.951 7  93101307.52945
     -3498.656       -2726.220
  21830065.804    21830065.4334   21830067.2804  114717756.919 8  89390481.47746
     -2822.862       -2199.633
  23678998.633    23678998.4524   23679000.5034  124433969.275 7  96961553.65344
      2102.128        1638.030
  22059603.256    22059602.8114   22059605.1044  115923985.304 7  90330399.00545
     -1626.235       -1267.200
  21356700.611    21356700.5904   21356702.0554  112230206.630 8  87452129.44746
      -488.076        -380.318
  22171926.294    22171925.6044   22171928.5734  116514248.616 7  90790342.92545
      2005.539        1562.760
  21864044.150    21864043.5394   21864046.9154  114896313.386 8  89529617.35646
     -2125.811       -1656.483
 08  4 24  9  6 30.0000000  0  9G 1G 5G 9G11G12G14G17G20G32
  21950741.386    21950740.9104   21950744.3104  115351915.599 7  89884629.03145
       398.996         310.912
  23926129.119    23926128.2404   23926132.6024  125732642.453 6  97973516.63043
      2673.974        2083.580
  22756321.625    22756321.2244   22756324.3624  119585264.680 7  93183342.88445
     -3519.609       -2742.556
  21846236.732    21846236.4824   21846238.2724  114802735.562 8  89456698.59845
     -2842.097       -2214.626
  23667045.510    23667045.5124   23667047.4334  124371154.132 7  96912606.65645
      2085.789        1625.302
  22068955.512    22068955.2074   22068957.2574  115973131.826 7  90368695.07245
     -1649.917       -1285.655
  21359555.833    21359555.7754   21359557.3494  112245210.968 8  87463821.13046
      -511.931        -398.905
  22160529.141    22160528.4024   22160531.2124  116454354.960 7  90743672.56945
      1987.661        1548.828
  21876237.847    21876237.2944   21876240.6424  114960392.052 8  89579548.79846
     -2145.792       -1672.044
 08  4 24  9  7  0.0000000  0  9G 1G 5G 9G11G12G14G17G20G32
  21948528.053    21948527.5034   21948531.0304  115340284.776 8  89875566.08945
       376.567         293.424
  23910901.584    23910901.0344   23910904.8804  125652621.715 6  97911162.86243
      2660.861        2073.397
  22776472.727    22776472.8064   22776475.8214  119691161.047 7  93265859.51545
     -3540.032       -2758.463
  21862515.762    21862515.5144   21862517.2174  114888282.044 8  89523358.15845
     -2860.865       -2229.243
  23655183.794    23655183.7834   23655185.8914  124308820.513 7  96864034.91145
      2069.895        1612.910
  22078441.201    22078440.9024   22078443.1844  116022980.322 7  90407538.05545
     -1673.175       -1303.776
  21362545.594    21362545.5974   21362547.3164  112260923.037 8  87476064.29946
      -535.407        -417.198
  22149232.558    22149231.7464   22149234.6674  116394990.899 7  90697414.85445
      1970.082        1535.137
  21888543.806    21888543.2254   21888546.5504  115025060.748 8  89629940.07146
     -2165.292       -1687.244
 08  4 24  9  7 30.0000000  0  9G 1G 5G 9G11G12G14G17G20G32
  21946442.752    21946442.2374   21946445.7114  115329326.397 7  89867027.17245
       354.241         276.031
  23895749.782    23895749.1004   23895753.2344  125572997.339 6  97849117.85943
      2647.685        2063.141
  22796740.429    22796740.2644   22796743.5334  119797667.843 7  93348851.78044
     -3560.181       -2774.163
  21878901.515    21878901.2984   21878903.0294  114974389.932 8  89590455.16646
     -2879.423       -2243.702
  23643413.603    23643413.4474   23643415.6034  124246966.866 7  96815837.26845
      2053.952        1600.487
  22088059.700    22088059.2504   22088061.5094  116073525.348 7  90446923.81945
     -1696.255       -1321.757
  21365669.369    21365669.4054   21365671.0834  112277338.812 8  87488855.80246
      -558.766        -435.401
  22138036.355    22138035.5224   22138038.2344  116336154.312 7  90651568.19845
      1952.612        1521.516
  21900960.875    21900960.3674   21900963.8364  115090313.372 8  89680786.26346
     -2184.617       -1702.295
 08  4 24  9  8  0.0000000  0  9G 1G 5G 9G11G12G14G17G20G32
  21944483.048    21944482.2744   21944485.9224  115319027.835 8  89859002.33345
       332.355         258.982
  23880671.246    23880670.5254   23880674.1924  125493759.022 6  97787373.71443
      2634.897        2053.163
  22817121.493    22817121.0624   22817124.0024  119904768.616 7  93432306.86144
     -3579.836       -2789.484
  21895391.532    21895391.0564   21895392.7794  115061044.080 7  89657977.88746
     -2897.458       -2257.759
  23631732.149    23631732.3454   23631734.2924  124185581.563 7  96768004.46445
      2038.433        1588.397
  22097808.057    22097807.5064   22097809.7794  116124752.355 7  90486840.95545
     -1718.844       -1339.361
  21368924.497    21368924.4604   21368926.3504  112294445.125 8  87502185.38846
      -581.644        -453.231
  22126938.113    22126937.7364   22126940.2064  116277834.168 7  90606123.92645
      1935.454        1508.144
  21913486.489    21913485.9194   21913489.2184  115156135.305 7  89732076.12846
     -2203.445       -1716.969
 08  4 24  9  8 30.0000000  0  9G 1G 5G 9G11G12G14G17G20G32
  21942649.062    21942648.5574   21942652.0564  115309390.607 7  89851492.80445
       310.296         241.796
  23865666.848    23865666.1604   23865669.5264  125414909.800 6  97725932.69643
      2621.864        2043.027
  22837614.310    22837614.0464   22837617.2914  120012460.834 7  93516222.84345
     -3599.477       -2804.783
  21911984.478    21911984.3474   21911986.1104  115148242.612 8  89725924.86646
     -2915.573       -2271.874
  23620140.785    23620140.7664   23620142.6944  124124667.922 7  96720539.30845
      2022.635        1576.072
  22107685.736    22107685.5164   22107687.4234  116176660.825 7  90527289.13845
     -1741.519       -1357.026
  21372311.402    21372311.2494   21372312.9824  112312242.281 8  87516053.28946
      -604.643        -471.149
  22115939.274    22115938.4134   22115941.0994  116220033.183 7  90561084.20545
      1918.094        1494.615
  21926120.177    21926119.5124   21926122.7864  115222525.263 8  89783808.54146
     -2222.351       -1731.698
 08  4 24  9  9  0.0000000  0  9G 1G 5G 9G11G12G14G17G20G32
  21940939.088    21940938.6054   21940942.2464  115300405.343 7  89844491.32545
       288.744         224.998
  23850734.751    23850734.3194   23850737.9364  125336442.300 6  97664789.17943
      2609.313        2033.230
  22858217.485    22858217.1764   22858220.2694  120120730.641 7  93600588.93244
     -3618.428       -2819.551
  21928679.219    21928678.8124   21928680.7484  115235972.571 8  89794285.83346
     -2933.033       -2285.477
  23608637.620    23608637.6194   23608639.6094  124064217.867 7  96673435.32645
      2007.416        1564.224
  22117691.104    22117690.7494   22117692.8794  116229239.180 7  90568259.28445
     -1763.609       -1374.242
  21375827.588    21375827.5434   21375829.2974  112330720.051 8  87530451.54346
      -627.119        -488.665
  22105037.306    22105036.4804   22105039.1824  116162743.114 7  90516442.60545
      1901.250        1481.492
  21938859.670    21938859.0454   21938862.1684  115289471.472 8  89835974.45746
     -2240.640       -1745.953
 08  4 24  9  9 30.0000000  0  9G 1G 5G 9G11G12G14G17G20G32
  21939354.642    21939354.1084   21939357.6444  115292078.325 7  89838002.76345
       266.874         207.951
  23835877.212    23835876.4084   23835880.1104  125258364.688 6  97603949.52143
      2596.370        2023.129
  22878930.770    22878930.3904   22878933.6274  120229579.881 7  93685406.54144
     -3637.637       -2834.531
  21945475.549    21945475.1624   21945476.9894  115324237.412 8  89863063.60846
     -2950.769       -2299.300
  23597224.094    23597223.9474   23597226.0934  124004239.393 7  96626698.90345
      1991.699        1551.965
  22127824.718    22127824.1664   22127826.4044  116282491.339 7  90609754.48845
     -1786.020       -1391.710
  21379474.391    21379474.2744   21379476.1044  112349883.914 8  87545384.43146
      -649.948        -506.453
  22094233.987    22094233.1224   22094235.9704  116105971.213 7  90472204.80245
      1884.026        1468.069
  21951705.694    21951704.9634   21951708.2514  115356977.509 8  89888576.53346
     -2259.212       -1760.424
 08  4 24  9 10  0.0000000  0  9G 1G 5G 9G11G12G14G17G20G32
  21937893.418    21937892.7314   21937896.1414  115284398.191 7  89832018.22046
       245.203         191.064
  23821092.040    23821091.1014   23821095.0704  125180667.584 6  97543406.37443
      2583.534        2013.148
  22899751.398    22899751.1704   22899754.4684  120338993.071 7  93770663.56344
     -3656.506       -2849.223
  21962370.817    21962370.5534   21962372.4294  115413022.897 7  89932247.06446
     -2968.197       -2312.880
  23585898.228    23585898.2474   23585900.3654  123944722.328 7  96580321.95045
      1976.181        1539.879
  22138083.710    22138083.3124   22138085.7064  116336403.661 7  90651764.08745
     -1808.083       -1408.891
  21383249.468    21383249.3584   21383251.0954  112369721.833 7  87560842.54646
      -672.498        -524.028
  22083527.318    22083526.5954   22083529.3734  116049707.491 7  90428362.88145
      1866.946        1454.767
  21964655.459    21964654.7924   21964658.0704  115425029.786 7  89941604.27546
     -2277.514       -1774.687
 08  4 24  9 10 30.0000000  0  9G 1G 5G 9G11G12G14G17G20G32
  21936555.405    21936554.9384   21936558.3424  115277368.149 8  89826540.25446
       223.643         174.273
  23806379.942    23806379.3304   23806382.9264  125103355.924 6  97483163.55743
      2570.788        2003.205
  22920679.208    22920678.8324   22920681.9194  120448969.095 7  93856359.14244
     -3675.078       -2863.698
  21979365.228    21979364.9254   21979366.8104  115502329.583 8  90001836.75746
     -2985.365       -2326.260
  23574661.373    23574661.3424   23574663.3624  123885671.458 7  96534308.27345
      1960.716        1527.827
  22148468.754    22148468.2474   22148470.8124  116390977.180 7  90694288.93045
     -1829.973       -1425.956
  21387153.162    21387153.1934   21387154.9424  112390236.461 8  87576827.98346
      -694.952        -541.521
  22072918.370    22072917.6054   22072920.1274  115993956.311 7  90384920.34445
      1849.968        1441.536
  21977709.304    21977708.6734   21977712.1724  115493629.021 8  89995058.25946
     -2295.587       -1788.772
 08  4 24  9 11  0.0000000  0  9G 1G 5G 9G11G12G14G17G20G32
  21935340.890    21935340.3074   21935343.6994  115270984.797 8  89821566.24646
       202.150         157.518
  23791740.844    23791739.9734   23791743.9384  125026428.312 6  97423219.95043
      2557.973        1993.225
  22941712.917    22941712.6104   22941715.4124  120559500.498 7  93942487.43844
     -3693.441       -2878.002
  21996457.584    21996457.2984   21996459.2124  115592150.452 8  90071826.98845
     -3002.398       -2339.528
  23563512.824    23563512.7194   23563514.4984  123827084.859 7  96488656.41845
      1945.273        1515.795
  22158978.458    22158978.0674   22158980.5724  116446206.529 7  90737324.79645
     -1851.730       -1442.906
  21391184.787    21391184.8024   21391186.8064  112411423.055 8  87593337.01546
      -717.276        -558.915
  22062406.448    22062405.6674   22062408.2464  115938716.082 7  90341875.99645
      1832.956        1428.279
  21990866.258    21990865.7914   21990869.0134  115562769.221 8  90048933.71546
     -2313.509       -1802.734
 08  4 24  9 11 30.0000000  0  9G 1G 5G 9G11G12G14G17G20G32
  21934247.045    21934246.7494   21934250.0744  115265238.530 8  89817088.69046
       180.817         140.896
  23777174.295    23777173.4424   23777176.6914  124949877.320 6  97363569.83843
      2545.334        1983.370
  22962849.445    22962849.2264   22962851.9204  120670573.764 7  94029037.96444
     -3711.522       -2892.092
  22013645.313    22013645.1204   22013646.9904  115682473.362 8  90142208.49045
     -3019.188       -2352.606
  23552451.027    23552450.8414   23552452.8164  123768954.681 7  96443360.25645
      1929.954        1503.853
  22169610.819    22169610.2854   22169612.8144  116502079.997 7  90780862.57245
     -1873.289       -1459.708
  21395342.351    21395342.4534   21395344.1694  112433271.300 8  87610361.61246
      -739.405        -576.156
  22051990.087    22051989.4744   22051992.0304  115883978.445 7  90299223.26845
      1816.074        1415.123
  22004123.974    22004123.3574   22004126.6274  115632438.609 8  90103221.54846
     -2331.218       -1816.536
 08  4 24  9 12  0.0000000  0  9G 1G 5G 9G11G12G14G17G20G32
  21933273.874    21933273.3384   21933276.5754  115260122.688 8  89813102.32546
       160.015         124.683
  23762677.325    23762676.8914   23762680.6494  124873698.217 6  97304209.54743
      2533.114        1973.842
  22984087.158    22984086.5164   22984089.6794  120782178.040 7  94116002.30844
     -3728.955       -2905.681
  22030926.934    22030926.6044   22030928.6164  115773288.436 7  90212973.41345
     -3035.353       -2365.210
  23541474.650    23541474.7004   23541476.5694  123711275.572 7  96398415.55845
      1915.124        1492.303
  22180363.896    22180363.5474   22180366.0584  116558588.700 7  90824895.36845
     -1894.187       -1475.990
  21399624.508    21399624.5184   21399626.3384  112455773.794 8  87627896.00746
      -760.939        -592.941
  22041668.539    22041667.7464   22041670.4944  115829738.150 7  90256958.09845
      1799.728        1402.385
  22017480.766    22017479.9924   22017483.2954  115702628.041 8  90157914.64446
     -2348.254       -1829.808
 08  4 24  9 12 30.0000000  0  9G 1G 5G 9G11G12G14G17G20G32
  21932420.550    21932419.9064   21932423.1824  115255638.342 8  89809608.03345
       138.968         108.287
  23748252.486    23748251.9764   23748255.7194  124797893.939 6  97245141.26743
      2520.525        1964.034
  23005425.306    23005425.0064   23005427.7734  120894310.187 7  94203377.90044
     -3746.487       -2919.341
  22048301.867    22048301.4184   22048303.3794  115864593.755 8  90284120.43145
     -3051.645       -2377.909
  23530584.988    23530585.0644   23530587.3144  123654050.137 7  96353824.29745
      1899.941        1480.467
  22191237.839    22191237.3464   22191239.9324  116615731.375 7  90869422.20145
     -1915.288       -1492.442
  21404031.298    21404031.2324   21404032.9014  112478930.595 8  87645940.25446
      -782.777        -609.952
  22031441.944    22031441.1864   22031443.9964  115775997.298 7  90215082.16045
      1783.044        1389.379
  22030935.932    22030935.2574   22030938.5164  115773335.998 8  90213011.76646
     -2365.535       -1843.275
 08  4 24  9 13  0.0000000  0  9G 1G 5G 9G11G12G14G17G20G32
  21931686.924    21931686.4214   21931689.7324  115251783.762 8  89806604.48445
       117.622          91.653
  23733898.345    23733897.7054   23733901.8494  124722464.976 6  97186365.52743
      2507.684        1954.043
  23026862.347    23026862.3594   23026864.9974  121006964.717 7  94291160.66644
     -3764.200       -2933.144
  22065769.004    22065768.7594   22065770.5864  115956384.594 8  90355645.72545
     -3068.118       -2390.747
  23519781.826    23519781.6604   23519783.9604  123597278.415 7  96309586.56845
      1884.434        1468.392
  22202231.312    22202231.0914   22202233.4804  116673504.253 7  90914440.09045
     -1936.594       -1509.035
  21408561.875    21408561.9224   21408563.5714  112502739.441 8  87664492.58146
      -804.841        -627.148
  22021310.452    22021309.6304   22021312.0664  115722755.507 8  90173595.02245
      1765.974        1376.080
  22044489.104    22044488.4644   22044491.7004  115844558.355 8  90268509.73346
     -2383.012       -1856.898
 08  4 24  9 13 30.0000000  0  9G 1G 5G 9G11G12G14G17G20G32
  21931074.889    21931074.1434   21931077.3744  115248566.735 7  89804097.74946
        96.611          75.281
  23719618.732    23719617.7924   23719621.5724  124647420.956 6  97127889.67143
      2495.079        1944.210
  23048400.305    23048399.8494   23048402.8034  121120144.962 7  94379352.99844
     -3781.396       -2946.542
  22083329.601    22083329.2184   22083331.1704  116048665.602 8  90427552.88845
     -3084.168       -2403.241
  23509066.320    23509066.5374   23509068.7914  123540969.614 7  96265709.53145
      1869.233        1456.543
  22213346.327    22213345.8034   22213348.1614  116731912.928 7  90959953.40545
     -1957.504       -1525.330
  21413217.982    21413217.8274   21413219.5374  112527207.217 7  87683558.39146
      -826.523        -644.047
  22011275.639    22011274.8384   22011277.5164  115670022.174 7  90132504.03345
      1749.293        1363.085
  22058141.101    22058140.4374   22058143.7674  115916300.551 8  90324412.72446
     -2400.045       -1870.165
 08  4 24  9 14  0.0000000  0  9G 1G 5G 9G11G12G14G17G20G32
  21930582.723    21930582.3614   21930585.4794  115245982.087 8  89802083.73345
        75.654          58.953
  23705410.615    23705409.9624   23705413.1934  124572758.918 6  97069711.42443
      2482.383        1934.325
  23070035.847    23070035.6874   23070038.4694  121233842.043 7  94467948.06344
     -3798.404       -2959.795
  22100981.966    22100981.5634   22100983.5734  116141429.359 7  90499836.29745
     -3100.078       -2415.641
  23498438.788    23498438.9234   23498441.0624  123485120.511 7  96222190.78045
      1854.016        1444.682
  22224580.636    22224580.2534   22224582.6574  116790950.200 7  91005956.57445
     -1978.300       -1541.532
  21417998.193    21417998.1884   21417999.7844  112552327.787 7  87703132.85246
      -848.180        -660.916
  22001336.718    22001336.0884   22001338.6604  115617793.521 7  90091806.33545
      1732.577        1350.059
  22071890.652    22071890.0064   22071893.4564  115988555.266 8  90380715.13146
     -2416.969       -1883.351
 08  4 24  9 14 30.0000000  0  9G 1G 5G 9G11G12G14G17G20G32
  21930210.225    21930209.6834   21930212.9814  115244023.711 8  89800557.72945
        54.939          42.808
  23691274.701    23691273.8454   23691277.8424  124498474.891 6  97011827.82443
      2469.894        1924.602
  23091768.061    23091767.7124   23091770.6484  121348045.398 7  94556937.63444
     -3815.073       -2972.784
  22118724.521    22118724.2604   22118726.0094  116234666.385 8  90572488.47845
     -3115.700       -2427.823
  23487897.609    23487897.7384   23487899.7014  123429726.236 7  96179026.41545
      1838.950        1432.952
  22235933.135    22235932.6894   22235934.9054  116850607.351 7  91052442.73645
     -1998.791       -1557.495
  21422901.333    21422901.2574   21422903.0654  112578094.134 8  87723210.49346
      -869.545        -677.569
  21991492.852    21991492.2454   21991494.8294  115566064.395 7  90051497.98845
      1716.048        1337.184
  22085736.063    22085735.4494   22085738.8504  116061313.574 8  90437409.93846
     -2433.561       -1896.284
 08  4 24  9 15  0.0000000  0  9G 1G 5G 9G11G12G14G17G20G32
  21929958.239    21929957.6674   21929960.8874  115242698.959 7  89799525.50346
        33.688          26.250
  23677212.437    23677211.9354   23677215.5094  124424578.026 6  96954245.89743
      2456.875        1914.448
  23113597.198    23113596.9224   23113599.7184  121462758.416 7  94646324.35944
     -3832.132       -2986.078
  22136557.750    22136557.3514   22136559.3554  116328381.067 8  90645512.91545
     -3131.711       -2440.302
  23477444.822    23477444.7914   23477446.7024  123374795.811 7  96136223.56045
      1823.356        1420.797
  22247404.370    22247404.0274   22247406.1504  116910889.422 7  91099415.78245
     -2019.720       -1573.809
  21427928.611    21427928.6994   21427930.4334  112604512.898 8  87743796.52846
      -891.412        -694.607
  21981746.089    21981745.2494   21981748.0664  115514843.943 8  90011585.97245
      1698.960        1323.866
  22099678.363    22099677.6814   22099681.0094  116134580.511 8  90494501.09046
     -2450.602       -1909.561
 08  4 24  9 15 30.0000000  0  9G 1G 5G 9G11G12G14G17G20G32
  21929825.441    21929824.8604   21929827.9814  115242001.472 7  89798982.02145
        12.781           9.963
  23663223.474    23663222.6614   23663226.7224  124351064.482 6  96896962.65743
      2444.039        1904.460
  23135521.342    23135521.2634   23135524.2054  121577970.900 7  94736100.26444
     -3848.738       -2999.016
  22154480.230    22154479.9014   22154481.8354  116422564.421 8  90718902.54245
     -3147.241       -2452.402
  23467079.048    23467079.0224   23467081.2594  123320324.451 7  96093778.37345
      1808.016        1408.840
  22258993.071    22258992.7004   22258994.8554  116971788.334 7  91146869.51445
     -2040.230       -1589.791
  21433078.773    21433078.7314   21433080.7134  112631576.886 8  87764885.32846
      -912.880        -711.333
  21972095.101    21972094.2774   21972097.0114  115464127.078 7  89972066.23945
      1682.118        1310.744
  22113715.648    22113715.1784   22113718.3324  116208347.636 8  90551981.96246
     -2467.220       -1922.507
 08  4 24  9 16  0.0000000  0  9G 1G 5G 9G11G12G14G17G20G32
  21929811.033    21929810.6664   21929813.8814  115241926.722 7  89798923.78046
        -7.911          -6.163
  23649306.898    23649305.8154   23649309.5664  124277931.688 6  96839976.08943
      2431.319        1894.532
  23157539.175    23157538.7754   23157541.9224  121693673.931 7  94826258.40244
     -3864.973       -3011.662
  22172490.267    22172489.9904   22172492.0234  116517208.787 7  90792651.41745
     -3162.523       -2464.296
  23456800.701    23456800.5094   23456802.5124  123266309.464 7  96051688.79645
      1792.837        1397.016
  22270697.687    22270697.4314   22270699.5844  117033297.716 7  91194798.99045
     -2060.542       -1605.613
  21438350.686    21438350.6524   21438352.6574  112659280.910 8  87786472.87246
      -934.192        -727.946
  21962539.177    21962538.4644   21962541.1724  115413910.820 7  89932936.60945
      1665.442        1297.751
  22127846.996    22127846.2834   22127849.5744  116282607.798 8  90609846.94846
     -2483.568       -1935.244
 08  4 24  9 16 30.0000000  0  9G 1G 5G 9G11G12G14G17G20G32
  21929916.061    21929915.3924   21929918.5834  115242477.014 7  89799352.56146
       -28.669         -22.346
  23635463.390    23635462.4114   23635466.3974  124205184.112 6  96783289.69543
      2418.591        1884.618
  23179649.678    23179649.2984   23179652.7164  121809866.366 7  94916797.97544
     -3881.110       -3024.238
  22190588.217    22190587.8904   22190590.0394  116612313.217 8  90866758.59545
     -3177.691       -2476.112
  23446609.377    23446609.1574   23446611.5054  123212754.692 7  96009957.82845
      1777.566        1385.114
  22282518.811    22282518.4424   22282520.5624  117095417.514 7  91243204.07145
     -2080.672       -1621.303
  21443744.455    21443744.4974   21443746.5084  112687626.109 7  87808560.08246
      -955.405        -744.470
  21953079.468    21953078.7274   21953081.3774  115364198.759 7  89894199.91745
      1648.771        1284.760
  22142072.138    22142071.3774   22142074.7684  116357361.323 7  90668096.46946
     -2499.853       -1947.936
 08  4 24  9 17  0.0000000  0  9G 1G 5G 9G11G12G14G17G20G32
  21930133.741    21930133.2104   21930136.3384  115243621.936 8  89800244.74045
       -48.805         -38.031
  23621687.749    23621687.2564   23621691.0584  124132793.560 6  96726881.50643
      2406.268        1875.004
  23201847.086    23201846.5804   23201849.5444  121926513.191 7  95007691.59244
     -3896.487       -3036.225
  22208767.333    22208767.2204   22208769.3794  116707844.379 7  90941198.03445
     -3192.209       -2487.420
  23436500.396    23436500.3304   23436502.5094  123159631.551 7  95968563.19245
      1762.806        1373.616
  22294449.664    22294449.3334   22294451.4494  117158114.480 7  91292058.85845
     -2100.263       -1636.580
  21449254.482    21449254.4364   21449256.3924  112716581.161 7  87831122.45146
      -976.057        -760.562
  21943709.989    21943709.2774   21943711.9034  115314962.126 8  89855833.75145
      1632.521        1272.093
  22156384.660    22156384.1534   22156387.4284  116432574.981 7  90726704.49945
     -2515.524       -1960.142
 08  4 24  9 17 30.0000000  0  9G 1G 5G 9G11G12G14G17G20G32
  21930469.211    21930468.5124   21930471.8254  115245384.881 7  89801618.50946
       -69.090         -53.835
  23607985.128    23607984.8274   23607988.1754  124060785.505 6  96670771.41143
      2393.812        1865.316
  23224134.303    23224133.6484   23224136.9574  122043633.934 7  95098954.50344
     -3911.929       -3048.255
  22227031.890    22227031.5244   22227033.6194  116803823.991 8  91015987.34845
     -3206.809       -2498.817
  23426478.291    23426478.0784   23426480.3404  123106964.845 7  95927524.21345
      1747.893        1361.992
  22306494.566    22306494.1054   22306496.2854  117221410.368 7  91341380.36245
     -2119.841       -1651.823
  21454884.709    21454884.7704   21454886.7334  112746168.631 8  87854177.62146
      -996.785        -776.713
  21934435.705    21934434.8634   21934437.4914  115266225.537 7  89817857.20245
      1616.158        1259.346
  22170789.055    22170788.3644   22170791.6804  116508270.023 8  90785687.65945
     -2531.189       -1972.355
 08  4 24  9 18  0.0000000  0  9G 1G 5G 9G11G12G14G17G20G32
  21930925.412    21930924.9324   21930928.0234  115247782.300 7  89803486.60546
       -90.966         -70.885
  23594359.073    23594358.2464   23594361.5874  123989178.805 6  96614974.08444
      2379.682        1854.298
  23246514.386    23246513.7614   23246516.7734  122161241.211 7  95190596.51644
     -3928.773       -3061.383
  22245384.036    22245383.7634   22245385.9304  116900264.924 7  91091136.01945
     -3222.860       -2511.314
  23416546.405    23416546.3154   23416548.6544  123054772.753 7  95886855.08345
      1731.318        1349.078
  22318655.967    22318655.4574   22318657.8444  117285319.476 7  91391179.66145
     -2140.970       -1668.302
  21460638.297    21460638.4854   21460640.4444  112776404.572 8  87877738.09746
     -1019.151        -794.147
  21925259.888    21925259.2774   21925261.8894  115218007.241 7  89780284.62145
      1598.141        1245.300
  22185287.417    22185286.8454   22185290.4494  116584460.670 7  90845056.98945
     -2548.403       -1985.773
 08  4 24  9 18 30.0000000  0  9G 1G 5G 9G11G12G14G17G20G32
  21931501.382    21931500.7754   21931503.9974  115250809.014 8  89805845.08346
      -111.266         -86.701
  23580807.883    23580807.4334   23580811.3334  123917970.257 6  96559486.92944
      2367.056        1844.442
  23268984.704    23268984.5784   23268987.7834  122279325.939 6  95282610.59344
     -3943.984       -3073.238
  22263822.637    22263822.1584   22263824.3664  116997159.864 7  91166638.59745
     -3237.372       -2522.649
  23406704.349    23406704.2734   23406706.2084  123003052.098 7  95846553.27345
      1716.274        1337.354
  22330932.882    22330932.4624   22330934.4944  117349834.537 7  91441451.19945
     -2160.481       -1683.494
  21466514.191    21466514.2244   21466516.2894  112807282.335 8  87901798.71646
     -1039.850        -810.274
  21916182.159    21916181.4064   21916184.0304  115170303.429 8  89743112.91445
      1581.611        1232.417
  22199879.058    22199878.3904   22199881.8994  116661139.461 7  90904806.69546
     -2563.995       -1997.918
 08  4 24  9 19  0.0000000  0  9G 1G 5G 9G11G12G14G17G20G32
  21932196.875    21932196.4484   21932199.7604  115254464.581 8  89808693.55746
      -132.257        -103.057
  23567333.707    23567333.0284   23567336.6704  123847161.839 6  96504311.57944
      2353.665        1834.017
  23291545.699    23291545.3474   23291548.1664  122397883.644 7  95374993.24544
     -3959.682       -3085.472
  22282346.451    22282346.2134   22282348.1414  117094505.789 7  91242493.05245
     -3252.213       -2534.192
  23396951.925    23396951.9854   23396953.9084  122951804.139 7  95806619.84445
      1700.448        1325.025
  22343324.450    22343323.9414   22343326.1424  117414952.488 7  91492192.43945
     -2180.523       -1699.106
  21472512.032    21472512.0984   21472514.0264  112838801.107 8  87926358.82646
     -1061.195        -826.906
  21907202.346    21907201.7744   21907204.4014  115123114.817 8  89706342.61845
      1564.433        1219.039
  22214562.944    22214562.3324   22214565.8514  116738303.529 7  90964934.45845
     -2580.094       -2010.466
 08  4 24  9 19 30.0000000  0  9G 1G 5G 9G11G12G14G17G20G32
  21933011.620    21933011.1244   21933014.3454  115258745.289 8  89812029.17346
      -152.919        -119.159
  23553935.223    23553934.5194   23553938.4024  123776752.178 7  96449446.99044
      2340.498        1823.756
  23314194.693    23314194.3934   23314197.8154  122516906.555 6  95467738.34544
     -3974.931       -3097.347
  22300954.958    22300954.6844   22300956.5724  117192294.467 8  91318692.08645
     -3266.831       -2545.589
  23387289.300    23387289.4754   23387291.2714  122901026.753 7  95767053.11845
      1684.906        1312.914
  22355829.523    22355829.2264   22355831.4634  117480667.812 7  91543399.12145
     -2200.274       -1714.499
  21478631.034    21478630.9994   21478633.0714  112870956.301 7  87951414.80946
     -1082.248        -843.313
  21898320.322    21898319.5254   21898322.2094  115076439.431 8  89669972.23045
      1547.449        1205.798
  22229338.015    22229337.3534   22229341.0154  116815947.113 7  91025435.95745
     -2595.913       -2022.798
 08  4 24  9 20  0.0000000  0  9G 1G 5G 9G11G12G14G17G20G32
  21933945.677    21933944.9584   21933948.1924  115263652.674 8  89815853.05246
      -174.022        -135.603
  23540612.956    23540612.7184   23540616.2494  123706745.067 6  96394896.03544
      2326.851        1813.124
  23336932.623    23336932.1214   23336935.3924  122636392.601 6  95560844.32744
     -3990.550       -3109.523
  22319647.579    22319647.3854   22319649.3674  117290525.470 7  91395235.72345
     -3281.739       -2557.200
  23377716.922    23377716.7854   23377718.6254  122850723.561 7  95727855.92245
      1668.879        1300.421
  22368448.411    22368448.1094   22368450.1944  117546980.246 7  91595071.11545
     -2220.374       -1730.161
  21484871.181    21484871.0844   21484873.0744  112903748.617 7  87976967.28946
     -1103.672        -860.003
  21889536.644    21889535.6914   21889538.5904  115030280.319 8  89634004.11445
      1530.030        1192.230
  22244204.230    22244203.6054   22244207.0954  116894069.557 7  91086310.62245
     -2612.014       -2035.340
 08  4 24  9 20 30.0000000  0 10G 1G 4G 5G 9G11G12G14G17G20G32
  21934999.539    21934998.8554   21935002.1804  115269190.833 7  89820168.48746
      -195.292        -152.179
  24563552.465    24563552.5264   24563555.0604  129082336.114 6 100583661.62842
      3086.987        2405.445
  23527369.350    23527368.5764   23527372.2404  123637146.630 7  96340663.54244
      2312.964        1802.309
  23359758.194    23359757.6744   23359760.7214  122756341.539 6  95654311.04944
     -4006.125       -3121.661
  22338424.809    22338424.6584   22338426.6594  117389199.914 7  91472124.83245
     -3296.762       -2568.935
  23368235.883    23368235.7654   23368237.5304  122800899.683 7  95689032.15845
      1652.594        1287.737
  22381181.179    22381180.8424   22381183.0674  117613891.343 7  91647209.62945
     -2240.511       -1745.856
  21491233.061    21491233.1374   21491235.0034  112937180.750 7  88003018.31646
     -1125.189        -876.771
  21880852.157    21880851.3304   21880854.1354  114984642.929 8  89598442.50545
      1512.378        1178.473
  22259161.945    22259161.2434   22259164.6374  116972672.181 7  91147559.39845
     -2628.220       -2047.963
 08  4 24  9 21  0.0000000  0 10G 1G 4G 5G 9G11G12G14G17G20G32
  21936173.050    21936172.2904   21936175.7254  115275358.517 7  89824974.56245
      -216.450        -168.662
  24545945.060    24545945.5054   24545949.2584  128989812.301 6 100511565.18042
      3080.770        2400.625
  23514203.022    23514202.4014   23514205.5734  123567958.026 7  96286750.39244
      2299.053        1791.466
  23382670.681    23382670.4464   23382673.6374  122876748.652 6  95748134.81244
     -4021.539       -3133.665
  22357285.741    22357285.4404   22357287.3654  117488314.394 7  91549357.00145
     -3311.519       -2580.396
  23358845.730    23358845.7254   23358847.6994  122751556.051 7  95650582.62045
      1636.367        1275.094
  22394027.207    22394026.7064   22394028.9664  117681397.758 7  91699812.09045
     -2260.505       -1761.428
  21497716.304    21497716.3334   21497718.2354  112971250.900 7  88029566.51646
     -1146.701        -893.534
  21872266.810    21872266.1574   21872268.8604  114939527.525 8  89563287.66245
      1494.732        1164.725
  22274210.304    22274209.6364   22274212.9834  117051751.791 7  91209179.87545
     -2644.279       -2060.472
 08  4 24  9 21 30.0000000  0 10G 1G 4G 5G 9G11G12G14G17G20G32
  21937467.585    21937467.2084   21937470.4904  115282162.837 8  89830276.63946
      -237.353        -184.945
  24528374.265    24528374.3444   24528377.5384  128897475.488 6 100439614.46542
      3074.823        2395.941
  23501116.472    23501115.8424   23501119.3304  123499188.966 7  96233164.21344
      2285.334        1780.768
  23405671.122    23405670.8624   23405674.0564  122997617.260 6  95842318.12244
     -4036.534       -3145.351
  22376231.209    22376230.7844   22376232.5774  117587873.171 8  91626935.32645
     -3325.928       -2591.633
  23349549.161    23349549.0764   23349550.8934  122702701.700 7  95612514.37045
      1620.369        1262.617
  22406987.598    22406987.1284   22406989.0664  117749504.524 7  91752882.26345
     -2280.118       -1776.712
  21504322.259    21504322.3394   21504324.3674  113005965.843 8  88056617.11646
     -1167.820        -909.989
  21863782.784    21863782.0594   21863784.6624  114894942.995 8  89528546.47946
      1477.362        1151.190
  22289350.265    22289349.7254   22289353.0954  117131313.178 7  91271175.72445
     -2659.988       -2072.721
 08  4 24  9 22  0.0000000  0 10G 1G 4G 5G 9G11G12G14G17G20G32
  21938883.211    21938882.7174   21938886.0454  115289601.764 8  89836073.23046
      -258.728        -201.605
  24510838.833    24510839.3094   24510841.8664  128805325.547 6 100367809.35842
      3068.337        2390.906
  23488110.380    23488109.2384   23488112.6214  123430839.393 7  96179904.85144
      2271.113        1769.706
  23428758.447    23428758.0904   23428761.5174  123118941.022 6  95936856.12344
     -4051.844       -3157.281
  22395260.216    22395259.8554   22395261.6484  117687871.005 7  91704855.64145
     -3340.763       -2603.187
  23340345.264    23340345.1604   23340347.2514  122654336.192 7  95574827.01945
      1603.818        1249.731
  22420061.226    22420060.8404   22420062.9064  117818207.198 7  91806416.78345
     -2300.202       -1792.364
  21511050.417    21511050.3374   21511052.4084  113041321.899 8  88084167.27246
     -1189.391        -926.798
  21855399.496    21855398.7084   21855401.5254  114850888.643 8  89494218.44146
      1459.447        1137.227
  22304581.371    22304580.5714   22304584.1284  117211352.393 7  91333543.96845
     -2676.118       -2085.290
 08  4 24  9 22 30.0000000  0 10G 1G 4G 5G 9G11G12G14G17G20G32
  21940419.486    21940418.7994   21940422.3094  115297674.452 7  89842363.67946
      -279.534        -217.817
  24493339.242    24493339.2864   24493342.0844  128713363.564 6 100296150.71642
      3062.360        2386.252
  23475183.571    23475182.8964   23475186.4024  123362910.953 7  96126973.63944
      2257.336        1758.959
  23451931.335    23451930.8304   23451934.2054  123240715.594 6  96031745.39044
     -4066.504       -3168.703
  22414371.985    22414371.7724   22414373.5054  117788304.681 7  91783115.58145
     -3354.921       -2614.217
  23331234.652    23331234.7724   23331236.8344  122606460.380 7  95537521.27245
      1587.783        1237.236
  22433248.018    22433247.5874   22433249.6294  117887503.124 7  91860413.57345
     -2319.608       -1807.484
  21517900.313    21517900.2434   21517902.1994  113077317.751 7  88112215.94846
     -1210.447        -943.205
  21847117.335    21847116.6134   21847119.2754  114807365.201 8  89460304.05445
      1441.999        1123.644
  22319902.333    22319901.8184   22319905.1904  117291866.138 7  91396282.02545
     -2691.569       -2097.323
 08  4 24  9 23  0.0000000  0 10G 1G 4G 5G 9G11G12G14G17G20G32
  21942074.619    21942074.2204   21942077.6074  115306373.503 8  89849142.17446
      -300.418        -234.092
  24475873.661    24475874.0974   24475877.1494  128621584.140 6 100224634.30442
      3056.202        2381.447
  23462336.562    23462335.7474   23462339.4164  123295398.911 7  96074366.97744
      2243.439        1748.130
  23475187.750    23475187.2544   23475191.2264  123362929.686 6  96126977.13944
     -4081.087       -3180.064
  22433564.930    22433564.5204   22433566.4634  117889164.220 7  91861707.39645
     -3369.050       -2625.238
  23322216.328    23322216.3034   23322218.3054  122559068.824 7  95500592.83345
      1571.653        1224.661
  22446545.421    22446545.0484   22446547.2384  117957382.774 7  91914865.20045
     -2339.012       -1822.600
  21524870.275    21524870.3094   21524872.1764  113113945.304 8  88140756.89246
     -1231.411        -959.537
  21838935.025    21838934.3174   21838936.9574  114764366.788 8  89426798.70745
      1424.485        1109.986
  22335312.312    22335311.6054   22335315.0714  117372844.492 7  91459381.91145
     -2706.988       -2109.335
 08  4 24  9 23 30.0000000  0 10G 1G 4G 5G 9G11G12G14G17G20G32
  21943849.121    21943848.7924   21943852.0954  115315698.390 7  89856408.32146
      -321.416        -250.458
  24458443.526    24458443.6174   24458446.7164  128529988.848 6 100153261.36442
      3049.981        2376.616
  23449568.520    23449567.6644   23449571.9454  123228304.935 6  96022086.04744
      2229.372        1737.170
  23498527.164    23498526.7434   23498530.2724  123485579.026 6  96222548.03744
     -4095.604       -3191.390
  22452838.345    22452837.9624   22452839.7354  117990446.477 7  91940628.63845
     -3383.273       -2636.330
  23313290.376    23313290.3234   23313292.4374  122512162.825 7  95464042.74745
      1555.281        1211.906
  22459953.695    22459953.3394   22459955.3924  118027843.410 7  91969769.56645
     -2358.461       -1837.767
  21531960.300    21531960.2084   21531962.0544  113151203.047 7  88169788.87946
     -1252.554        -976.014
  21830852.936    21830852.2464   21830854.9474  114721894.910 8  89393703.71545
      1406.807        1096.214
  22350810.026    22350809.5074   22350812.8914  117454285.312 7  91522842.19145
     -2722.523       -2121.448
 08  4 24  9 24  0.0000000  0 10G 1G 4G 5G 9G11G12G14G17G20G32
  21945742.447    21945741.8954   21945745.2024  115325646.465 8  89864160.06846
      -342.020        -266.504
  24441048.524    24441048.4654   24441052.1554  128438577.084 6 100082031.42142
      3043.913        2371.894
  23436880.370    23436880.0274   23436883.5094  123161628.675 6  95970130.56544
      2215.510        1726.362
  23521948.180    23521947.9384   23521951.3254  123608657.176 6  96318453.05944
     -4109.759       -3202.404
  22472191.281    22472190.8694   22472192.6434  118092146.105 7  92019875.08345
     -3396.963       -2646.977
  23304456.849    23304456.7784   23304458.7294  122465741.657 7  95427870.44445
      1539.218        1199.387
  22473471.564    22473471.0724   22473473.3344  118098880.181 7  92025122.83445
     -2377.507       -1852.592
  21539169.441    21539169.4534   21539171.0824  113189087.545 8  88199309.26046
     -1273.306        -992.187
  21822870.535    21822869.9844   21822872.7264  114679948.247 8  89361018.01846
      1389.410        1082.654
  22366394.883    22366394.2084   22366397.5964  117536183.810 8  91586659.21945
     -2737.582       -2133.182
 08  4 24  9 24 30.0000000  0 10G 1G 4G 5G 9G11G12G14G17G20G32
  21947754.842    21947754.2984   21947757.7534  115336221.767 8  89872400.45846
      -362.957        -282.822
  24423689.629    24423689.9194   24423692.5784  128347354.953 6 100010949.24342
      3037.600        2366.969
  23424273.427    23424272.6034   23424276.2374  123095377.071 7  95918506.06644
      2201.361        1715.344
  23545451.044    23545450.8174   23545454.1064  123732164.942 6  96414692.84544
     -4123.980       -3213.491
  22491623.558    22491623.3284   22491625.1454  118194264.514 7  92099447.88545
     -3410.854       -2657.799
  23295716.603    23295716.6034   23295718.5394  122419811.552 7  95392080.81145
      1522.863        1186.646
  22487099.559    22487098.9644   22487101.3114  118170495.536 7  92080926.99445
     -2396.755       -1867.601
  21546498.568    21546498.5914   21546500.2514  113227602.264 8  88229320.73146
     -1294.273       -1008.521
  21814989.673    21814988.9044   21814991.4844  114638532.577 8  89328746.10746
      1371.697        1068.854
  22382067.099    22382066.4824   22382069.8314  117618541.819 7  91650834.26845
     -2752.881       -2145.100
 08  4 24  9 25  0.0000000  0 10G 1G 4G 5G 9G11G12G14G17G20G32
  21949887.457    21949886.9134   21949890.4314  115347429.055 7  89881133.36846
      -383.910        -299.151
  24406368.048    24406368.2084   24406370.7274  128256329.145 6  99940020.05643
      3031.127        2361.920
  23411747.867    23411747.0384   23411750.7744  123029556.850 6  95867217.70644
      2186.994        1704.152
  23569035.312    23569035.2474   23569038.7994  123856102.706 6  96511267.71044
     -4138.175       -3224.550
  22511136.271    22511135.8804   22511137.7884  118296803.457 7  92179348.29645
     -3424.812       -2668.694
  23287070.914    23287071.0544   23287072.9214  122374378.460 7  95356678.47845
      1506.324        1173.751
  22500837.850    22500837.5184   22500839.7804  118242691.583 7  92137183.61245
     -2416.045       -1882.631
  21553948.140    21553948.2464   21553949.9894  113266750.613 7  88259825.94446
     -1315.342       -1024.942
  21807210.729    21807209.8984   21807212.5434  114597653.775 8  89296892.52545
      1353.869        1054.964
  22397827.222    22397826.5014   22397830.0254  117701361.653 7  91715369.19145
     -2768.188       -2157.031
 08  4 24  9 25 30.0000000  0 10G 1G 4G 5G 9G11G12G14G17G20G32
  21952138.706    21952138.1104   21952141.6194  115359259.652 7  89890352.04246
      -404.657        -315.319
  24389082.364    24389082.4534   24389085.4204  128165493.056 6  99869238.70143
      3024.785        2356.968
  23399303.209    23399303.0394   23399306.3424  122964161.601 6  95816260.38844
      2172.821        1693.111
  23592699.491    23592699.0764   23592702.6054  123980458.066 6  96608167.98943
     -4151.991       -3235.319
  22530726.574    22530726.4194   22530728.3284  118399752.140 7  92259568.03845
     -3438.333       -2679.224
  23278518.554    23278518.5534   23278520.3264  122329435.719 7  95321658.21445
      1489.978        1161.018
  22514684.787    22514684.4114   22514686.7444  118315457.649 7  92193884.45445
     -2434.951       -1897.368
  21561516.658    21561516.6524   21561518.4864  113306523.031 8  88290817.44646
     -1336.041       -1041.071
  21799532.394    21799531.6824   21799534.3874  114557304.932 8  89265451.87946
      1336.220        1041.212
  22413673.076    22413672.4724   22413675.9034  117784632.512 7  91780255.56145
     -2783.080       -2168.630
 08  4 24  9 26  0.0000000  0 10G 1G 4G 5G 9G11G12G14G17G20G32
  21954507.994    21954507.4004   21954510.8314  115371709.995 8  89900053.58146
      -425.454        -331.522
  24371832.726    24371832.6474   24371835.7504  128074845.495 6  99798604.24043
      3018.268        2351.906
  23386939.958    23386939.0914   23386942.9144  122899190.535 6  95765633.60044
      2158.475        1681.934
  23616441.406    23616440.9154   23616444.9054  124105223.847 6  96705388.06643
     -4165.792       -3246.072
  22550393.974    22550393.6504   22550395.5314  118503104.230 7  92340102.14945
     -3451.913       -2689.801
  23270058.985    23270059.2264   23270061.0354  122284981.820 7  95287018.86345
      1473.505        1148.188
  22528639.171    22528638.7994   22528641.1074  118388788.295 7  92251025.23545
     -2453.869       -1912.103
  21569203.032    21569203.1324   21569204.9044  113346915.446 8  88322292.07446
     -1356.858       -1057.292
  21791954.852    21791954.0484   21791956.7484  114517484.337 8  89234422.93146
      1318.413        1027.333
  22429603.742    22429603.1654   22429606.6914  117868348.856 7  91845489.02545
     -2798.077       -2180.317
 08  4 24  9 26 30.0000000  0 10G 1G 4G 5G 9G11G12G14G17G20G32
  21956997.536    21956996.9814   21957000.5794  115384793.137 7  89910248.25846
      -446.586        -347.988
  24354621.780    24354622.0904   24354624.3994  127984401.415 6  99728128.32543
      3011.473        2346.604
  23374659.830    23374659.1714   23374662.8134  122834659.177 6  95715349.43344
      2143.736        1670.433
  23640263.340    23640263.4264   23640266.5464  124230409.314 6  96802935.19043
     -4179.710       -3256.918
  22570139.993    22570139.7534   22570141.6674  118606869.742 7  92420958.27145
     -3465.610       -2700.469
  23261695.852    23261695.6994   23261697.4134  122241031.230 7  95252771.67645
      1456.660        1135.054
  22542702.661    22542702.6004   22542704.8174  118462694.040 7  92308614.13245
     -2473.058       -1927.049
  21577009.843    21577009.9224   21577011.6084  113387939.790 8  88354259.08446
     -1377.920       -1073.703
  21784480.644    21784479.6734   21784482.3534  114478206.409 8  89203816.78946
      1300.258        1013.188
  22445621.221    22445620.7674   22445624.1254  117952521.665 7  91911078.21345
     -2813.241       -2192.135
 08  4 24  9 27  0.0000000  0 10G 1G 4G 5G 9G11G12G14G17G20G32
  21959605.907    21959605.3774   21959608.9974  115398500.751 8  89920929.53246
      -467.422        -364.225
  24337448.586    24337448.4714   24337451.4784  127894154.903 6  99657806.36343
      3004.797        2341.396
  23362462.884    23362461.9734   23362465.1764  122770561.774 6  95665403.42744
      2129.223        1659.135
  23664163.449    23664162.8844   23664166.4474  124356002.782 6  96900800.23143
     -4193.342       -3267.546
  22589962.663    22589962.2994   22589964.4594  118711038.214 7  92502128.36145
     -3479.133       -2711.023
  23253426.644    23253426.5774   23253428.4894  122197578.151 7  95218912.17045
      1440.000        1122.078
  22556874.289    22556873.9594   22556876.1624  118537164.910 7  92366643.43745
     -2491.857       -1941.702
  21584935.234    21584935.1264   21584936.8074  113429587.023 7  88386711.48246
     -1398.749       -1089.937
  21777108.000    21777107.3604   21777109.9784  114439464.340 8  89173628.15546
      1282.334         999.223
  22461723.765    22461723.2574   22461726.4734  118037140.537 7  91977015.01345
     -2828.150       -2203.753
 08  4 24  9 27 30.0000000  0 10G 1G 4G 5G 9G11G12G14G17G20G32
  21962333.768    21962333.2684   21962336.9564  115412836.186 7  89932099.98046
      -488.190        -380.407
  24320313.972    24320314.1114   24320317.0474  127804111.163 6  99587642.41143
      2998.176        2336.248
  23350348.947    23350348.3634   23350351.6544  122706904.105 6  95615800.07544
      2114.698        1647.819
  23688140.421    23688140.1814   23688143.4084  124482003.589 6  96998982.65043
     -4206.661       -3277.912
  22609862.117    22609862.0034   22609863.9334  118815610.775 7  92583613.50245
     -3492.295       -2721.266
  23245253.583    23245253.6654   23245255.2584  122154627.548 7  95185444.15945
      1423.432        1109.165
  22571153.370    22571152.7164   22571155.1784  118612201.816 7  92425113.75845
     -2510.505       -1956.240
  21592979.393    21592979.3264   21592980.8904  113471859.551 8  88419651.11146
     -1419.368       -1106.001
  21769838.779    21769838.0694   21769840.5704  114401263.381 8  89143861.16946
      1264.459         985.294
  22477911.161    22477910.6554   22477914.1434  118122206.667 7  92043300.33845
     -2842.840       -2215.204
 08  4 24  9 28  0.0000000  0 10G 1G 4G 5G 9G11G12G14G17G20G32
  21965180.064    21965179.5084   21965183.2424  115427793.749 7  89943755.25446
      -509.009        -396.633
  24303217.313    24303216.9704   24303219.9784  127714266.969 6  99517633.96343
      2991.425        2330.981
  23338318.509    23338317.5114   23338321.3014  122643683.018 6  95566536.98244
      2099.976        1636.346
  23712193.103    23712192.6944   23712196.5094  124608402.250 6  97097475.09843
     -4219.936       -3288.255
  22629836.940    22629836.5384   22629838.7654  118920578.750 7  92665406.65845
     -3505.573       -2731.611
  23237175.101    23237175.2364   23237176.9334  122112175.714 7  95152364.87445
      1406.648        1096.083
  22585538.459    22585538.3114   22585540.6304  118687797.130 7  92484019.24945
     -2529.181       -1970.788
  21601141.252    21601141.2914   21601142.9164  113514750.693 7  88453072.76946
     -1440.051       -1122.117
  21762671.308    21762670.6654   21762673.3444  114363599.205 8  89114512.46246
      1246.467         971.275
  22494182.294    22494181.8714   22494185.2214  118207712.027 7  92109927.86845
     -2857.547       -2226.663
 08  4 24  9 28 30.0000000  0 10G 1G 4G 5G 9G11G12G14G17G20G32
  21968144.962    21968144.6344   21968148.2134  115443375.076 7  89955896.57846
      -529.821        -412.844
  24286159.012    24286158.8434   24286161.7114  127624626.109 6  99447783.94043
      2984.614        2325.674
  23326371.442    23326370.8094   23326374.5414  122580902.494 6  95517617.07144
      2085.288        1624.910
  23736321.271    23736320.9904   23736324.7044  124735197.204 6  97196276.35943
     -4233.137       -3298.548
  22649886.733    22649886.6304   22649888.5834  119025941.388 7  92747507.41245
     -3518.646       -2741.804
  23229192.588    23229192.4514   23229194.1774  122070226.022 7  95119676.88045
      1389.872        1083.018
  22600030.111    22600029.6664   22600031.8644  118763950.308 7  92543359.37845
     -2547.804       -1985.299
  21609421.118    21609421.2384   21609422.8174  113558261.626 8  88486977.38946
     -1460.736       -1138.236
  21755606.959    21755606.2114   21755609.0204  114326475.410 7  89085584.78346
      1228.385         957.179
  22510537.059    22510536.4354   22510539.8854  118293656.569 7  92176897.64445
     -2872.127       -2238.013
 08  4 24  9 29  0.0000000  0 10G 1G 4G 5G 9G11G12G14G17G20G32
  21971229.639    21971229.1324   21971232.5624  115459583.961 8  89968526.90746
      -550.736        -429.145
  24269141.135    24269140.9004   24269143.6984  127535194.865 6  99378097.26343
      2977.587        2320.198
  23314510.160    23314509.3484   23314512.9194  122518569.196 6  95469045.61644
      2070.318        1613.232
  23760525.239    23760525.0754   23760528.4284  124862388.588 6  97295386.52843
     -4246.254       -3308.765
  22670011.888    22670011.7914   22670013.8474  119131700.054 7  92829916.69345
     -3531.867       -2752.108
  23221306.424    23221306.2944   23221308.0174  122028784.382 7  95087384.70745
      1372.903        1069.786
  22614628.105    22614627.7024   22614629.8604  118840663.202 7  92603135.62145
     -2566.398       -1999.785
  21617819.637    21617819.5004   21617821.2374  113602395.220 8  88521367.22346
     -1481.445       -1154.377
  21748646.271    21748645.6274   21748648.3534  114289897.294 8  89057082.36946
      1210.198         943.010
  22526975.821    22526975.1344   22526978.6884  118380041.858 7  92244210.75245
     -2886.849       -2249.493
 08  4 24  9 29 30.0000000  0 10G 1G 4G 5G 9G11G12G14G17G20G32
  21974433.654    21974433.0754   21974436.5404  115476420.985 7  89981646.64946
      -571.854        -445.603
  24252162.832    24252163.1294   24252165.7884  127445976.443 6  99308576.41743
      2970.160        2314.407
  23302733.966    23302733.7404   23302736.8954  122456686.434 6  95420825.23944
      2055.038        1601.325
  23784803.800    23784803.5114   23784807.1414  124989973.765 6  97394803.54343
     -4259.535       -3319.113
  22690212.504    22690212.1334   22690214.0784  119237853.222 7  92912633.52545
     -3545.155       -2762.459
  23213517.368    23213517.3154   23213519.2764  121987853.850 7  95055490.81145
      1355.623        1056.333
  22629332.573    22629332.1164   22629334.2334  118917934.789 7  92663347.21845
     -2585.199       -2014.442
  21626336.169    21626336.1904   21626337.9474  113647151.386 8  88556242.16346
     -1502.418       -1170.711
  21741790.046    21741789.3334   21741792.1424  114253867.661 7  89029007.36946
      1191.633         928.546
  22543498.081    22543497.3704   22543500.9104  118466867.149 7  92311866.82945
     -2901.667       -2261.045
 08  4 24  9 30  0.0000000  0 10G 1G 4G 5G 9G11G12G14G17G20G32
  21977756.779    21977756.2134   21977759.7604  115493883.891 8  89995254.08746
      -592.439        -461.641
  24235225.828    24235226.0694   24235229.1834  127356970.424 6  99239221.06643
      2963.380        2309.115
  23291044.019    23291043.3134   23291047.2404  122395254.342 6  95372956.05644
      2040.288        1589.831
  23809156.277    23809156.1584   23809159.6794  125117946.619 6  97494522.64743
     -4272.060       -3328.887
  22710486.756    22710486.4064   22710488.4684  119344395.534 7  92995653.41745
     -3557.778       -2772.297
  23205825.657    23205825.7584   23205827.6534  121947433.600 7  95023994.55245
      1338.927        1043.323
  22644142.261    22644141.8624   22644144.1144  118995760.642 7  92723990.69945
     -2603.288       -2028.531
  21634970.846    21634970.8024   21634972.6104  113692526.711 8  88591599.55746
     -1522.730       -1186.545
  21735038.030    21735037.2654   21735040.0904  114218385.415 8  89001358.89146
      1173.687         914.557
  22560103.132    22560102.2984   22560105.9634  118554127.800 7  92379862.29845
     -2915.810       -2272.064
 08  4 24  9 30 30.0000000  0 10G 1G 4G 5G 9G11G12G14G17G20G32
  21981198.263    21981197.7744   21981201.1224  115511968.873 8  90009346.23946
      -613.255        -477.857
  24218328.587    24218328.5324   24218331.9214  127268175.271 6  99170030.01443
      2956.217        2303.542
  23279439.559    23279438.6014   23279442.2124  122334272.050 6  95325437.47444
      2025.164        1578.060
  23833581.537    23833580.7774   23833584.7104  125246299.807 6  97594538.11843
     -4284.775       -3338.781
  22730834.045    22730833.8364   22730835.9764  119451321.254 7  93078972.01545
     -3570.625       -2782.299
  23198230.435    23198230.6034   23198232.5744  121907521.664 7  94992894.35245
      1321.826        1029.998
  22659056.326    22659056.0884   22659058.1434  119074134.530 7  92785061.23945
     -2621.616       -2042.822
  21643722.426    21643722.5144   21643724.1554  113738516.519 7  88627435.77146
     -1543.282       -1202.556
  21728389.773    21728389.0724   21728391.8724  114183448.712 8  88974135.50746
      1155.400         900.314
  22576789.694    22576789.2124   22576792.7424  118641817.548 7  92448191.95445
     -2930.183       -2283.255
 08  4 24  9 31  0.0000000  0 11G 1G 4G 5G 9G11G12G14G17G20G31G32
  21684965.508    21684964.9944   21684968.2984  113955254.753 8  88796322.20946
      -634.117        -494.117
  23901678.769    23901678.6794   23901681.8954  125604169.107 6  97873401.83443
      2948.971        2297.896
  22968127.691    22968126.7694   22968130.5204  120698318.125 6  94050668.30044
      2009.929        1566.174
  23558285.779    23558285.2524   23558288.8494  123799612.567 6  96467249.38343
     -4297.438       -3348.663
  22451461.869    22451461.6434   22451463.7334  117983209.671 8  91934988.91545
     -3583.373       -2792.242
  22890939.846    22890939.8044   22890941.7964  120292697.030 7  93734589.40845
      1304.667        1016.625
  22374282.087    22374281.7284   22374283.8524  117577635.461 7  91618958.11245
     -2639.959       -2057.110
  21352798.272    21352798.2774   21352800.0204  112209699.781 8  87436150.00046
     -1563.876       -1218.605
  21422052.517    21422051.7974   21422054.6074  112573636.202 8  87719736.15246
      1137.019         885.985
  24590967.353    24590967.4124   24590970.4104  129226415.035 6 100695923.72743
      2685.428        2092.540
  22293765.697    22293765.1424   22293768.5914  117154515.875 7  91289255.57845
     -2944.500       -2294.414
 08  4 24  9 31 30.0000000  0 11G 1G 4G 5G 9G11G12G14G17G20G31G32
  21688644.871    21688644.4054   21688647.7934  113974589.740 8  88811388.44946
      -654.975        -510.373
  23884864.557    23884864.4894   23884867.5344  125515809.251 6  97804550.00443
      2941.601        2292.159
  22956696.761    22956696.1384   22956699.7164  120638248.508 7  94003860.91044
      1994.629        1554.241
  23582854.191    23582854.1654   23582857.6804  123928721.806 6  96567853.98643
     -4309.938       -3358.383
  22471954.917    22471954.6864   22471956.6344  118090900.218 7  92018903.45945
     -3596.100       -2802.151
  22883540.509    22883540.7204   22883542.5094  120253813.740 7  93704290.71845
      1287.409        1003.175
  22389404.792    22389404.3894   22389406.2474  117657105.409 7  91680882.77045
     -2658.110       -2071.259
  21361784.350    21361784.4514   21361786.1434  112256922.191 8  87472946.68246
     -1584.391       -1234.592
  21415613.971    21415613.0794   21415616.0574  112539800.902 8  87693370.98446
      1118.588         871.627
  24575657.886    24575658.0074   24575660.5124  129145963.968 6 100633234.78243
      2677.832        2086.604
  22310615.810    22310615.2794   22310618.8534  117243064.184 7  91358254.16645
     -2958.823       -2305.569
 08  4 24  9 32  0.0000000  0 11G 1G 4G 5G 9G11G12G14G17G20G31G32
  21692442.636    21692442.1634   21692445.5194  113994547.388 8  88826939.89346
      -675.604        -526.451
  23868091.980    23868091.8674   23868094.7694  125427668.307 6  97735868.75543
      2934.410        2286.558
  22945352.866    22945352.2214   22945355.5474  120578636.951 7  93957410.41644
      1979.366        1542.344
  23607493.669    23607493.6284   23607496.9744  124058201.712 6  96668747.43643
     -4322.075       -3367.860
  22492519.583    22492519.1254   22492521.3254  118198967.661 7  92103111.79645
     -3608.475       -2811.793
  22876239.276    22876239.3484   22876241.3184  120215445.609 7  93674393.47345
      1270.374         989.903
  22404630.694    22404630.3714   22404632.3354  117737118.174 7  91743230.35545
     -2676.084       -2085.261
  21370887.235    21370887.1834   21370888.8864  112304757.271 8  87510220.74546
     -1604.673       -1250.396
  21409279.988    21409279.3724   21409282.2384  112506516.705 8  87667435.20246
      1100.304         857.379
  24560390.805    24560391.1894   24560393.8394  129065736.259 6 100570719.80544
      2670.554        2080.965
  22327546.927    22327546.3554   22327549.7714  117332036.559 7  91427583.17645
     -2972.785       -2316.457
 08  4 24  9 32 30.0000000  0 11G 1G 4G 5G 9G11G12G14G17G20G31G32
  21696359.127    21696358.6634   21696361.9114  114015128.669 7  88842977.31446
      -696.367        -542.625
  23851361.730    23851361.6074   23851364.4404  125339749.776 6  97667360.83643
      2926.979        2280.758
  22934097.149    22934096.5264   22934099.8554  120519486.774 6  93911319.39944
      1964.051        1530.421
  23632202.894    23632202.8034   23632205.8684  124188049.595 6  96769927.62343
     -4334.293       -3377.375
  22513155.533    22513155.1044   22513157.1884  118307410.193 7  92187612.59745
     -3620.883       -2821.466
  22869036.784    22869036.7324   22869038.4744  120177595.413 7  93644899.86145
      1253.098         976.445
  22419959.800    22419959.3194   22419961.2114  117817672.570 7  91806000.00545
     -2694.088       -2099.288
  21380106.344    21380106.4694   21380108.1424  112353204.781 7  87547972.04746
     -1625.066       -1266.286
  21403051.736    21403050.8944   21403053.8874  112473786.059 7  87641930.72846
      1081.851         843.001
  24545167.247    24545167.4154   24545170.1684  128985735.480 6 100508381.57543
      2662.990        2075.054
  22344558.497    22344557.7724   22344561.4194  117421432.241 7  91497242.17945
     -2986.824       -2327.398
 08  4 24  9 33  0.0000000  0 11G 1G 4G 5G 9G11G12G14G17G20G31G32
  21700392.859    21700392.3884   21700395.6084  114036326.145 8  88859494.80546
      -716.970        -558.681
  23834672.116    23834672.3714   23834675.3454  125252048.601 6  97599022.26943
      2919.661        2275.048
  22922928.100    22922927.4754   22922931.1374  120460793.491 7  93865584.33944
      1948.706        1518.469
  23656980.086    23656980.0334   23656982.8994  124318254.763 6  96871386.20043
     -4346.164       -3386.621
  22533860.822    22533860.6504   22533862.5094  118416218.375 8  92272398.27745
     -3633.156       -2831.050
  22861931.648    22861931.5504   22861933.6584  120140257.941 7  93615805.76245
      1235.902         963.038
  22435389.956    22435389.6784   22435391.5184  117898759.123 7  91869184.34945
     -2711.827       -2113.115
  21389440.934    21389440.6924   21389442.6024  112402257.097 8  87586194.62946
     -1645.243       -1282.009
  21396927.654    21396926.9794   21396929.7914  112441603.765 8  87616853.60146
      1063.492         828.693
  24529986.217    24529986.1364   24529988.8054  128905957.052 6 100446216.51643
      2655.465        2069.196
  22361648.512    22361647.9944   22361651.5004  117511241.979 7  91567223.84745
     -3000.636       -2338.165
 08  4 24  9 33 30.0000000  0 11G 1G 4G 5G 9G11G12G14G17G20G31G32
  21704544.801    21704544.3544   21704547.6294  114058144.954 8  88876496.49846
      -737.669        -574.812
  23818026.346    23818026.2354   23818029.3234  125164572.192 6  97530858.84343
      2912.081        2269.150
  22911847.498    22911846.9754   22911850.1834  120402564.644 6  93820211.18544
      1933.163        1506.367
  23681825.866    23681825.5594   23681828.5004  124448818.338 6  96973124.03743
     -4358.111       -3395.937
  22554636.276    22554636.0984   22554638.0274  118525394.616 7  92357470.75945
     -3645.356       -2840.540
  22854925.260    22854925.2954   22854927.2954  120103439.840 7  93587116.35445
      1218.547         949.516
  22450922.047    22450921.8434   22450923.6524  117980380.733 7  91932785.58345
     -2729.634       -2126.980
  21398890.937    21398890.8844   21398892.8134  112451918.066 8  87624891.47446
     -1665.527       -1297.815
  21390909.099    21390908.3224   21390911.1784  112409976.238 8  87592208.81246
      1044.949         814.247
  24514848.550    24514848.7034   24514851.6634  128826408.904 6 100384231.01944
      2647.702        2063.156
  22378818.024    22378817.3954   22378821.0554  117601468.484 7  91637530.26145
     -3014.513       -2348.969
 08  4 24  9 34  0.0000000  0 11G 1G 4G 5G 9G11G12G14G17G20G31G32
  21708814.683    21708814.1394   21708817.3164  114080582.158 7  88893980.00146
      -758.202        -590.804
  23801422.736    23801422.7074   23801425.6404  125077320.580 6  97462870.59043
      2904.646        2263.354
  22900855.589    22900854.7214   22900858.2254  120344800.315 7  93775199.98644
      1917.720        1494.320
  23706738.365    23706737.7274   23706741.1724  124579734.634 6  97075136.75643
     -4369.731       -3404.983
  22575481.008    22575480.5804   22575482.4774  118634933.863 7  92442826.07645
     -3657.304       -2849.846
  22848018.129    22848017.9704   22848019.8004  120067140.586 7  93558831.21045
      1201.324         936.092
  22466554.964    22466554.5914   22466556.5254  118062532.809 7  91996800.16045
     -2747.223       -2140.693
  21408455.983    21408456.1554   21408458.1174  112502184.183 8  87664059.89046
     -1685.582       -1313.439
  21384995.930    21384995.2524   21384998.0444  112378902.299 8  87567995.34546
      1026.555         799.918
  24499754.484    24499754.5754   24499757.4384  128747090.658 6 100322424.65643
      2640.156        2057.285
  22396066.008    22396065.4904   22396069.0284  117692107.173 7  91708157.83145
     -3028.116       -2359.568
 08  4 24  9 34 30.0000000  0 11G 1G 4G 5G 9G11G12G14G17G20G31G32
  21713200.984    21713200.4844   21713203.6854  114103632.213 8  88911941.07146
      -778.531        -606.655
  23784861.384    23784861.0674   23784864.1674  124990290.411 6  97395054.88843
      2897.344        2257.670
  22889951.321    22889950.4694   22889953.8434  120287497.724 7  93730548.61944
      1902.362        1482.361
  23731716.108    23731715.7814   23731719.0654  124710994.497 6  97177417.13943
     -4381.011       -3413.776
  22596392.955    22596392.8234   22596394.8454  118744828.226 8  92528458.00745
     -3669.007       -2858.972
  22841208.240    22841208.3594   22841210.3884  120031356.757 7  93530947.70345
      1184.183         922.747
  22482287.741    22482287.0954   22482289.3454  118145207.654 7  92061222.09845
     -2764.513       -2154.163
  21418135.289    21418135.4084   21418137.3834  112553049.107 8  87703694.88746
     -1705.436       -1328.911
  21379187.650    21379186.7874   21379189.5184  112348378.550 8  87544210.60046
      1008.285         785.671
  24484704.375    24484704.3164   24484707.0154  128667999.554 6 100260795.12044
      2632.490        2051.287
  22413390.954    22413390.4694   22413394.0124  117783150.531 7  91779100.63345
     -3041.453       -2369.958
 08  4 24  9 35  0.0000000  0 12G 1G 4G 5G 9G11G12G14G17G20G30G31G32
  21717704.925    21717704.2044   21717707.4604  114127299.657 8  88930383.19946
      -799.225        -622.777
  23768343.338    23768343.6354   23768346.6004  124903489.208 6  97327417.61643
      2889.583        2251.630
  22879136.053    22879135.3764   22879138.7564  120230664.161 7  93686262.74844
      1886.588        1470.063
  23756759.760    23756759.2144   23756762.5924  124842599.442 6  97279966.44843
     -4392.532       -3422.760
  22617373.492    22617373.0414   22617374.9584  118855080.044 7  92614368.54645
     -3680.951       -2868.268
  22834498.418    22834498.1914   22834500.0844  119996094.942 7  93503470.94545
      1166.678         909.102
  22498120.169    22498119.7744   22498121.7704  118228408.365 7  92126053.80644
     -2782.075       -2167.852
  21427929.381    21427929.3114   21427931.2894  112604516.373 8  87743799.25146
     -1725.590       -1344.618
  21373484.734    21373484.0684   21373486.8384  112318410.914 8  87520859.24446
       989.646         771.151
  24339946.274    24339946.4824   24339949.7124  127907281.158 6  99668032.23643
      2854.503        2224.294
  24469698.093    24469698.3844   24469700.9954  128589143.691 6 100199349.23044
      2624.626        2045.144
  22430793.669    22430792.9004   22430796.6194  117874601.323 7  91850360.86645
     -3055.125       -2380.616
 08  4 24  9 35 30.0000000  0 12G 1G 4G 5G 9G11G12G14G17G20G30G31G32
  21722326.411    21722325.8474   21722329.0834  114151586.186 8  88949307.76246
      -819.934        -638.903
  23751870.091    23751870.1744   23751873.4414  124816920.803 6  97259961.74343
      2881.637        2245.436
  22868411.040    22868410.6374   22868413.9884  120174303.723 6  93642345.51344
      1870.734        1457.713
  23781868.806    23781868.2374   23781871.5104  124974547.746 6  97382783.31243
     -4403.989       -3431.677
  22638421.539    22638421.1954   22638423.1364  118965688.445 7  92700556.81045
     -3692.934       -2877.597
  22827888.103    22827888.1534   22827890.1564  119961358.828 7  93476403.89445
      1149.055         895.363
  22514052.831    22514052.0664   22514054.2674  118312134.273 7  92191294.77944
     -2799.671       -2181.559
  21437837.970    21437837.9244   21437839.8594  112656586.717 7  87784373.55046
     -1745.783       -1360.349
  21367888.672    21367887.9884   21367890.6704  112289002.614 8  87497943.64646
       970.877         756.527
  24323676.872    24323676.8284   24323680.0724  127821784.294 6  99601411.35143
      2845.320        2217.134
  24454737.412    24454737.2754   24454740.7674  128510526.395 6 100138089.09944
      2616.531        2038.879
  22448273.583    22448273.0284   22448276.7144  117966459.606 7  91921938.72245
     -3068.804       -2391.272
 08  4 24  9 36  0.0000000  0 12G 1G 4G 5G 9G11G12G14G17G20G30G31G32
  21727066.353    21727065.7604   21727069.0484  114176494.377 7  88968716.63046
      -840.584        -654.993
  23735441.796    23735441.9504   23735445.4494  124730590.810 6  97192691.63943
      2873.712        2239.253
  22857777.524    22857776.7064   22857779.6974  120118422.019 7  93598801.26944
      1854.740        1445.261
  23807043.023    23807042.3804   23807045.5554  125106838.681 6  97485867.17143
     -4415.347       -3440.533
  22659537.760    22659537.4504   22659539.3574  119076654.057 7  92787023.30545
     -3704.777       -2886.846
  22821378.992    22821378.9454   22821380.7464  119927152.906 7  93449749.97745
      1131.379         881.595
  22530085.448    22530084.8454   22530086.9564  118396385.977 7  92256945.42544
     -2817.120       -2195.158
  21447861.696    21447861.8144   21447863.6414  112709262.263 7  87825419.42546
     -1765.896       -1376.022
  21362399.734    21362399.1164   21362401.7434  112260158.417 8  87475467.66146
       952.081         741.882
  24307459.943    24307459.7504   24307462.6244  127736563.626 6  99535005.69843
      2836.110        2209.953
  24439824.227    24439824.0054   24439827.1834  128432152.987 6 100077018.56044
      2608.379        2032.513
  22465831.581    22465830.8664   22465834.3954  118058725.933 7  91993834.46645
     -3082.297       -2401.794
 08  4 24  9 36 30.0000000  0 12G 1G 4G 5G 9G11G12G14G17G20G30G31G32
  21731924.547    21731924.0344   21731927.3724  114202025.159 8  88988610.81846
      -861.307        -671.151
  23719059.971    23719060.1094   23719063.2864  124644502.335 6  97125609.76243
      2865.663        2232.981
  22847235.162    22847234.3804   22847237.9974  120063022.468 7  93555632.79944
      1838.669        1432.726
  23832281.513    23832281.5924   23832284.5274  125239469.387 6  97589215.78843
     -4426.560       -3449.260
  22680721.445    22680721.4064   22680723.1164  119187975.918 8  92873767.68545
     -3716.552       -2896.022
  22814971.224    22814971.1384   22814973.3044  119893480.122 7  93423511.47945
      1113.607         867.740
  22546217.547    22546217.3224   22546219.4104  118481162.498 7  92323005.08144
     -2834.523       -2208.714
  21458000.787    21458000.8234   21458002.6034  112762542.553 8  87866936.53146
     -1785.986       -1391.680
  21357018.867    21357018.0564   21357020.7034  112231880.829 8  87453433.22546
       933.216         727.181
  24291295.942    24291296.0144   24291299.0894  127651622.984 6  99468818.24043
      2826.792        2202.695
  24424956.754    24424957.3514   24424960.5454  128354028.599 6 100016142.49943
      2599.996        2025.943
  22483466.481    22483465.9844   22483469.4934  118151399.358 7  92066047.52345
     -3095.782       -2412.301
 08  4 24  9 37  0.0000000  0 12G 1G 4G 5G 9G11G12G14G17G20G30G31G32
  21736900.169    21736899.4894   21736902.8254  114228171.553 8  89008984.65246
      -881.865        -687.164
  23702722.837    23702722.7214   23702726.0334  124558651.377 6  97058712.92943
      2857.673        2226.771
  22836783.820    22836783.3054   22836786.6474  120008101.221 7  93512837.04444
      1822.656        1420.253
  23857582.957    23857582.3684   23857586.2354  125372430.121 6  97692821.52243
     -4437.560       -3457.844
  22701971.373    22701971.0714   22701972.9014  119299644.356 7  92960782.04745
     -3728.068       -2904.982
  22808663.971    22808663.9834   22808665.8804  119860335.614 7  93397684.62945
      1095.948         853.983
  22562448.167    22562447.7524   22562450.0174  118566454.871 7  92389466.65344
     -2851.712       -2222.117
  21468253.510    21468253.3544   21468255.1504  112816420.315 7  87908919.20646
     -1805.931       -1407.221
  21351744.608    21351743.9844   21351746.5414  112204164.801 8  87431836.30346
       914.453         712.567
  24275184.959    24275185.0044   24275188.0724  127566958.844 6  99402846.23743
      2817.415        2195.390
  24410137.196    24410136.7404   24410139.9544  128276149.153 6  99955457.74244
      2591.832        2019.593
  22501177.449    22501176.8174   22501180.6814  118244471.266 7  92138571.08245
     -3109.056       -2422.635
 08  4 24  9 37 30.0000000  0 12G 1G 4G 5G 9G11G12G14G17G20G30G31G32
  21741993.324    21741992.7394   21741996.0044  114254936.995 8  89029840.83646
      -902.637        -703.346
  23686432.615    23686432.2374   23686435.6964  124473044.336 6  96992006.18743
      2849.395        2220.302
  22826424.960    22826424.2384   22826427.4994  119953664.408 6  93470418.73144
      1806.369        1407.556
  23882947.370    23882947.2234   23882950.6844  125505721.177 6  97796684.68843
     -4448.606       -3466.451
  22723287.426    22723287.1074   22723288.7934  119411660.781 7  93048067.56145
     -3739.751       -2914.087
  22802458.245    22802458.4664   22802460.2184  119827725.084 7  93372273.86545
      1077.985         839.990
  22578777.405    22578776.8704   22578779.1664  118652264.661 7  92456331.37644
     -2869.045       -2235.625
  21478619.843    21478619.9924   21478621.9404  112870897.920 7  87951369.30146
     -1826.018       -1422.871
  21346578.415    21346577.5534   21346580.1174  112177015.706 8  87410681.21246
       895.389         697.700
  24259127.691    24259127.8254   24259130.7544  127482577.987 6  99337094.97243
      2807.800        2187.900
  24395364.480    24395364.4624   24395367.0934  128198520.219 6  99894967.97044
      2583.307        2012.984
  22518964.914    22518964.3694   22518967.8114  118337943.175 7  92211406.23945
     -3122.496       -2433.114
 08  4 24  9 38  0.0000000  0 12G 1G 4G 5G 9G11G12G14G17G20G30G31G32
  21747205.134    21747204.5504   21747207.8164  114282324.730 7  89051181.85146
      -923.207        -719.369
  23670189.461    23670189.5664   23670192.5174  124387686.935 6  96925493.94143
      2841.148        2213.886
  22816159.233    22816158.6484   22816162.1444  119899718.371 7  93428382.92444
      1790.045        1394.832
  23908375.124    23908374.4534   23908378.0444  125639342.772 6  97900805.37443
     -4459.449       -3474.888
  22744669.834    22744669.6514   22744671.4574  119524026.453 7  93135625.11945
     -3751.265       -2923.064
  22796355.390    22796355.4394   22796357.3214  119795653.956 7  93347283.42045
      1060.066         826.015
  22595205.042    22595204.6014   22595206.8814  118738593.402 7  92523600.53344
     -2886.183       -2248.973
  21489101.420    21489101.3774   21489103.2424  112925978.101 7  87994288.94446
     -1845.996       -1438.438
  21341520.868    21341520.2284   21341522.7624  112150438.426 8  87389971.61346
       876.423         682.929
  24243125.659    24243125.9414   24243128.6214  127398487.173 6  99271569.70743
      2798.173        2180.391
  24380640.652    24380640.6594   24380643.4924  128121147.397 6  99834677.46043
      2574.867        2006.385
  22536828.457    22536827.7854   22536831.3814  118431817.167 7  92284554.82845
     -3135.806       -2443.496
 08  4 24  9 38 30.0000000  0 12G 1G 4G 5G 9G11G12G14G17G20G30G31G32
  21752535.115    21752534.5244   21752537.7504  114310333.901 7  89073007.17346
      -943.881        -735.487
  23653994.271    23653994.1674   23653997.4714  124302580.729 6  96859177.41343
      2832.744        2207.335
  22805986.958    22805986.7384   22805990.1994  119846264.514 7  93386730.63844
      1773.647        1382.057
  23933864.127    23933864.2614   23933867.6814  125773290.357 6  98005180.12143
     -4470.223       -3483.284
  22766118.321    22766118.1164   22766119.8754  119636737.630 7  93223451.81345
     -3762.631       -2931.887
  22790355.335    22790355.3374   22790356.9634  119764122.975 7  93322713.85845
      1042.104         812.031
  22611731.047    22611730.6644   22611732.9984  118825438.389 7  92591272.00044
     -2903.342       -2262.344
  21499697.104    21499697.0704   21499698.9034  112981658.689 8  88037676.42746
     -1865.934       -1453.970
  21336572.375    21336571.6184   21336574.1274  112124433.469 8  87369707.98046
       857.376         668.076
  24227179.346    24227179.0664   24227182.3984  127314688.037 6  99206271.73643
      2788.525        2172.878
  24365966.412    24365966.5424   24365969.1734  128044033.784 6  99774589.19144
      2566.182        1999.609
  22554767.735    22554767.1774   22554770.9504  118526089.928 7  92358014.16745
     -3148.990       -2453.760
 08  4 24  9 39  0.0000000  0 12G 1G 4G 5G 9G11G12G14G17G20G30G31G32
  21757982.761    21757982.1454   21757985.6394  114338961.966 7  89095314.67846
      -964.493        -751.547
  23637847.020    23637847.3354   23637850.2024  124217726.616 6  96793057.34743
      2824.320        2200.774
  22795908.944    22795908.5234   22795911.7134  119793303.669 6  93345462.52544
      1757.230        1369.263
  23959415.093    23959414.6614   23959417.8264  125907558.918 6  98109804.96343
     -4480.831       -3491.555
  22787631.806    22787631.4424   22787633.2984  119749790.274 7  93311544.45445
     -3773.959       -2940.720
  22784457.925    22784457.9704   22784459.7424  119733132.203 7  93298565.24445
      1024.095         797.987
  22628354.606    22628353.9874   22628356.5834  118912794.802 7  92659341.92744
     -2920.317       -2275.572
  21510406.530    21510406.4804   21510408.2964  113037936.826 7  88081529.51846
     -1885.772       -1469.433
  21331732.692    21331731.8594   21331734.4554  112099000.735 8  87349890.24846
       838.304         653.227
  24211288.802    24211288.6964   24211291.5364  127231181.816 6  99141201.97943
      2778.732        2165.245
  24351341.395    24351341.5044   24351344.3784  127967178.847 6  99714702.09944
      2557.534        1992.892
  22572782.504    22572781.7904   22572785.5154  118620757.581 7  92431781.13545
     -3162.040       -2463.928
 08  4 24  9 39 30.0000000  0 12G 1G 4G 5G 9G11G12G14G17G20G30G31G32
  21763548.044    21763547.4124   21763550.8334  114368207.795 8  89118103.62246
      -985.054        -767.568
  23621748.196    23621748.3434   23621751.2894  124133125.737 6  96727134.60843
      2815.836        2194.158
  22785924.883    22785924.3184   22785927.4874  119740836.970 7  93304579.47444
      1740.724        1356.403
  23985025.825    23985025.4884   23985028.2994  126042143.647 6  98214676.19543
     -4491.288       -3499.707
  22809209.538    22809209.1274   22809211.0954  119863181.800 7  93399901.48445
     -3785.270       -2949.536
  22778663.597    22778663.4564   22778665.2154  119702682.256 7  93274837.99245
      1006.029         783.920
  22645074.505    22645074.3394   22645076.5614  119000659.651 7  92727808.01344
     -2937.225       -2288.750
  21521229.227    21521229.1774   21521230.9654  113094810.216 7  88125846.44846
     -1905.592       -1484.874
  21327002.098    21327001.2324   21327003.8084  112074140.880 8  87330518.96846
       819.212         638.349
  24195454.173    24195454.3484   24195457.3754  127147970.351 6  99076361.84343
      2768.839        2157.543
  24336766.530    24336766.0884   24336769.0874  127890585.125 6  99655018.62744
      2548.837        1986.116
  22590871.776    22590871.1244   22590874.7784  118715817.049 7  92505853.42345
     -3175.091       -2474.095
 08  4 24  9 40  0.0000000  0 12G 1G 4G 5G 9G11G12G14G17G20G30G31G32
  21769231.322    21769230.7224   21769234.1134  114398073.708 8  89141375.73745
     -1005.865        -783.782
  23605698.385    23605698.1634   23605701.2864  124048783.534 6  96661413.42743
      2807.016        2187.288
  22776035.900    22776035.2074   22776038.5524  119688869.827 7  93264085.61544
      1723.899        1343.293
  24010696.207    24010695.3134   24010699.5474  126177043.927 6  98319793.27243
     -4501.905       -3507.981
  22830851.533    22830851.1224   22830853.0404  119976912.204 7  93488522.74145
     -3796.629       -2958.416
  22772972.976    22772973.0534   22772974.7334  119672777.901 7  93251535.90545
       987.662         769.608
  22661891.827    22661891.2294   22661893.5044  119089033.460 7  92796670.69744
     -2954.275       -2302.032
  21532165.313    21532165.4414   21532167.2034  113152280.491 8  88170628.47746
     -1925.643       -1500.504
  21322380.771    21322380.2234   21322382.7764  112049857.653 8  87311596.96846
       799.797         623.218
  24179676.500    24179676.6054   24179679.5154  127065059.700 6  99011756.15643
      2758.581        2149.551
  24322241.675    24322241.7764   24322244.5544  127814258.263 6  99595543.21744
      2539.780        1979.061
  22609035.536    22609035.0854   22609038.5764  118811269.025 7  92580231.56945
     -3188.260       -2484.355
 08  4 24  9 40 30.0000000  0 12G 1G 4G 5G 9G11G12G14G17G20G30G31G32
  21775032.592    21775031.8954   21775035.5574  114428559.623 8  89165130.91746
     -1026.371        -799.772
  23589698.252    23589698.2314   23589701.4554  123964702.531 6  96595895.79344
      2798.459        2180.616
  22766242.466    22766241.9564   22766245.1634  119637405.088 7  93223983.24744
      1707.270        1330.335
  24036426.105    24036425.7384   24036429.1874  126312256.693 6  98425153.86943
     -4512.070       -3515.905
  22852557.694    22852557.2274   22852559.3094  120090978.370 7  93577405.34245
     -3807.536       -2966.901
  22767386.381    22767386.5044   22767388.3564  119643420.990 7  93228660.38045
       969.580         755.517
  22678805.165    22678804.7534   22678806.9344  119177914.416 7  92865928.58744
     -2970.944       -2315.024
  21543215.089    21543215.0724   21543216.8834  113210346.730 8  88215874.88246
     -1945.275       -1515.798
  21317870.142    21317869.4774   21317872.0414  112026153.004 8  87293125.81946
       780.693         608.334
  24163957.282    24163957.2244   24163959.8474  126982452.666 6  98947386.98843
      2748.663        2141.821
  24307768.489    24307768.3694   24307771.3754  127738200.528 6  99536277.48744
      2530.938        1972.152
  22627274.061    22627273.2664   22627277.0034  118907111.846 7  92654914.31445
     -3201.060       -2494.328
 08  4 24  9 41  0.0000000  0 12G 1G 4G 5G 9G11G12G14G17G20G30G31G32
  21780951.507    21780950.7994   21780954.4514  114459663.661 8  89189367.81045
     -1047.104        -815.923
  23573748.134    23573748.1084   23573751.1494  123880883.810 6  96530582.54543
      2789.560        2173.679
  22756544.826    22756544.1854   22756547.5204  119586443.542 7  93184272.96444
      1690.301        1317.099
  24062215.110    24062214.3544   24062217.7294  126447776.623 6  98530753.80243
     -4522.437       -3523.986
  22874326.925    22874326.6624   22874328.7664  120205376.606 7  93666546.57745
     -3818.783       -2975.658
  22761904.324    22761904.3314   22761906.0424  119614611.864 7  93206211.74145
       951.157         741.157
  22695814.408    22695813.9414   22695816.3784  119267298.546 7  92935578.52244
     -2987.847       -2328.194
  21554377.721    21554377.7154   21554379.5334  113269006.398 8  88261583.70346
     -1965.215       -1531.337
  21313469.293    21313468.7134   21313471.1974  112003026.509 8  87275105.10346
       761.181         593.129
  24148295.608    24148295.6164   24148299.1304  126900151.292 6  98883256.05543
      2738.262        2133.706
  24293346.601    24293346.7714   24293349.1344  127662413.633 6  99477222.83944
      2521.722        1964.994
  22645585.852    22645585.1154   22645588.8564  119003341.939 7  92729898.79545
     -3214.090       -2504.482
 08  4 24  9 41 30.0000000  0 12G 1G 4G 5G 9G11G12G14G17G20G30G31G32
  21786988.584    21786988.0014   21786991.5134  114491389.816 8  89214089.56545
     -1067.662        -831.942
  23557849.127    23557848.6044   23557851.9004  123797333.861 6  96465478.71743
      2780.761        2166.826
  22746944.020    22746943.3194   22746946.8734  119535991.945 6  93144960.04844
      1673.414        1303.955
  24088062.096    24088061.5304   24088064.7814  126583604.652 6  98636593.81943
     -4532.441       -3531.775
  22896159.992    22896159.7294   22896161.7204  120320109.158 7  93755948.46145
     -3829.762       -2984.221
  22756527.455    22756527.1964   22756529.1314  119586356.141 7  93184194.30245
       932.837         726.891
  22712919.649    22712919.3504   22712921.6474  119357187.963 7  93005622.23844
     -3004.465       -2341.139
  21565653.737    21565653.7654   21565655.4174  113328262.147 8  88307757.00846
     -1984.908       -1546.681
  21309179.605    21309178.9994   21309181.5684  111980484.094 8  87257539.53246
       741.907         578.096
  24132693.443    24132693.7474   24132696.8454  126818162.729 6  98819368.90843
      2727.905        2125.637
  24278977.719    24278977.5234   24278980.3924  127586904.191 6  99418384.41244
      2512.525        1957.816
  22663972.002    22663971.3644   22663974.8324  119099961.363 7  92805186.71845
     -3226.882       -2514.452
 08  4 24  9 42  0.0000000  0 12G 1G 4G 5G 9G11G12G14G17G20G30G31G32
  21793142.414    21793141.9494   21793145.3644  114523729.146 8  89239289.13045
     -1088.188        -847.939
  23541999.786    23542000.1184   23542002.8254  123714046.918 6  96400579.80344
      2771.850        2159.886
  22737439.193    22737438.5934   22737441.8524  119486044.292 6  93106039.82644
      1656.483        1290.767
  24113965.527    24113965.6524   24113969.2294  126719729.158 6  98742664.86543
     -4542.368       -3539.512
  22918054.439    22918054.0244   22918056.1814  120435165.250 7  93845602.49145
     -3840.583       -2992.662
  22751254.628    22751254.4134   22751256.5294  119558647.279 7  93162602.95745
       914.505         712.589
  22730119.233    22730118.8894   22730121.0594  119447571.704 7  93076051.12344
     -3021.017       -2354.042
  21577041.254    21577041.4154   21577043.0554  113388104.614 8  88354387.50146
     -2004.518       -1561.964
  21304999.717    21304998.8714   21305001.6374  111958518.749 8  87240423.81546
       722.566         563.040
  24117150.434    24117150.3494   24117153.3954  126736481.198 6  98755720.98943
      2717.527        2117.550
  24264660.541    24264660.3764   24264662.6284  127511666.121 6  99359757.33144
      2503.298        1950.615
  22682430.319    22682429.5354   22682433.0024  119196959.630 7  92880769.76945
     -3239.559       -2524.333
 08  4 24  9 42 30.0000000  0 12G 1G 4G 5G 9G11G12G14G17G20G30G31G32
  21799414.111    21799413.6404   21799417.1824  114556687.978 7  89264971.33445
     -1108.858        -864.046
  23526202.784    23526202.8604   23526205.8734  123631032.347 6  96335893.14644
      2762.667        2152.722
  22728032.161    22728031.2824   22728034.8164  119436610.195 6  93067519.80044
      1639.314        1277.385
  24139926.548    24139925.8964   24139929.8494  126856153.376 6  98848969.43243
     -4552.369       -3547.315
  22940011.273    22940010.9454   22940013.2674  120550549.487 7  93935512.28845
     -3851.485       -3001.151
  22746087.442    22746087.4384   22746089.3724  119531494.143 7  93141444.69245
       895.903         698.097
  22747413.699    22747413.1464   22747415.4544  119538454.850 7  93146869.14644
     -3037.656       -2367.004
  21588541.745    21588541.8044   21588543.2754  113448539.317 8  88401479.47146
     -2024.272       -1577.353
  21300931.194    21300930.5204   21300933.2024  111937138.597 8  87223763.92646
       702.961         547.758
  24101667.275    24101667.3184   24101669.9714  126655116.825 6  98692320.27843
      2707.010        2109.354
  24250396.339    24250396.3734   24250399.0774  127436709.650 6  99301349.74144
      2493.934        1943.321
  22700961.194    22700960.6204   22700964.3144  119294341.642 7  92956651.84145
     -3252.356       -2534.299
 08  4 24  9 43  0.0000000  0 12G 1G 4G 5G 9G11G12G14G17G20G30G31G32
  21805803.180    21805802.8024   21805806.4104  114590263.496 8  89291134.09845
     -1129.447        -880.090
  23510457.618    23510457.5064   23510460.6134  123548290.254 6  96271418.81944
      2753.509        2145.592
  22718722.806    22718722.0054   22718725.5574  119387689.288 7  93029399.60444
      1622.118        1263.983
  24165943.170    24165943.0364   24165945.7014  126992871.377 6  98955502.91643
     -4562.102       -3554.888
  22962029.540    22962029.3824   22962031.6234  120666256.303 7  94025673.33245
     -3862.244       -3009.548
  22741025.832    22741025.8984   22741027.8854  119504895.797 7  93120718.70245
       877.340         683.636
  22764802.112    22764801.8424   22764804.0604  119629832.298 7  93218072.34544
     -3054.178       -2379.875
  21600154.160    21600154.2144   21600155.5804  113509562.427 7  88449029.94146
     -2043.863       -1592.625
  21296973.985    21296973.1674   21296975.8334  111916342.818 8  87207559.39446
       683.427         532.529
  24086244.198    24086244.6384   24086247.7114  126574070.068 6  98629167.03743
      2696.210        2100.932
  24236186.605    24236186.5854   24236188.9474  127362034.587 7  99243161.42044
      2484.454        1935.927
  22719564.771    22719564.0154   22719567.5484  119392102.986 7  93032829.51745
     -3265.017       -2544.171
 08  4 24  9 43 30.0000000  0 12G 1G 4G 5G 9G11G12G14G17G20G30G31G32
  21812309.748    21812309.0524   21812312.6034  114624453.961 7  89317776.07145
     -1150.084        -896.175
  23494764.577    23494763.8544   23494767.2344  123465821.963 6  96207157.84344
      2744.217        2138.354
  22709511.294    22709510.6654   22709514.2344  119339283.068 6  92991680.51944
      1604.755        1250.455
  24192014.565    24192014.6724   24192017.4514  127129878.930 6  99062262.04343
     -4571.880       -3562.512
  22984108.541    22984108.3414   22984110.9844  120782282.314 7  94116083.09245
     -3873.042       -3017.946
  22736070.151    22736070.1414   22736071.8414  119478852.669 7  93100425.39145
       858.667         669.097
  22782284.199    22782283.8334   22782286.2024  119721700.689 7  93289658.05444
     -3070.578       -2392.654
  21611877.987    21611877.9804   21611879.5404  113571171.851 8  88497037.26746
     -2063.605       -1608.006
  21293127.752    21293127.0514   21293129.8304  111896131.161 8  87191810.00846
       663.838         517.286
  24070882.366    24070882.6204   24070885.3964  126493342.798 6  98566262.79443
      2685.330        2092.460
  24222029.705    24222029.9524   24222032.2784  127287642.681 6  99185193.82844
      2474.806        1928.414
  22738239.599    22738238.9754   22738242.5804  119490240.261 7  93109300.13345
     -3277.691       -2554.047
 08  4 24  9 44  0.0000000  0 12G 1G 4G 5G 9G11G12G14G17G20G30G31G32
  21818933.334    21818932.8784   21818936.5564  114659262.166 7  89344899.36645
     -1170.563        -912.132
  23479124.473    23479124.1804   23479127.3904  123383633.300 6  96143114.73444
      2734.955        2131.128
  22700399.183    22700398.3434   22700401.9624  119291397.199 6  92954366.87244
      1587.510        1237.018
  24218141.648    24218140.4664   24218144.3624  127267175.531 6  99169246.38543
     -4581.310       -3569.855
  23006248.668    23006248.5084   23006250.7314  120898629.255 7  94206743.11945
     -3883.570       -3026.187
  22731220.782    22731220.6934   22731222.5504  119453369.566 7  93080568.43545
       840.128         654.649
  22799859.619    22799859.3084   22799861.8634  119814061.552 7  93361627.62744
     -3086.834       -2405.322
  21623713.820    21623713.8714   21623715.2974  113633369.359 8  88545502.84846
     -2083.000       -1623.120
  21289393.911    21289393.0334   21289395.9904  111876508.295 8  87176519.24146
       644.334         502.102
  24055582.543    24055582.5954   24055585.3714  126412941.391 6  98503612.46443
      2674.651        2084.137
  24207928.429    24207928.6694   24207930.8524  127213539.806 7  99127451.44944
      2465.284        1921.001
  22756986.535    22756985.7534   22756989.2584  119588754.835 7  93186064.76845
     -3290.094       -2563.711
 08  4 24  9 44 30.0000000  0 12G 1G 4G 5G 9G11G12G14G17G20G30G31G32
  21825674.426    21825673.7794   21825677.3044  114694685.287 7  89372501.77245
     -1191.019        -928.066
  23463537.144    23463537.5794   23463540.4954  123301724.344 7  96079289.56044
      2725.598        2123.845
  22691385.613    22691384.9814   22691388.3354  119244031.961 7  92917458.94844
      1570.130        1223.471
  24244322.245    24244322.0424   24244324.7884  127404755.793 6  99276451.76443
     -4590.731       -3577.177
  23028448.984    23028448.5354   23028450.8404  121015291.150 7  94297648.43145
     -3893.940       -3034.210
  22726477.999    22726477.8934   22726479.8364  119428446.333 7  93061147.70245
       821.377         640.038
  22817528.135    22817527.8374   22817530.3414  119906909.823 7  93433976.90144
     -3103.050       -2417.947
  21635660.992    21635660.9274   21635662.3434  113696151.697 8  88594424.15646
     -2102.479       -1638.296
  21285771.603    21285770.9184   21285773.8334  111857474.529 8  87161687.90246
       624.606         486.705
  24040344.771    24040344.8994   24040347.6514  126332866.750 6  98441216.70143
      2663.667        2075.580
  24193882.171    24193882.1554   24193884.5414  127139726.444 6  99069934.70044
      2455.590        1913.442
  22775804.148    22775803.3904   22775806.9744  119687642.430 7  93263120.08345
     -3302.473       -2573.358
 08  4 24  9 45  0.0000000  0 12G 1G 4G 5G 9G11G12G14G17G20G30G31G32
  21832531.274    21832530.8364   21832534.3414  114730719.334 7  89400580.25845
     -1211.446        -943.986
  23448004.018    23448003.7364   23448007.1304  123220094.314 6  96015681.75844
      2716.216        2116.537
  22682471.248    22682470.5864   22682473.9344  119197186.066 6  92880955.68244
      1552.737        1209.922
  24270555.273    24270555.1024   24270558.5854  127542612.601 6  99383872.63942
     -4599.931       -3584.346
  23050707.913    23050707.5744   23050709.9824  121132262.446 7  94388794.63245
     -3904.212       -3042.204
  22721841.607    22721841.4924   22721843.2464  119404080.871 7  93042161.62645
       802.792         625.553
  22835288.073    22835287.7634   22835290.3034  120000239.549 7  93506701.36344
     -3119.096       -2430.461
  21647718.334    21647718.3504   21647719.7764  113759513.739 8  88643797.19546
     -2121.817       -1653.367
  21282260.791    21282260.1644   21282263.0684  111839026.455 8  87147312.90346
       605.058         471.478
  24025168.525    24025168.8834   24025171.9884  126253117.886 6  98379074.78543
      2652.670        2067.007
  24179890.982    24179891.2864   24179893.1944  127066201.305 7  99012642.35344
      2445.858        1905.863
  22794691.583    22794691.0854   22794694.5254  119786897.366 7  93340461.60845
     -3314.737       -2582.914
 08  4 24  9 45 30.0000000  0 12G 1G 4G 5G 9G11G12G14G17G20G30G31G32
  21839505.127    21839504.7354   21839508.3174  114767367.391 8  89429137.20845
     -1231.802        -959.848
  23432524.229    23432524.2984   23432527.3934  123138749.017 6  95952295.84444
      2706.727        2109.128
  22673656.577    22673655.7564   22673659.2174  119150865.525 6  92844861.77744
      1535.241        1196.294
  24296841.573    24296841.3574   24296844.2054  127680746.424 6  99491509.38142
     -4609.011       -3591.448
  23073026.364    23073026.1584   23073028.5474  121249544.105 7  94480182.44144
     -3914.596       -3050.361
  22717311.993    22717311.8404   22717313.7874  119380278.119 7  93023614.00645
       784.015         610.921
  22853140.240    22853139.7684   22853141.9984  120094052.321 7  93579802.26944
     -3135.072       -2442.917
  21659886.497    21659886.4934   21659887.8444  113823457.805 8  88693623.75646
     -2141.148       -1668.427
  21278862.636    21278862.0164   21278864.7484  111821168.855 8  87133397.86846
       585.387         456.137
  24010056.540    24010056.3234   24010059.2274  126173701.666 6  98317192.00543
      2641.635        2058.429
  24165955.473    24165955.5274   24165958.0744  126992971.268 7  98955580.09544
      2436.034        1898.201
  22813649.399    22813648.6504   22813652.3654  119886521.195 7  93418090.59245
     -3326.903       -2592.389
 08  4 24  9 46  0.0000000  0 12G 1G 4G 5G 9G11G12G14G17G20G30G31G32
  21846594.949    21846594.2864   21846597.9554  114804623.147 7  89458167.63545
     -1252.181        -975.730
  23417098.073    23417098.0864   23417101.6164  123057685.422 6  95889129.42444
      2697.178        2101.697
  22664941.335    22664940.9084   22664943.9404  119105066.953 6  92809174.54744
      1517.702        1182.622
  24323178.133    24323178.2444   24323180.7214  127819148.007 6  99599354.78142
     -4617.969       -3598.434
  23095402.023    23095401.8474   23095403.8194  121367129.898 7  94571807.91444
     -3924.815       -3058.329
  22712888.850    22712888.8214   22712890.7414  119357034.130 7  93005501.76945
       765.310         596.347
  22871082.564    22871082.1954   22871084.3314  120188339.951 7  93653273.18444
     -3151.017       -2455.346
  21672163.822    21672163.9354   21672165.4894  113887976.688 8  88743898.20246
     -2160.358       -1683.396
  21275576.002    21275575.3834   21275578.3874  111803897.354 7  87119939.37046
       565.801         440.937
  23995006.759    23995006.8894   23995010.1364  126094615.936 6  98255566.89143
      2630.503        2049.747
  24152076.200    24152076.2714   24152078.2694  126920033.098 7  98898745.19744
      2426.181        1890.520
  22832675.774    22832675.2574   22832678.8454  119986506.048 7  93496000.82945
     -3338.998       -2601.811
 08  4 24  9 46 30.0000000  0 12G 1G 4G 5G 9G11G12G14G17G20G30G31G32
  21853801.433    21853800.7974   21853804.2714  114842493.002 8  89487676.60545
     -1272.486        -991.544
  23401727.892    23401728.1984   23401730.8464  122976912.858 7  95826189.77744
      2687.571        2094.212
  22656327.592    22656326.5764   22656330.1154  119059799.733 7  92773901.39644
      1500.097        1168.907
  24349566.962    24349566.5904   24349569.9074  127957820.823 6  99707411.51842
     -4626.848       -3605.344
  23117836.200    23117835.8434   23117837.9184  121485022.491 7  94663672.36744
     -3934.736       -3066.010
  22708573.711    22708573.4944   22708575.5034  119334357.552 7  92987831.74745
       746.479         581.665
  22889115.893    22889115.5274   22889118.0794  120283107.226 7  93727117.87744
     -3166.798       -2467.634
  21684552.033    21684551.9344   21684553.4974  113953076.112 8  88794625.03446
     -2179.566       -1698.365
  21272402.550    21272401.8204   21272404.7794  111787221.209 8  87106945.18346
       546.051         425.499
  23980022.252    23980022.1264   23980025.0884  126015869.785 6  98194206.22743
      2619.236        2040.965
  24138253.704    24138253.5814   24138255.8854  126847396.184 7  98842145.07244
      2416.281        1882.820
  22851771.979    22851771.5864   22851775.0784  120086856.940 7  93574196.34645
     -3351.046       -2611.210
 08  4 24  9 47  0.0000000  0 12G 1G 4G 5G 9G11G12G14G17G20G30G31G32
  21861123.651    21861122.9574   21861126.4644  114880971.109 8  89517659.56145
     -1292.652       -1007.263
  23386412.165    23386412.3274   23386415.3284  122896428.754 6  95763474.91444
      2678.020        2086.757
  22647813.803    22647813.1374   22647816.2904  119015060.907 6  92739039.96744
      1482.547        1155.227
  24376005.202    24376004.7794   24376008.4644  128096756.331 6  99815672.95642
     -4635.448       -3612.040
  23140327.669    23140327.2734   23140329.3414  121603214.188 7  94755769.54344
     -3944.781       -3073.904
  22704365.639    22704365.4894   22704367.4364  119312244.450 7  92970600.77545
       727.749         567.083
  22907239.342    22907239.0364   22907241.3024  120378346.197 6  93801330.13944
     -3182.381       -2479.796
  21697049.165    21697049.1054   21697050.8274  114018749.540 8  88845799.14046
     -2198.604       -1713.201
  21269341.395    21269340.7484   21269343.7394  111771134.990 8  87094410.41346
       526.414         410.191
  23965101.137    23965101.4564   23965104.2734  125937461.386 6  98133108.78443
      2608.001        2032.211
  24124488.407    24124488.5094   24124490.2114  126775058.200 7  98785777.85144
      2406.321        1875.043
  22870936.560    22870936.0274   22870939.5294  120187566.472 7  93652671.29045
     -3362.842       -2620.398
 08  4 24  9 47 30.0000000  0 12G 1G 4G 5G 9G11G12G14G17G20G30G31G32
  21868561.986    21868561.4604   21868564.7744  114920060.104 7  89548118.51546
     -1313.209       -1023.278
  23371152.481    23371152.8094   23371156.0014  122816238.940 6  95700989.36544
      2667.956        2078.926
  22639402.239    22639401.4814   22639404.5064  118970856.297 7  92704594.77444
      1464.515        1141.181
  24402494.288    24402493.9254   24402496.4154  128235954.585 6  99924139.10742
     -4644.354       -3618.970
  23162875.875    23162875.6474   23162877.5394  121721707.356 7  94848102.17244
     -3954.784       -3081.652
  22700266.040    22700266.0314   22700267.7174  119290700.073 7  92953812.98945
       708.569         552.130
  22925452.764    22925452.2714   22925454.6324  120474057.862 6  93875910.67744
     -3198.317       -2492.198
  21709655.889    21709655.7884   21709657.6264  114084998.761 8  88897421.92046
     -2217.966       -1728.283
  21266393.844    21266393.0504   21266395.8674  111755644.392 8  87082339.89546
       506.317         394.514
  23950246.161    23950246.3804   23950249.0794  125859396.903 6  98072279.30843
      2596.316        2023.100
  24110780.825    24110780.6474   24110782.8384  126703025.151 7  98729648.25144
      2395.920        1866.945
  22890169.570    22890168.9074   22890172.3114  120288636.006 7  93731426.74545
     -3375.018       -2629.883
 08  4 24  9 48  0.0000000  0 11G 1G 4G 5G11G12G14G17G20G30G31G32
  21876115.884    21876115.3504   21876118.6534  114959755.936 7  89579050.35845
     -1333.255       -1038.912
  23355948.637    23355948.5314   23355951.7774  122736342.441 7  95638732.37344
      2658.305        2071.396
  22631091.733    22631091.0784   22631094.1534  118927184.769 6  92670565.02044
      1446.870        1127.433
  23185480.280    23185480.1434   23185482.2034  121840494.443 7  94940663.43644
     -3964.393       -3089.135
  22696273.992    22696273.8704   22696275.7394  119269722.386 7  92937466.74645
       689.860         537.553
  22943754.941    22943754.3864   22943757.0714  120570236.485 7  93950854.98944
     -3213.685       -2504.176
  21722371.135    21722371.2304   21722372.8524  114151818.866 7  88949489.51046
     -2236.787       -1742.951
  21263558.783    21263558.1724   21263561.0104  111740746.402 8  87070731.03746
       486.772         379.304
  23935456.263    23935456.7404   23935459.4734  125781676.194 6  98011717.82343
      2585.024        2014.290
  24097130.995    24097131.2534   24097133.0744  126631296.073 7  98673755.55844
      2385.982        1859.208
  22909469.679    22909469.0964   22909472.6424  120390060.114 7  93810458.56245
     -3386.622       -2638.925
 08  4 24  9 48 30.0000000  0 11G 1G 4G 5G11G12G14G17G20G30G31G32
  21883783.098    21883782.5704   21883785.8844  115000047.949 8  89610446.75846
     -1353.284       -1054.515
  23340799.443    23340799.5024   23340802.5514  122656731.681 6  95576698.02844
      2648.603        2063.850
  22622881.218    22622880.7234   22622883.7674  118884038.548 6  92636944.59844
      1429.120        1113.593
  23208138.801    23208138.6174   23208141.0714  121959562.302 7  95033442.81444
     -3973.909       -3096.516
  22692388.482    22692388.3344   22692390.0474  119249302.935 7  92921555.50745
       671.024         522.872
  22962143.300    22962143.2244   22962145.5544  120666870.190 6  94026154.00444
     -3228.983       -2516.083
  21735192.915    21735192.9984   21735194.8804  114219198.469 8  89001993.09346
     -2255.588       -1757.598
  21260835.063    21260834.4564   21260837.2384  111726432.255 8  87059577.02446
       467.109         363.977
  23920731.161    23920730.9404   23920733.5424  125704292.194 7  97951418.68043
      2573.538        2005.349
  24083537.835    24083538.2294   24083539.8544  126559863.987 7  98618094.19144
      2375.799        1851.267
  22928835.163    22928834.4754   22928837.9884  120491826.360 7  93889756.92645
     -3398.136       -2647.896
 08  4 24  9 49  0.0000000  0 11G 1G 4G 5G11G12G14G17G20G30G31G32
  21891563.169    21891562.6624   21891565.9504  115040932.463 8  89642304.85946
     -1373.088       -1069.940
  23325703.678    23325704.2014   23325707.1804  122577406.212 7  95514885.99744
      2639.036        2056.394
  22614770.400    22614769.9664   22614772.9734  118841417.177 7  92603733.19244
      1411.544        1099.908
  23230849.667    23230849.4384   23230851.3894  122078909.557 7  95126441.07644
     -3983.134       -3103.761
  22688608.581    22688608.4864   22688610.3594  119229440.193 7  92906078.05445
       652.406         508.366
  22980617.918    22980617.4854   22980619.9664  120763953.003 6  94101802.95444
     -3243.911       -2527.724
  21748120.682    21748120.5264   21748122.4214  114287133.039 7  89054929.10846
     -2274.111       -1772.035
  21258222.027    21258221.2504   21258224.1224  111712700.868 8  87048877.35946
       447.636         348.817
  23906068.894    23906069.0284   23906072.0164  125627244.803 6  97891381.77643
      2562.214        1996.526
  24070001.031    24070001.2554   24070003.2144  126488728.357 7  98562663.90344
      2365.858        1843.525
  22948264.878    22948264.1054   22948267.5744  120593929.947 7  93969318.11045
     -3409.430       -2656.696
 08  4 24  9 49 30.0000000  0 11G 1G 4G 5G11G12G14G17G20G30G31G32
  21899457.787    21899457.1494   21899460.3364  115082417.901 8  89674631.20746
     -1392.856       -1085.353
  23310665.680    23310665.3764   23310668.8284  122498378.171 7  95453305.73644
      2629.284        2048.789
  22606762.053    22606761.4164   22606764.2924  118799332.044 7  92570939.64944
      1393.903        1086.162
  23253614.441    23253613.9114   23253616.3234  122198540.296 7  95219660.16044
     -3992.436       -3111.011
  22684936.548    22684936.5434   22684938.5394  119210144.998 7  92891042.86445
       633.714         493.805
  22999179.417    22999178.8724   22999181.2604  120861492.198 7  94177807.46244
     -3258.877       -2539.391
  21761155.200    21761155.2524   21761157.1114  114355630.523 7  89108303.75446
     -2292.600       -1786.441
  21255721.812    21255721.0864   21255723.8344  111699562.060 8  87038639.26446
       428.079         333.571
  23891473.598    23891473.8754   23891476.3044  125550546.500 7  97831616.95844
      2550.756        1987.595
  24056523.541    24056523.5144   24056525.0254  126417901.110 7  98507473.88444
      2355.736        1835.636
  22967760.028    22967759.4054   22967762.9154  120696378.044 7  94049147.81145
     -3420.628       -2665.429
 08  4 24  9 50  0.0000000  0 11G 1G 4G 5G11G12G14G17G20G30G31G32
  21907467.108    21907466.5224   21907469.6494  115124507.648 8  89707428.46446
     -1413.532       -1101.460
  23295684.852    23295684.5514   23295688.0824  122419653.683 7  95391961.99744
      2618.673        2040.521
  22598856.997    22598856.0174   22598859.2294  118757789.315 7  92538568.70144
      1375.255        1071.608
  23276433.975    23276433.5564   23276436.1534  122318453.708 7  95313098.21644
     -4002.268       -3118.617
  22681373.851    22681374.0344   22681375.7084  119191422.562 7  92876453.96545
       614.107         478.522
  23017827.410    23017827.0154   23017829.1964  120959489.281 6  94254168.85144
     -3274.656       -2551.671
  21774297.427    21774297.4654   21774299.1914  114424693.207 7  89162118.77046
     -2311.928       -1801.500
  21253335.448    21253334.7244   21253337.4504  111687021.519 8  87028867.44846
       407.608         317.616
  23876946.342    23876946.1144   23876949.1734  125474204.084 7  97772129.38544
      2538.327        1977.910
  24043104.843    24043105.0604   24043107.3304  126347388.947 7  98452529.41144
      2344.699        1827.032
  22987321.126    22987320.5234   22987324.0344  120799172.545 7  94129247.44845
     -3432.650       -2674.811
 08  4 24  9 50 30.0000000  0 11G 1G 4G 5G11G12G14G17G20G30G31G32
  21915593.467    21915592.9114   21915596.0054  115167212.127 8  89740704.70145
     -1433.226       -1116.796
  23280764.426    23280764.4184   23280767.6274  122341246.665 7  95330865.63644
      2608.751        2032.790
  22591057.042    22591056.7514   22591059.8764  118716802.774 7  92506631.16344
      1357.390        1057.708
  23299308.945    23299308.6784   23299310.7894  122438663.767 7  95406768.53344
     -4011.405       -3125.838
  22677922.686    22677922.5624   22677924.5044  119173285.882 7  92862321.49545
       595.263         463.843
  23036564.382    23036563.7254   23036566.1664  121057953.157 6  94330893.92844
     -3289.409       -2563.179
  21787549.366    21787549.1604   21787551.0184  114494331.154 8  89216382.12246
     -2330.363       -1815.868
  21251065.304    21251064.5154   21251067.2584  111675090.852 8  87019570.71846
       387.986         302.329
  23862489.145    23862489.2534   23862491.7574  125398232.050 7  97712930.47244
      2526.672        1968.834
  24029749.881    24029749.8174   24029751.7794  126277205.903 7  98397841.33144
      2334.413        1819.026
  23006950.194    23006949.5304   23006952.9984  120902322.799 7  94209624.28845
     -3443.792       -2683.478
 08  4 24  9 51  0.0000000  0 11G 1G 4G 5G11G12G14G17G20G30G31G32
  21923833.785    21923833.2544   21923836.4434  115210515.625 7  89774447.70846
     -1453.181       -1132.348
  23265902.035    23265902.3464   23265905.1474  122263144.603 6  95270006.90544
      2598.494        2024.806
  22583360.965    22583360.3964   22583363.5944  118676359.374 7  92475116.84144
      1339.257        1043.576
  23322236.363    23322236.1264   23322238.5244  122559150.800 7  95500654.91244
     -4020.481       -3132.864
  22674579.962    22674580.0164   22674581.9234  119155720.865 7  92848634.49145
       576.189         448.979
  23055387.165    23055386.6684   23055389.0254  121156866.109 6  94407968.88344
     -3304.354       -2574.820
  21800907.273    21800907.1854   21800909.0004  114564527.942 7  89271080.90746
     -2348.927       -1830.333
  21248908.559    21248907.7614   21248910.5714  111663756.986 8  87010739.13046
       368.064         286.802
  23848100.539    23848100.5054   23848102.7334  125322618.387 7  97654010.80344
      2514.657        1959.473
  24016454.619    24016454.6164   24016456.5414  126207339.421 7  98343399.98144
      2323.802        1810.750
  23026643.404    23026642.6544   23026646.0004  121005811.354 7  94290264.71945
     -3454.972       -2692.176
 08  4 24  9 51 30.0000000  0 11G 1G 4G 5G11G12G14G17G20G30G31G32
  21932188.197    21932187.5634   21932190.7124  115254417.633 8  89808657.05345
     -1473.465       -1148.153
  23251098.373    23251098.5364   23251101.2784  122185350.536 7  95209388.17644
      2587.914        2016.550
  22575769.002    22575768.1344   22575771.1994  118636461.878 7  92444027.91644
      1320.676        1029.094
  23345216.429    23345216.2684   23345218.9644  122679910.746 7  95594753.27944
     -4029.604       -3139.888
  22671346.797    22671346.8214   22671348.4434  119138729.633 7  92835394.58445
       556.733         433.819
  23074294.623    23074294.2344   23074296.3524  121256226.108 7  94485392.24344
     -3319.536       -2586.646
  21814371.198    21814371.1884   21814373.1214  114635282.028 8  89326213.94146
     -2367.818       -1845.052
  21246865.656    21246864.8414   21246867.3904  111653020.433 8  87002372.92346
       347.836         271.047
  23833780.235    23833780.1434   23833783.0714  125247366.144 7  97595372.74844
      2502.216        1949.778
  24003220.094    24003220.2164   24003222.3384  126137792.888 7  98289207.94744
      2312.750        1802.136
  23046400.515    23046399.7944   23046403.2524  121109636.546 7  94371167.43145
     -3466.559       -2701.221
 08  4 24  9 52  0.0000000  0 11G 1G 4G 5G11G12G14G17G20G30G31G32
  21940657.961    21940657.4564   21940660.5434  115298927.446 8  89843340.07345
     -1494.260       -1164.357
  23236355.676    23236355.8384   23236358.5004  122107876.525 7  95149018.84644
      2576.636        2007.772
  22568282.980    22568282.2094   22568285.4234  118597122.147 7  92413373.58444
      1301.530        1014.187
  23368250.292    23368250.1774   23368252.7754  122800952.470 7  95689070.80844
     -4039.983       -3148.041
  22668224.854    22668224.6404   22668226.6414  119122323.576 7  92822610.64145
       536.627         418.147
  23093288.661    23093288.3544   23093290.6484  121356040.587 6  94563169.72144
     -3335.229       -2598.882
  21827943.115    21827942.9674   21827944.8614  114706601.625 8  89381787.61346
     -2387.209       -1860.155
  21244938.501    21244937.7244   21244940.3254  111642892.427 8  86994480.77446
       326.913         254.726
  23819531.284    23819531.1504   23819534.0054  125172488.316 7  97537026.44844
      2489.126        1939.567
  23990049.338    23990049.3934   23990050.9374  126068578.524 7  98235274.77844
      2301.116        1793.074
  23066223.269    23066222.5544   23066226.0824  121213806.314 7  94452338.70045
     -3478.530       -2710.542
 08  4 24  9 52 30.0000000  0 11G 1G 4G 5G11G12G14G17G20G30G31G32
  21949245.789    21949245.1334   21949248.2644  115344056.027 8  89878505.21246
     -1514.326       -1179.994
  23221676.794    23221676.4904   23221679.5774  122030737.404 7  95088910.45744
      2565.893        1999.398
  22560905.638    22560904.9084   22560908.2474  118558354.686 7  92383165.22244
      1282.913         999.671
  23391338.947    23391338.8084   23391341.2114  122922290.232 7  95783621.21644
     -4049.104       -3155.152
  22665216.647    22665216.7544   22665218.5104  119106516.175 7  92810293.18045
       517.163         402.983
  23112371.137    23112370.4974   23112372.9514  121456319.597 6  94641309.23244
     -3350.070       -2610.443
  21841624.539    21841624.4564   21841626.3674  114778497.407 7  89437810.21946
     -2405.908       -1874.738
  21243129.470    21243128.7424   21243131.3154  111633386.935 8  86987074.08746
       306.714         238.993
  23805356.425    23805356.6344   23805358.9314  125097999.930 7  97478983.70944
      2476.646        1929.829
  23976943.826    23976943.8454   23976945.8654  125999710.861 7  98181611.68044
      2290.053        1784.463
  23086113.616    23086112.9754   23086116.4114  121318330.270 7  94533785.84545
     -3489.793       -2719.311
 08  4 24  9 53  0.0000000  0 11G 1G 4G 5G11G12G14G17G20G30G31G32
  21957943.851    21957943.1884   21957946.3944  115389765.927 8  89914123.32145
     -1533.333       -1194.808
  23207054.650    23207054.6014   23207057.8654  121953898.885 7  95029036.30844
      2556.238        1991.877
  22553630.483    22553629.9444   22553633.3264  118520124.958 7  92353375.86144
      1265.318         985.953
  23414476.027    23414475.6794   23414478.3584  123043878.039 7  95878365.10144
     -4057.116       -3161.387
  22662316.050    22662315.8314   22662317.5244  119091271.825 7  92798414.46845
       498.724         388.615
  23131534.691    23131534.0064   23131536.1754  121557023.660 7  94719779.89944
     -3363.869       -2621.189
  21855408.131    21855408.0464   21855410.0364  114850931.070 8  89494251.98146
     -2423.407       -1888.369
  21241432.189    21241431.4144   21241434.0114  111624467.656 8  86980124.08046
       287.556         224.071
  23791249.331    23791249.6114   23791252.2614  125023867.327 6  97421218.13144
      2465.148        1920.891
  23963898.333    23963898.4824   23963900.2344  125931156.338 7  98128192.62744
      2279.930        1776.575
  23106064.013    23106063.2754   23106066.8224  121423170.103 7  94615479.24145
     -3499.895       -2727.196
 08  4 24  9 53 30.0000000  0 11G 1G 4G 5G11G12G14G17G20G30G31G32
  21966755.386    21966754.7814   21966757.9324  115436070.419 8  89950204.75045
     -1553.530       -1210.546
  23192493.030    23192493.0994   23192496.1554  121877377.573 7  94969409.33444
      2545.199        1983.270
  22546461.020    22546460.5624   22546463.7784  118482449.181 7  92324018.10744
      1246.443         971.242
  23437663.560    23437663.5234   23437666.1484  123165729.947 7  95973314.57344
     -4066.295       -3168.539
  22659525.029    22659524.8804   22659526.6644  119076605.954 7  92786986.52345
       479.048         373.286
  23150780.888    23150780.3834   23150782.9214  121658164.712 6  94798591.06044
     -3378.758       -2632.805
  21869296.677    21869296.5814   21869298.4164  114923915.371 8  89551122.93246
     -2442.132       -1902.964
  21239849.200    21239848.3534   21239851.0054  111616149.659 8  86973642.62846
       267.063         208.077
  23777213.200    23777213.3104   23777216.1334  124950107.558 6  97363742.97944
      2452.225        1910.826
  23950915.670    23950915.5734   23950917.7454  125862931.147 7  98075030.04645
      2268.482        1767.676
  23126076.605    23126075.9864   23126079.7784  121528337.585 7  94697427.89845
     -3511.156       -2735.968
 08  4 24  9 54  0.0000000  0 11G 1G 4G 5G11G12G14G17G20G30G31G32
  21975679.715    21975679.1794   21975682.1644  115482968.307 8  89986748.59345
     -1573.033       -1225.741
  23177992.092    23177992.3154   23177995.5004  121801175.782 7  94910031.32544
      2534.823        1975.186
  22539397.407    22539396.9254   22539400.1404  118445329.350 7  92295093.58344
      1228.141         956.991
  23460901.385    23460900.9494   23460903.8784  123287843.513 7  96068467.78944
     -4074.721       -3175.103
  22656844.398    22656844.4704   22656846.0704  119062519.658 7  92776010.19945
       459.979         358.427
  23170110.230    23170109.7854   23170112.0234  121759740.256 7  94877740.89244
     -3392.950       -2643.860
  21883289.294    21883289.3354   21883291.3084  114997448.659 8  89608421.67446
     -2460.184       -1917.026
  21238380.716    21238380.1104   21238382.7634  111608433.516 8  86967630.06846
       247.262         192.675
  23763248.601    23763249.0094   23763251.5774  124876723.972 7  97306560.99744
      2439.930        1901.241
  23937996.065    23937996.1124   23937998.0544  125795038.022 7  98022126.14344
      2257.604        1759.161
  23146151.208    23146150.6294   23146154.0514  121633830.332 7  94779629.95845
     -3521.762       -2744.225
 08  4 24  9 54 30.0000000  0 11G 1G 4G 5G11G12G14G17G20G30G31G32
  21984720.419    21984719.7464   21984723.0844  115530477.152 7  90023768.35645
     -1594.131       -1242.174
  23163556.446    23163556.3504   23163559.7574  121725314.777 7  94850918.87444
      2522.692        1965.736
  22532443.800    22532442.9074   22532446.2404  118408786.152 7  92266618.38644
      1208.138         941.405
  23484191.602    23484191.2284   23484194.0594  123410235.465 7  96163838.17044
     -4084.633       -3182.805
  22654278.080    22654277.9534   22654279.5324  119049033.055 7  92765501.17945
       439.259         342.284
  23189525.223    23189524.3884   23189526.8814  121861765.670 6  94957241.18444
     -3408.660       -2656.098
  21897389.806    21897389.8174   21897391.6504  115071547.267 8  89666160.89046
     -2479.690       -1932.221
  21237030.651    21237029.9194   21237032.6224  111601339.125 8  86962102.01646
       225.818         175.975
  23749359.863    23749360.1744   23749362.4624  124803737.728 7  97249688.68444
      2425.927        1890.330
  23925143.938    23925143.9314   23925145.8144  125727498.101 7  97969497.54544
      2245.089        1749.400
  23166291.185    23166290.3194   23166294.0914  121739664.560 7  94862097.94545
     -3533.741       -2753.548
 08  4 24  9 55  0.0000000  0 11G 1G 4G 5G11G12G14G17G20G30G31G32
  21993876.685    21993876.0904   21993879.4814  115578594.956 8  90061262.82245
     -1613.999       -1257.660
  23149185.707    23149185.7434   23149188.5754  121649795.304 6  94792072.53644
      2511.689        1957.167
  22525599.467    22525598.8014   22525602.1524  118372820.158 7  92238592.95844
      1189.300         926.728
  23507534.056    23507533.9914   23507536.3704  123532901.373 6  96259422.12244
     -4093.326       -3189.594
  22651825.382    22651825.4124   22651827.0834  119036145.640 7  92755459.03645
       419.632         326.991
  23209024.835    23209024.3794   23209026.8564  121964237.267 7  95037089.12844
     -3423.054       -2667.316
  21911597.419    21911597.3934   21911599.2284  115146207.902 8  89724337.97346
     -2497.972       -1946.466
  21235798.931    21235798.0214   21235800.9034  111594865.375 8  86957057.39846
       205.615         160.263
  23735546.605    23735546.8854   23735549.4644  124731149.850 7  97193126.75044
      2412.971        1880.245
  23912358.766    23912358.8234   23912360.7354  125660313.177 7  97917145.91945
      2233.692        1740.540
  23186495.368    23186494.4904   23186498.1594  121845837.376 7  94944829.90845
     -3544.729       -2762.158
 08  4 24  9 55 30.0000000  0 11G 1G 4G 5G11G12G14G17G20G30G31G32
  22003147.069    22003146.5254   22003149.7734  115627311.335 8  90099223.68845
     -1633.757       -1273.062
  23134878.148    23134878.3944   23134881.4854  121574610.715 7  94733487.15844
      2500.610        1948.527
  22518863.846    22518863.2924   22518866.4784  118337424.440 7  92211011.89844
      1170.401         911.990
  23530926.787    23530926.1244   23530929.1494  123655829.152 7  96355209.83944
     -4101.925       -3196.281
  22649485.697    22649485.5274   22649487.3134  119023849.943 7  92745877.97545
       400.084         311.754
  23228607.232    23228606.7104   23228609.0314  122067143.730 7  95117275.95944
     -3437.332       -2678.439
  21925909.917    21925909.6994   21925911.5864  115221420.174 8  89782944.93846
     -2516.151       -1960.635
  21234683.591    21234682.8564   21234685.6594  111589004.887 8  86952490.81646
       185.219         144.319
  23721809.148    23721808.9064   23721811.5074  124658955.016 7  97136871.08644
      2399.998        1870.123
  23899639.871    23899640.3964   23899642.0574  125593475.001 7  97865063.83144
      2222.183        1731.585
  23206761.565    23206760.9934   23206764.3604  121952336.952 7  95027816.47245
     -3555.294       -2770.335
 08  4 24  9 56  0.0000000  0 11G 1G 4G 5G11G12G14G17G20G30G31G32
  22012529.586    22012528.9834   22012532.3294  115676616.887 8  90137643.58145
     -1653.370       -1288.345
  23120634.028    23120634.2794   23120636.8934  121499755.478 7  94675158.40644
      2489.632        1939.974
  22512235.840    22512234.6754   22512238.1724  118302592.640 7  92183870.22444
      1151.574         897.329
  23554366.955    23554366.6734   23554369.2514  123779009.483 7  96451194.62844
     -4110.217       -3202.758
  22647257.037    22647257.0034   22647258.6304  119012138.631 7  92736752.29445
       380.604         296.572
  23248270.330    23248269.7834   23248272.2024  122170474.146 6  95197793.16544
     -3451.396       -2689.394
  21940325.303    21940325.1814   21940327.0474  115297174.067 8  89841973.91646
     -2534.193       -1974.692
  21233683.625    21233682.7974   21233685.5184  111583749.789 8  86948395.97546
       165.038         128.605
  23708144.012    23708144.1854   23708146.7744  124587147.335 7  97080917.11644
      2387.045        1860.030
  23886986.578    23886986.5184   23886988.6464  125526980.550 7  97813250.22045
      2210.665        1722.578
  23227088.268    23227087.5784   23227090.7914  122059153.413 7  95111050.07445
     -3565.805       -2778.551
 08  4 24  9 56 30.0000000  0 11G 1G 4G 5G11G12G14G17G20G30G31G32
  22022021.856    22022021.3314   22022024.6974  115726499.448 8  90176513.02145
     -1671.970       -1302.824
  23106450.624    23106450.4874   23106453.3654  121425220.887 7  94617079.52444
      2479.511        1932.084
  22505712.997    22505712.3824   22505715.4024  118268315.735 7  92157160.97144
      1133.679         883.388
  23577852.720    23577852.6234   23577855.3494  123902427.771 7  96547364.63644
     -4117.373       -3208.317
  22645137.769    22645137.4814   22645139.5044  119001001.714 7  92728074.19945
       362.057         282.122
  23268011.623    23268011.2504   23268013.4094  122274214.748 6  95278630.00644
     -3464.418       -2699.544
  21954841.521    21954841.4164   21954843.1844  115373456.780 8  89901414.93646
     -2551.128       -1987.889
  21232796.791    21232796.0184   21232798.7024  111579089.928 8  86944764.98146
       145.794         113.595
  23694551.640    23694552.0214   23694554.4514  124515718.678 7  97025258.43344
      2375.025        1850.677
  23874396.277    23874396.2044   23874398.2974  125460819.176 7  97761695.97644
      2200.164        1714.413
  23247472.166    23247471.4604   23247475.2184  122166273.208 7  95194520.09045
     -3575.291       -2785.931
 08  4 24  9 57  0.0000000  0 11G 1G 4G 5G11G12G14G17G20G30G31G32
  22031623.374    22031622.7904   22031626.2024  115776955.389 7  90215829.30545
     -1691.831       -1318.303
  23092327.847    23092327.8934   23092330.8054  121351006.383 7  94559250.05344
      2468.033        1923.151
  22499295.566    22499295.0184   22499298.0754  118234592.909 7  92130883.46744
      1114.439         868.391
  23601383.044    23601382.8154   23601385.3614  124026079.580 7  96643716.83044
     -4125.958       -3215.021
  22643127.431    22643127.4034   22643129.2114  118990437.718 7  92719842.51745
       342.194         266.647
  23287829.739    23287829.6574   23287831.7644  122378359.955 6  95359782.06644
     -3478.663       -2710.645
  21969457.212    21969457.3104   21969459.0554  115450263.535 8  89961264.29246
     -2569.345       -2002.086
  21232022.785    21232022.0644   21232024.9154  111575022.937 8  86941595.91946
       125.291          97.636
  23681031.306    23681031.5964   23681034.0314  124444669.458 7  96969895.47044
      2361.531        1840.158
  23861869.310    23861869.6074   23861871.9004  125394990.936 7  97710401.13444
      2188.221        1705.098
  23267913.284    23267912.4824   23267915.9484  122273691.212 7  95278222.45445
     -3585.914       -2794.218
 08  4 24  9 57 30.0000000  0 11G 1G 4G 5G11G12G14G17G20G30G31G32
  22041337.447    22041336.7344   22041340.1794  115828002.711 7  90255606.47745
     -1711.464       -1333.610
  23078270.601    23078270.6164   23078273.2764  121277133.438 7  94501686.72744
      2456.630        1914.253
  22492987.873    22492987.0794   22492990.1224  118201445.116 7  92105054.04844
      1095.218         853.419
  23624960.789    23624960.2444   23624962.7844  124149980.472 7  96740262.99244
     -4134.176       -3221.409
  22641230.207    22641230.1334   22641231.6884  118980466.431 7  92712072.69045
       322.430         251.243
  23307728.283    23307727.8384   23307730.0404  122482926.434 7  95441262.42344
     -3492.593       -2721.506
  21984176.077    21984176.0774   21984177.8874  115527611.670 7  90021535.56346
     -2587.357       -2016.126
  21231365.526    21231364.7964   21231367.4904  111571568.921 8  86938904.48646
       104.876          81.721
  23667587.834    23667588.2454   23667590.2684  124374021.101 6  96914844.81444
      2348.162        1829.740
  23849410.791    23849410.7964   23849412.4894  125329517.573 7  97659382.69444
      2176.418        1695.938
  23288414.140    23288413.5164   23288416.8844  122381423.992 7  95362169.98544
     -3596.343       -2802.344
 08  4 24  9 58  0.0000000  0 11G 1G 4G 5G11G12G14G17G20G30G31G32
  22051162.688    22051162.2134   22051165.7794  115879636.255 7  90295840.37545
     -1730.761       -1348.646
  23064277.680    23064277.5504   23064280.6194  121203600.681 7  94444388.47844
      2445.538        1905.619
  22486788.992    22486788.3524   22486791.3494  118168870.501 7  92079671.25844
      1076.375         838.738
  23648584.413    23648584.1204   23648586.7774  124274124.125 7  96836998.12844
     -4141.958       -3227.486
  22639444.766    22639444.7804   22639446.5794  118971085.345 7  92704762.75645
       302.987         236.097
  23327705.276    23327705.0834   23327707.5734  122587907.892 6  95523066.12944
     -3506.179       -2732.088
  21998996.792    21998996.7714   21998998.6314  115605495.585 7  90082224.29446
     -2604.901       -2029.790
  21230824.221    21230823.7044   21230826.2914  111568724.723 8  86936688.18846
        84.740          66.036
  23654219.346    23654219.6234   23654222.2434  124303772.685 6  96860105.80844
      2335.058        1819.532
  23837018.946    23837019.2044   23837021.4714  125264397.685 7  97608639.42845
      2164.870        1686.919
  23308973.864    23308973.2914   23308976.9894  122489465.697 7  95446358.11544
     -3606.445       -2810.208
 08  4 24  9 58 30.0000000  0 11G 1G 4G 5G11G12G14G17G20G30G31G32
  22061099.730    22061099.1494   22061102.7064  115931854.958 7  90336530.23445
     -1750.229       -1363.819
  23050349.833    23050350.0124   23050352.8384  121130410.816 7  94387357.43244
      2434.052        1896.663
  22480699.630    22480699.0814   22480702.0164  118136871.100 7  92054736.68644
      1057.129         823.746
  23672254.096    23672253.8814   23672256.2814  124398509.251 7  96933921.66344
     -4150.028       -3233.779
  22637772.366    22637771.9694   22637773.8774  118962295.560 7  92697913.57045
       283.202         220.675
  23347761.112    23347760.8284   23347763.4064  122693301.986 6  95605191.37544
     -3519.857       -2742.740
  22013919.303    22013919.2764   22013921.0714  115683913.375 8  90143329.01246
     -2622.698       -2043.653
  21230399.407    21230398.6774   21230401.3234  111566491.500 8  86934947.94846
        64.386          50.173
  23640928.849    23640928.9044   23640931.3454  124233927.574 7  96805681.03544
      2321.546        1808.993
  23824694.911    23824695.0534   23824697.0234  125199636.110 7  97558176.40644
      2152.920        1677.618
  23329592.078    23329591.5094   23329595.1994  122597814.859 7  95530786.09045
     -3616.615       -2818.145
 08  4 24  9 59  0.0000000  0 11G 1G 4G 5G11G12G14G17G20G30G31G32
  22071147.825    22071147.1764   22071150.7774  115984658.214 7  90377675.61045
     -1769.854       -1379.113
  23036488.400    23036488.2294   23036491.1434  121057566.614 7  94330595.72544
      2422.321        1887.530
  22474720.494    22474719.5694   22474722.7304  118105449.284 7  92030252.19644
      1037.725         808.617
  23695969.286    23695968.9634   23695971.3984  124523132.941 7  97031031.01344
     -4158.081       -3240.064
  22636212.409    22636212.3904   22636214.2164  118954098.614 7  92691526.30945
       263.317         205.186
  23367895.028    23367894.5754   23367897.0534  122799106.283 6  95687636.30744
     -3533.635       -2753.476
  22028943.137    22028943.1204   22028944.9774  115762863.719 7  90204848.74646
     -2640.531       -2057.548
  21230090.919    21230090.1624   21230092.9044  111564869.982 8  86933684.33846
        43.832          34.160
  23627714.727    23627714.9214   23627717.3164  124164488.911 7  96751573.01144
      2307.809        1798.300
  23812439.019    23812439.2784   23812441.4324  125135233.663 7  97507993.13044
      2140.769        1668.142
  23350268.185    23350267.4924   23350271.2274  122706469.574 7  95615452.30445
     -3626.887       -2826.148
 08  4 24  9 59 30.0000000  0 11G 1G 4G 5G11G12G14G17G20G30G31G32
  22081307.612    22081307.1534   22081310.5804  116038047.949 7  90419277.96445
     -1789.464       -1394.385
  23022693.251    23022693.5334   23022696.2574  120985073.609 7  94274107.66844
      2410.530        1878.335
  22468851.850    22468851.0884   22468854.2434  118074610.138 7  92006221.69144
      1018.195         793.393
  23719730.111    23719729.9244   23719732.2234  124647996.635 7  97128327.46444
     -4166.159       -3246.363
  22634766.240    22634766.1974   22634768.0904  118946498.893 7  92685604.43545
       243.287         189.573
  23388107.083    23388106.8204   23388109.1894  122905321.490 6  95770401.41644
     -3547.396       -2764.205
  22044068.550    22044068.4644   22044070.4054  115842347.911 7  90266784.43746
     -2658.402       -2071.479
  21229899.741    21229898.9624   21229901.6604  111563864.559 8  86932900.87346
        23.169          18.050
  23614579.595    23614579.7254   23614582.3414  124095462.883 7  96697786.56144
      2293.925        1787.473
  23800253.210    23800253.3584   23800255.0404  125071195.210 7  97458092.99645
      2128.415        1658.482
  23371002.609    23371001.8724   23371005.5914  122815430.092 7  95700356.55945
     -3637.166       -2834.153
 08  4 24 10  0  0.0000000  0 11G 1G 4G 5G11G12G14G17G20G30G31G32
  22091578.876    22091578.3554   22091581.8554  116092024.031 7  90461337.24445
     -1808.879       -1409.511
  23008965.880    23008965.7624   23008968.5644  120912935.436 7  94217896.11344
      2398.750        1869.149
  22463094.330    22463093.8234   22463097.2464  118044356.446 7  91982647.38344
       998.782         778.268
  23743536.143    23743535.7624   23743538.0884  124773098.015 7  97225809.06644
     -4173.826       -3252.342
  22633434.025    22633434.0924   22633436.0594  118939498.049 7  92680149.21545
       223.460         174.123
  23408397.328    23408396.7854   23408399.2374  123011945.907 6  95853485.34944
     -3560.876       -2774.707
  22059295.294    22059295.1914   22059297.2624  115922365.032 8  90329135.39346
     -2675.990       -2085.193
  21229825.794    21229825.1094   21229827.8864  111563476.684 8  86932598.64046
         2.724           2.121
  23601523.365    23601523.3544   23601526.1844  124026853.320 7  96644324.58244
      2280.107        1776.693
  23788137.228    23788137.4124   23788139.3254  125007525.680 7  97408480.42945
      2116.231        1649.006
  23391795.302    23391794.4564   23391798.1094  122924695.742 7  95785498.58544
     -3647.104       -2841.896
 08  4 24 10  0 30.0000000  0 11G 1G 4G 5G11G12G14G17G20G30G31G32
  22101959.688    22101959.2634   22101962.4924  116146574.838 7  90503844.30745
     -1827.958       -1424.380
  22995304.560    22995304.5614   22995307.2324  120841143.995 7  94161954.73144
      2387.197        1860.151
  22457447.371    22457446.6014   22457449.9424  118014679.890 7  91959522.79544
       979.563         763.289
  23767385.101    23767384.6054   23767387.0184  124898424.889 7  97323466.38244
     -4181.326       -3258.166
  22632213.973    22632214.1934   22632215.9804  118933086.897 7  92675153.53245
       203.830         158.832
  23428762.435    23428762.1164   23428764.4734  123118966.680 6  95936878.13744
     -3574.003       -2784.935
  22074621.206    22074621.1624   22074623.1064  116002902.952 8  90391892.22646
     -2693.257       -2098.631
  21229867.634    21229867.0214   21229869.7314  111563696.524 8  86932769.96246
       -17.489         -13.624
  23588545.409    23588545.4764   23588548.1294  123958652.465 7  96591181.07744
      2266.449        1766.058
  23776089.895    23776089.7454   23776091.7434  124944217.250 7  97359149.40044
      2104.236        1639.654
  23412643.277    23412642.7664   23412646.6254  123034253.940 7  95870868.60244
     -3656.817       -2849.465
 08  4 24 10  1  0.0000000  0 11G 1G 4G 5G11G12G14G17G20G30G31G32
  22112450.613    22112449.9884   22112453.0284  116201703.727 7  90546801.93445
     -1847.153       -1439.339
  22981710.402    22981710.2344   22981713.3324  120769706.230 7  94106288.94244
      2375.437        1850.988
  22451910.844    22451910.4344   22451913.5924  117985586.719 7  91936852.80544
       960.119         748.143
  23791277.059    23791276.8084   23791279.1804  125023979.006 7  97421300.74944
     -4188.773       -3263.977
  22631107.419    22631107.4424   22631109.2064  118927270.976 7  92670621.69345
       184.014         143.381
  23449203.737    23449202.8094   23449205.9544  123226385.733 6  96020581.35344
     -3587.113       -2795.146
  22090046.576    22090046.6884   22090048.6954  116083964.223 7  90455056.77046
     -2710.654       -2112.199
  21230026.186    21230025.4464   21230028.1184  111564529.017 8  86933418.57746
       -37.922         -29.549
  23575646.256    23575646.5344   23575648.7994  123890867.935 7  96538362.03644
      2252.593        1755.264
  23764112.276    23764112.5404   23764114.8994  124881276.049 7  97310104.32945
      2091.997        1630.131
  23433547.897    23433547.1384   23433551.0304  123144106.731 7  95956468.12944
     -3666.555       -2857.058
 08  4 24 10  1 30.0000000  0 11G 1G 4G 5G11G12G14G17G20G30G31G32
  22123051.185    22123050.6274   22123053.6994  116257410.390 8  90590209.76045
     -1866.639       -1454.520
  22968183.990    22968183.9564   22968186.9764  120698625.547 7  94050901.40644
      2363.232        1841.487
  22446485.828    22446485.7314   22446489.0984  117957079.840 7  91914639.67644
       940.276         732.690
  23815212.057    23815212.0184   23815214.3894  125149759.126 7  97519311.24644
     -4196.583       -3270.074
  22630114.279    22630114.4694   22630116.1074  118922052.384 7  92666555.28746
       163.838         127.665
  23469720.090    23469719.8574   23469722.2764  123334201.342 6  96104593.52544
     -3600.602       -2805.660
  22105571.690    22105571.5624   22105573.5214  116165548.219 8  90518628.72446
     -2728.290       -2125.937
  21230301.625    21230300.8544   21230303.4984  111565976.390 8  86934546.39146
       -58.638         -45.688
  23562827.375    23562827.5084   23562829.7504  123823503.657 6  96485870.38444
      2238.322        1744.140
  23752205.870    23752205.9784   23752207.9164  124818705.462 7  97261347.84444
      2079.271        1620.210
  23454507.957    23454507.4074   23454511.2224  123254253.089 7  96042296.33644
     -3676.593       -2864.867
 08  4 24 10  2  0.0000000  0 11G 1G 4G 5G11G12G14G17G20G30G31G32
  22133762.148    22133761.6064   22133764.7714  116313697.574 8  90634069.97145
     -1885.507       -1469.235
  22954726.998    22954727.0074   22954729.9134  120627908.325 7  93995797.06444
      2351.509        1832.344
  22441174.748    22441173.7854   22441176.8744  117929164.831 7  91892887.74044
       920.987         717.645
  23839190.817    23839190.3904   23839192.6574  125275766.621 7  97617498.89844
     -4203.629       -3275.558
  22629236.086    22629235.9524   22629237.6274  118917435.930 7  92662958.06645
       144.197         112.360
  23490312.456    23490312.1664   23490314.5804  123442414.801 6  96188915.67944
     -3613.305       -2815.555
  22121196.339    22121196.3234   22121198.1324  116247656.689 7  90582609.42946
     -2745.278       -2139.184
  21230694.693    21230693.9914   21230696.6834  111568042.611 8  86936156.43046
       -78.803         -61.407
  23550089.556    23550089.7224   23550092.2194  123756566.420 7  96433711.47644
      2224.467        1733.352
  23740370.834    23740370.9264   23740373.3414  124756513.291 7  97212886.49445
      2067.136        1610.749
  23475524.289    23475523.8214   23475527.4854  123364694.848 7  96128354.76044
     -3685.866       -2872.098
 08  4 24 10  2 30.0000000  0 11G 1G 4G 5G11G12G14G17G20G30G31G32
  22144580.735    22144580.0494   22144583.3184  116370548.949 7  90678369.75945
     -1904.690       -1484.172
  22941336.408    22941336.6694   22941339.5264  120557542.161 7  93940966.31144
      2339.423        1822.927
  22435972.446    22435971.7524   22435975.1274  117901828.826 7  91871586.98444
       901.272         702.298
  23863209.317    23863208.8554   23863211.2904  125401984.240 7  97715850.24344
     -4210.962       -3281.270
  22628469.142    22628469.3694   22628470.9134  118913407.370 7  92659818.94346
       124.231          96.798
  23510977.478    23510976.9094   23510979.2934  123551008.713 6  96273534.31244
     -3626.309       -2825.697
  22136917.523    22136917.5534   22136919.4044  116330272.339 7  90646985.17246
     -2762.518       -2152.601
  21231203.110    21231202.2834   21231205.0114  111570713.774 8  86938237.85746
       -99.363         -77.423
  23537430.941    23537430.8334   23537433.5164  123690044.192 7  96381875.98044
      2210.207        1722.245
  23728605.677    23728605.5494   23728607.8694  124694686.583 7  97164709.82044
      2054.517        1600.913
  23496593.838    23496593.1824   23496596.9974  123475415.010 7  96214630.15644
     -3695.542       -2879.642
 08  4 24 10  3  0.0000000  0 11G 1G 4G 5G11G12G14G17G20G30G31G32
  22155509.188    22155508.5614   22155511.6984  116427977.676 8  90723119.42745
     -1924.033       -1499.252
  22928016.448    22928016.5464   22928019.4394  120487543.830 7  93886422.18744
      2327.035        1813.274
  22430883.851    22430883.1214   22430886.2594  117875087.669 7  91850749.75144
       881.308         686.733
  23887269.992    23887269.6754   23887271.9144  125528423.718 7  97814374.49744
     -4218.434       -3287.082
  22627817.599    22627817.5454   22627819.0924  118909982.068 8  92657149.89746
       103.992          81.024
  23531716.719    23531716.3534   23531718.5934  123659994.400 6  96358458.17244
     -3639.448       -2835.935
  22152737.834    22152737.8254   22152739.7124  116413408.016 8  90711766.10846
     -2779.949       -2166.194
  21231829.276    21231828.5724   21231831.1924  111574004.476 8  86940801.97846
      -120.113         -93.595
  23524854.265    23524854.2484   23524857.0074  123623953.924 7  96330377.05344
      2195.699        1710.931
  23716912.910    23716913.2154   23716915.5264  124633242.102 7  97116831.01145
      2041.665        1590.909
  23517718.135    23517717.5324   23517721.5754  123586425.481 7  96301131.82744
     -3705.219       -2887.187
 08  4 24 10  3 30.0000000  0 11G 1G 4G 5G11G12G14G17G20G30G31G32
  22166547.758    22166547.2484   22166550.4314  116485986.441 8  90768321.06845
     -1943.068       -1514.076
  22914767.559    22914767.5544   22914770.3024  120417919.458 7  93832169.40544
      2314.723        1803.675
  22425909.316    22425908.7054   22425912.2304  117848947.086 7  91830380.44344
       861.511         671.312
  23911373.115    23911372.9374   23911375.0144  125655086.777 7  97913072.97344
     -4225.562       -3292.645
  22627281.401    22627281.4414   22627283.1084  118907164.922 7  92654954.72245
        83.963          65.423
  23552530.901    23552530.4524   23552532.9874  123769374.159 6  96443689.12544
     -3652.317       -2845.959
  22168657.492    22168657.4454   22168659.2794  116497066.395 7  90776954.57446
     -2797.081       -2179.551
  21232574.423    21232573.5184   21232576.3434  111577919.384 8  86943852.48646
      -140.690        -109.622
  23512361.220    23512361.1834   23512363.8144  123558302.212 7  96279219.83844
      2181.225        1699.658
  23705294.760    23705294.7134   23705296.7634  124572186.267 7  97069255.15144
      2028.938        1580.983
  23538898.427    23538897.8774   23538901.8354  123697728.300 7  96387861.34844
     -3714.705       -2894.577
 08  4 24 10  4  0.0000000  0 11G 1G 4G 5G11G12G14G17G20G30G31G32
  22177695.002    22177694.5134   22177697.6974  116544565.724 8  90813967.27745
     -1962.087       -1528.900
  22901588.466    22901588.2964   22901591.2994  120348663.517 7  93778203.77644
      2302.363        1794.049
  22421048.116    22421047.4274   22421050.5584  117823400.806 7  91810474.25544
       841.648         655.828
  23935516.718    23935516.4814   23935518.6964  125781962.615 7  98011937.21644
     -4232.661       -3298.177
  22626859.519    22626859.6184   22626861.2804  118904948.638 8  92653227.76145
        63.896          49.784
  23573418.340    23573417.5854   23573419.8634  123879136.400 6  96529218.15344
     -3665.056       -2855.887
  22184674.394    22184674.3914   22184676.3374  116581236.258 7  90842541.53446
     -2814.096       -2192.806
  21233436.381    21233435.7174   21233438.5084  111582450.800 8  86947383.49046
      -161.262        -125.659
  23499950.628    23499950.6594   23499953.6004  123493084.385 7  96228400.81144
      2166.699        1688.337
  23693748.665    23693748.8784   23693751.0254  124511513.167 7  97021977.50645
      2016.055        1570.943
  23560132.359    23560131.7714   23560135.5534  123809312.876 7  96474810.39544
     -3724.138       -2901.926
 08  4 24 10  4 30.0000000  0 11G 1G 4G 5G11G12G14G17G20G30G31G32
  22188952.417    22188951.9684   22188955.2424  116603724.047 8  90860064.65146
     -1981.557       -1544.075
  22888482.120    22888481.8934   22888484.8124  120279788.318 7  93724534.76244
      2289.487        1784.022
  22416302.325    22416301.4464   22416304.7524  117798460.528 7  91791040.28545
       821.278         639.952
  23959702.343    23959702.1854   23959704.7274  125909058.870 7  98110973.17844
     -4240.175       -3304.031
  22626554.064    22626554.2324   22626555.7464  118903343.789 7  92651977.22245
        43.296          33.734
  23594379.654    23594378.7854   23594381.4604  123989288.407 6  96615050.87244
     -3678.169       -2866.106
  22200790.342    22200790.3504   22200792.2934  116665925.502 7  90908533.06746
     -2831.605       -2206.443
  21234418.204    21234417.4484   21234420.2934  111587609.415 8  86951403.14846
      -182.397        -142.129
  23487624.958    23487625.1554   23487627.7894  123428313.213 7  96177929.82344
      2151.594        1676.569
  23682278.166    23682278.1744   23682280.2934  124451235.518 7  96975007.94444
      2002.636        1560.494
  23581421.135    23581420.7404   23581424.7264  123921187.069 7  96561985.04844
     -3733.917       -2909.543
 08  4 24 10  5  0.0000000  0 12G 1G 4G 5G11G12G14G17G20G23G30G31G32
  22200318.811    22200318.2864   22200321.7174  116663454.678 7  90906608.00145
     -2000.333       -1558.697
  22875447.407    22875447.4094   22875450.2044  120211290.657 7  93671159.91144
      2277.140        1774.400
  22411671.076    22411670.1494   22411673.3334  117774122.533 7  91772075.64244
       801.430         624.489
  23983928.687    23983928.2764   23983930.8654  126036368.034 7  98210175.09444
     -4246.976       -3309.337
  22626364.431    22626364.4654   22626365.8944  118902345.954 7  92651199.68945
        23.327          18.182
  23615413.250    23615412.8884   23615415.1354  124099822.366 6  96701181.20544
     -3690.619       -2875.794
  22217003.738    22217003.8104   22217005.7064  116751127.550 7  90974924.19846
     -2848.402       -2219.532
  21235518.116    21235517.4454   21235520.2524  111593390.041 8  86955907.51746
      -202.876        -158.088
  24834358.879    24834358.3774   24834360.2924  130505449.793 6 101692578.08343
      3175.772        2474.633
  23475384.015    23475384.0134   23475386.7544  123363985.736 7  96127804.52644
      2137.032        1665.217
  23670882.496    23670882.4734   23670884.6534  124391350.403 7  96928344.27745
      1989.773        1550.470
  23602764.144    23602763.4044   23602767.3294  124033343.115 7  96649379.34444
     -3743.011       -2916.633
 08  4 24 10  5 30.0000000  0 12G 1G 4G 5G11G12G14G17G20G23G30G31G32
  22211793.377    22211792.7684   22211796.0464  116723753.271 8  90953593.94845
     -2019.307       -1573.484
  22862484.534    22862484.5054   22862487.4844  120143170.140 7  93618078.99045
      2264.481        1764.537
  22407153.922    22407153.3024   22407156.2214  117750385.176 7  91753579.00545
       781.312         608.817
  24008194.049    24008193.6374   24008196.1354  126163884.109 7  98309538.22344
     -4253.835       -3314.678
  22626289.419    22626289.5094   22626290.8754  118901952.746 7  92650893.26945
         3.115           2.428
  23636518.811    23636518.3464   23636520.7214  124210732.330 6  96787604.54944
     -3703.106       -2885.536
  22233313.981    22233313.7594   22233315.8194  116836836.318 8  91041709.94646
     -2865.306       -2232.698
  21236736.061    21236735.3174   21236738.1444  111599789.957 8  86960894.45446
      -223.575        -174.207
  24816240.576    24816240.3044   24816242.2994  130410239.528 6 101618388.33943
      3171.781        2471.530
  23463227.191    23463227.1634   23463229.8604  123300101.522 7  96078024.61444
      2122.107        1653.584
  23659561.192    23659560.9854   23659563.2064  124331856.939 7  96881985.79645
      1976.641        1540.242
  23624159.401    23624158.7434   23624162.3174  124145775.872 7  96736989.28044
     -3752.223       -2923.814
 08  4 24 10  6  0.0000000  0 12G 1G 4G 5G11G12G14G17G20G23G30G31G32
  22223376.065    22223375.4074   22223378.7334  116784620.859 8  91001023.23545
     -2038.291       -1588.280
  22849594.159    22849594.3034   22849596.9814  120075431.863 7  93565295.99445
      2251.631        1754.516
  22402751.890    22402751.2604   22402754.2484  117727252.862 7  91735553.83245
       761.064         593.032
  24032499.032    24032498.8544   24032501.3674  126291607.289 7  98409062.75344
     -4260.802       -3320.106
  22626330.362    22626330.2964   22626331.8634  118902167.646 8  92651060.73845
       -17.221         -13.423
  23657695.470    23657695.3244   23657697.9944  124322018.468 6  96874321.00544
     -3715.697       -2895.351
  22249720.381    22249720.3804   22249722.3734  116923052.955 7  91108891.64746
     -2882.242       -2245.896
  21238072.390    21238071.7064   21238074.5644  111606812.098 8  86966366.12146
      -244.374        -190.416
  24798146.367    24798145.6484   24798147.7554  130315151.378 6 101544293.75643
      3167.592        2468.239
  23451155.681    23451156.1784   23451158.7964  123236666.211 7  96028594.51344
      2107.094        1641.886
  23648315.461    23648315.4184   23648317.6274  124272760.417 7  96835936.66045
      1963.329        1529.865
  23645607.367    23645606.7484   23645610.4104  124258485.694 7  96824815.12944
     -3761.508       -2931.058
 08  4 24 10  6 30.0000000  0 12G 1G 4G 5G11G12G14G17G20G23G30G31G32
  22235066.301    22235065.7454   22235069.0644  116846053.938 7  91048893.15745
     -2057.284       -1603.087
  22836776.661    22836776.5814   22836779.7874  120008075.688 7  93512810.68345
      2238.732        1744.461
  22398464.753    22398464.4094   22398467.1534  117704725.070 7  91717999.71545
       740.766         577.225
  24056842.649    24056842.1254   24056844.7654  126419533.066 7  98508745.15144
     -4267.642       -3325.443
  22626486.524    22626486.6574   22626488.2424  118902989.216 7  92651700.94046
       -37.606         -29.305
  23678943.259    23678943.0894   23678945.5654  124433675.945 6  96961326.78943
     -3728.140       -2905.045
  22266222.858    22266222.9604   22266224.9724  117009772.975 7  91176465.37546
     -2899.142       -2259.068
  21239526.780    21239526.1694   21239529.1854  111614454.884 8  86972321.33246
      -265.275        -206.711
  24780074.949    24780074.4244   24780076.0144  130220186.529 6 101470295.25843
      3163.328        2464.930
  23439170.208    23439170.0924   23439172.5164  123173680.270 7  95979514.61544
      2091.903        1630.050
  23637145.207    23637145.3134   23637147.2314  124214060.863 7  96790196.75045
      1949.905        1519.408
  23667107.149    23667106.7894   23667110.3544  124371468.026 7  96912853.24944
     -3770.704       -2938.219
 08  4 24 10  7  0.0000000  0 12G 1G 4G 5G11G12G14G17G20G23G30G31G32
  21947073.042    21947072.4914   21947075.7884  115332639.077 8  89869608.82845
     -2076.288       -1617.888
  22524240.843    22524240.7984   22524243.6704  118365687.712 7  92233027.82545
      2225.612        1734.237
  22094502.240    22094501.3844   22094504.2864  116107388.645 7  90473322.00145
       720.286         561.261
  23781433.726    23781433.2054   23781435.8294  124972249.202 7  97380991.48644
     -4274.510       -3330.786
  22326967.388    22326967.2834   22326968.7734  117329004.232 7  91425219.15045
       -58.096         -45.273
  23400470.621    23400470.2404   23400472.8454  122970291.642 6  95821027.30843
     -3740.704       -2914.833
  21983030.060    21983030.0244   21983032.2414  115521583.482 8  90016836.87646
     -2916.055       -2272.237
  20941308.151    20941307.5424   20941310.5424  110047305.196 8  85751165.68346
      -286.191        -222.995
  24462235.832    24462235.2104   24462237.0674  128549929.838 6 100168796.63043
      3158.932        2461.514
  23127478.574    23127478.6044   23127481.2844  121535730.382 7  94703190.05844
      2076.536        1618.076
  23326259.551    23326259.6334   23326261.2314  122580344.769 7  95517171.26845
      1936.277        1508.781
  23388868.012    23388867.2824   23388870.8704  122909310.840 7  95773509.97944
     -3779.951       -2945.402
 08  4 24 10  7 30.0000000  0 12G 1G 4G 5G11G12G14G17G20G23G30G31G32
  21958979.210    21958978.7684   21958981.9934  115395207.126 8  89918363.16245
     -2095.065       -1632.525
  22511571.926    22511571.6814   22511574.6734  118299111.252 7  92181150.08445
      2212.638        1724.135
  22090447.919    22090446.9304   22090450.1494  116086083.021 7  90456720.24845
       699.953         545.415
  23805854.328    23805854.0814   23805856.5404  125100581.002 7  97480990.19544
     -4281.080       -3335.899
  22327356.447    22327356.3764   22327357.9204  117331049.408 7  91426812.79045
       -78.423         -61.115
  23421859.941    23421859.3654   23421861.5564  123082692.140 6  95908612.15143
     -3752.818       -2924.271
  21999724.482    21999724.4314   21999726.6904  115609313.547 7  90085197.99246
     -2932.800       -2285.321
  20943000.618    20942999.9054   20943002.9914  110056198.647 8  85758095.49746
      -306.920        -239.162
  24444214.106    24444214.1804   24444215.3514  128455226.816 7 100095002.15944
      3154.473        2458.027
  23115666.746    23115667.0594   23115669.6434  121473659.947 7  94654823.53444
      2061.293        1606.198
  23315243.474    23315243.7134   23315245.3964  122522454.748 7  95472062.08545
      1922.849        1498.327
  23410471.917    23410471.2934   23410475.0304  123022840.133 7  95861974.18144
     -3788.885       -2952.403
 08  4 24 10  8  0.0000000  0 12G 1G 4G 5G11G12G14G17G20G23G30G31G32
  21970993.166    21970992.7204   21970995.9794  115458340.550 7  89967558.01045
     -2114.027       -1647.293
  22498977.493    22498977.5574   22498980.3804  118232928.401 7  92129579.04145
      2199.314        1713.752
  22086509.728    22086509.3414   22086512.5884  116065390.805 7  90440596.47545
       679.324         529.340
  23830313.049    23830312.9884   23830315.4764  125229112.577 7  97581144.65544
     -4287.868       -3341.200
  22327862.327    22327862.5194   22327863.7764  117333707.642 7  91428884.13145
       -99.052         -77.181
  23443318.528    23443318.1714   23443321.1904  123195459.975 6  95996483.19343
     -3765.163       -2933.896
  22016514.243    22016514.2454   22016516.2264  115697545.822 7  90153950.81646
     -2949.543       -2298.347
  20944812.132    20944811.4334   20944814.6884  110065718.540 8  85765513.56246
      -327.978        -255.594
  24426218.295    24426218.1094   24426219.3304  128360658.472 7 100021312.63844
      3149.781        2454.357
  23103943.265    23103943.3744   23103945.8364  121412051.584 7  94606817.04244
      2045.722        1594.060
  23304305.638    23304305.5004   23304306.9754  122464973.526 7  95427271.52945
      1909.088        1487.603
  23432127.305    23432126.7884   23432130.5754  123136639.967 7  95950649.32944
     -3797.935       -2959.426
 08  4 24 10  8 30.0000000  0 12G 1G 4G 5G11G12G14G17G20G23G30G31G32
  21983114.522    21983114.0044   21983117.3884  115522039.143 8  90017193.30945
     -2132.725       -1661.868
  22486458.992    22486458.9344   22486461.7754  118167142.765 7  92078317.47245
      2186.168        1703.508
  22082689.546    22082688.9254   22082692.2694  116045314.942 7  90424952.96245
       658.864         513.398
  23854809.831    23854809.2604   23854812.0804  125357842.514 7  97681453.56844
     -4294.341       -3346.238
  22328485.056    22328485.1774   22328486.6554  117336980.745 8  91431434.62245
      -119.409         -93.045
  23464847.451    23464846.9044   23464849.4224  123308594.080 6  96084639.62543
     -3777.268       -2943.321
  22033399.788    22033399.5784   22033401.5244  115786278.227 7  90223092.88246
     -2966.104       -2311.241
  20946743.061    20946742.4734   20946745.6354  110075866.247 8  85773420.89946
      -348.809        -271.807
  24408249.068    24408248.8414   24408250.0534  128266228.970 7  99947731.30344
      3145.293        2450.883
  23092308.465    23092308.4124   23092310.8304  121350909.672 7  94559174.02544
      2030.171        1581.950
  23293445.608    23293445.4674   23293447.0274  122407904.690 7  95382802.31445
      1895.371        1476.911
  23453834.162    23453833.5024   23453837.2684  123250709.239 7  96039534.41944
     -3806.824       -2966.363
 08  4 24 10  9  0.0000000  0 12G 1G 4G 5G11G12G14G17G20G23G30G31G32
  21995343.029    21995342.4994   21995345.8834  115586300.182 8  90067266.83745
     -2151.440       -1676.444
  22474015.850    22474016.0004   22474019.1694  118101755.835 7  92027366.61745
      2172.794        1693.084
  22078986.942    22078986.2994   22078989.1644  116025855.883 7  90409790.06545
       638.270         497.356
  23879343.583    23879343.1044   23879346.2454  125486767.649 7  97781914.59744
     -4300.747       -3351.226
  22329225.076    22329224.8654   22329226.3974  117340868.344 7  91434463.90945
      -139.871        -108.990
  23486444.588    23486444.5784   23486447.2904  123422090.778 6  96173078.58443
     -3789.302       -2952.708
  22050379.425    22050379.5404   22050381.5454  115875508.274 7  90292622.76946
     -2982.648       -2324.140
  20948793.372    20948792.7354   20948795.8624  110086641.165 8  85781817.12246
      -369.697        -288.085
  24390306.556    24390306.2294   24390307.5394  128171939.784 7  99874259.29944
      3140.530        2447.165
  23080762.199    23080762.4584   23080765.1304  121290235.575 7  94511895.59244
      2014.616        1569.829
  23282664.128    23282664.2634   23282666.1154  122351249.441 7  95338655.35645
      1881.548        1466.157
  23475591.492    23475590.9744   23475594.5954  123365044.551 7  96128626.72344
     -3815.596       -2973.192
 08  4 24 10  9 30.0000000  0 12G 1G 4G 5G11G12G14G17G20G23G30G31G32
  22007678.509    22007677.8574   22007681.2324  115651123.461 7  90117778.46545
     -2169.745       -1690.709
  22461649.823    22461649.7664   22461653.0064  118036770.984 7  91976729.09145
      2159.842        1682.998
  22075401.517    22075401.1714   22075404.0374  116007016.391 7  90395109.94645
       617.990         481.554
  23903914.028    23903913.6274   23903916.3644  125615886.822 7  97882526.91444
     -4306.801       -3355.946
  22330082.128    22330082.1874   22330083.4874  117345372.222 8  91437973.44245
      -160.061        -124.719
  23508111.381    23508111.1064   23508113.6934  123535948.201 6  96261798.64643
     -3800.908       -2961.748
  22067453.919    22067453.9334   22067456.0734  115965235.306 7  90362540.07146
     -2998.780       -2336.711
  20950963.430    20950962.6744   20950965.7484  110098044.190 8  85790702.69946
      -390.212        -304.060
  24372391.045    24372390.7894   24372392.4764  128077794.699 7  99800899.57344
      3136.083        2443.696
  23069306.089    23069306.0354   23069308.6924  121230033.093 7  94464984.60544
      1999.215        1557.827
  23271962.667    23271962.9604   23271964.4404  122295011.507 7  95294833.54945
      1867.999        1455.582
  23497399.377    23497399.0134   23497402.5144  123479645.224 7  96217925.91844
     -3824.022       -2979.744
 08  4 24 10 10  0.0000000  0 12G 1G 4G 5G11G12G14G17G20G23G30G31G32
  22020120.524    22020120.0204   22020123.2834  115716506.638 7  90168726.35045
     -2189.107       -1705.789
  22449360.487    22449360.5374   22449363.5214  117972189.896 7  91926406.17845
      2145.598        1671.898
  22071935.055    22071934.0934   22071937.0474  115988797.189 7  90380913.16345
       596.606         464.884
  23928520.549    23928520.4594   23928523.1104  125745196.442 6  97983287.66144
     -4313.791       -3361.396
  22331056.382    22331056.5344   22331057.8044  117350492.389 7  91441963.18646
      -181.311        -141.279
  23529846.048    23529845.2074   23529847.8364  123650163.186 6  96350797.26243
     -3813.471       -2971.528
  22084622.318    22084622.2094   22084624.3504  116055455.980 7  90432841.95546
     -3015.892       -2350.038
  20953252.646    20953252.0384   20953255.0604  110110075.211 8  85800077.57346
      -411.847        -320.915
  24354503.709    24354503.1294   24354504.4814  127983795.488 7  99727653.49744
      3130.492        2439.342
  23057940.089    23057939.9084   23057942.8294  121170304.152 7  94418442.58244
      1982.725        1544.981
  23261340.731    23261340.9024   23261342.6234  122239192.835 7  95251338.56845
      1853.313        1444.147
  23519256.926    23519256.2544   23519260.3124  123594508.061 7  96307429.29344
     -3833.462       -2987.122
 08  4 24 10 10 30.0000000  0 12G 1G 4G 5G11G12G14G17G20G23G30G31G32
  22032671.531    22032671.0034   22032674.1784  115782462.972 7  90220120.90145
     -2208.050       -1720.554
  22437151.578    22437151.4024   22437154.2024  117908029.686 7  91876411.23845
      2131.675        1661.052
  22068588.663    22068588.0564   22068591.1384  115971214.411 7  90367212.29845
       575.508         448.450
  23953166.129    23953165.7354   23953168.5774  125874709.117 7  98084206.67944
     -4320.425       -3366.568
  22332150.910    22332151.0334   22332152.3684  117356243.876 8  91446444.86646
      -202.198        -157.560
  23551650.663    23551650.2674   23551652.7804  123764748.008 6  96440084.15843
     -3825.577       -2980.963
  22101886.941    22101887.0094   22101889.1844  116146182.842 7  90503538.12846
     -3032.635       -2363.091
  20955664.384    20955663.7474   20955666.7974  110122749.192 8  85809953.45246
      -433.158        -337.527
  24336647.099    24336646.8174   24336648.1914  127889959.569 7  99654534.67144
      3125.183        2435.203
  23046667.175    23046667.4314   23046669.9374  121111066.387 7  94372283.33944
      1966.416        1532.267
  23250801.645    23250801.7954   23250803.4094  122183809.879 7  95208182.93345
      1838.796        1432.819
  23541166.804    23541166.5334   23541170.2314  123709645.720 7  96397146.86444
     -3842.429       -2994.084
 08  4 24 10 11  0.0000000  0 12G 1G 4G 5G11G12G14G17G20G23G30G31G32
  22045331.370    22045330.7094   22045333.7394  115848989.543 8  90271959.80845
     -2226.998       -1735.323
  22425022.586    22425022.2564   22425025.1404  117844291.274 7  91826744.96745
      2117.623        1650.095
  22065364.108    22065363.4334   22065366.3784  115954268.211 7  90354007.48745
       554.318         431.939
  23977849.661    23977849.1874   23977852.1194  126004420.962 7  98185280.79844
     -4326.948       -3371.641
  22333365.333    22333365.4154   22333366.8664  117362625.788 7  91451417.79146
      -223.172        -173.903
  23573525.019    23573524.8934   23573527.2254  123879698.392 6  96529655.90043
     -3837.703       -2990.420
  22119247.580    22119247.3774   22119249.6074  116237412.782 7  90574626.33146
     -3049.303       -2376.077
  20958198.254    20958197.5974   20958200.5754  110136064.778 8  85820329.28246
      -454.476        -354.136
  24318821.922    24318821.7174   24318822.6664  127796288.113 7  99581543.99544
      3119.691        2430.938
  23035488.290    23035488.5874   23035491.2924  121052321.382 7  94326508.01944
      1949.988        1519.470
  23240345.850    23240345.8414   23240347.7894  122128864.257 7  95165368.17745
      1824.303        1421.538
  23563128.555    23563127.7564   23563131.9344  123825054.361 7  96487075.47344
     -3851.391       -3001.073
 08  4 24 10 11 30.0000000  0 12G 1G 4G 5G11G12G14G17G20G23G30G31G32
  22058097.816    22058097.2664   22058100.1154  115916077.796 7  90324236.39645
     -2245.655       -1749.864
  22412972.622    22412972.6294   22412975.6004  117780970.011 7  91777403.73145
      2103.665        1639.215
  22062259.308    22062258.5684   22062261.5894  115937953.066 7  90341294.40345
       533.273         415.536
  24002569.101    24002568.5704   24002571.5284  126134322.622 7  98286502.85644
     -4333.219       -3376.530
  22334698.533    22334698.6254   22334700.1854  117369632.067 8  91456877.22046
      -243.987        -190.122
  23595467.406    23595466.7924   23595468.8194  123995004.462 6  96619504.71243
     -3849.480       -2999.595
  22136701.787    22136701.9084   22136704.0774  116329136.226 7  90646098.97145
     -3065.719       -2388.873
  20960853.133    20960852.3964   20960855.3574  110150015.235 8  85831199.70846
      -475.649        -370.630
  24301027.176    24301026.9714   24301028.3404  127702776.857 7  99508678.14644
      3114.338        2426.753
  23024402.570    23024402.5444   23024405.3854  120994064.620 7  94281113.18444
      1933.678        1506.765
  23229972.205    23229972.4324   23229974.1514  122074350.563 7  95122889.77745
      1809.917        1410.352
  23585139.861    23585139.4184   23585143.5794  123940725.126 6  96577208.35844
     -3860.094       -3007.855
 08  4 24 10 12  0.0000000  0 12G 1G 4G 5G11G12G14G17G20G23G30G31G32
  22070970.873    22070970.4154   22070973.2774  115983726.429 7  90376949.60945
     -2263.985       -1764.142
  22401002.931    22401002.9194   22401005.9274  117718068.833 7  91728389.83945
      2089.932        1628.516
  22059275.223    22059274.6004   22059277.3504  115922270.609 7  90329074.31745
       512.430         399.294
  24027324.207    24027324.1404   24027326.8104  126264412.131 7  98387871.26744
     -4339.161       -3381.168
  22336150.822    22336150.5894   22336152.3114  117377263.216 8  91462823.56646
      -264.527        -206.130
  23617476.562    23617475.9954   23617478.5184  124110664.115 6  96709629.10143
     -3860.853       -3008.452
  22154249.946    22154250.1064   22154252.1754  116421351.616 7  90717955.00045
     -3081.794       -2401.403
  20963628.872    20963628.1604   20963631.1644  110164601.246 8  85842565.32746
      -496.548        -386.930
  24283263.768    24283263.2764   24283264.7484  127609428.727 7  99435939.38644
      3109.131        2422.698
  23013410.244    23013409.9904   23013412.7624  120936298.956 7  94236101.00344
      1917.592        1494.222
  23219681.839    23219681.7694   23219683.5514  122020272.699 7  95080751.24245
      1795.590        1399.154
  23607201.194    23607200.4974   23607204.8884  124056655.598 6  96667543.32844
     -3868.368       -3014.317
 08  4 24 10 12 30.0000000  0 12G 1G 4G 5G11G12G14G17G20G23G30G31G32
  22083949.725    22083949.0514   22083951.9694  116051929.659 7  90430095.00045
     -2283.163       -1779.093
  22389112.788    22389112.7434   22389115.8124  117655585.627 7  91679701.63645
      2075.337        1617.145
  22056410.464    22056410.1154   22056412.8104  115907217.932 7  90317344.96745
       490.780         382.432
  24052113.681    24052113.6024   24052116.4034  126394682.616 6  98489380.64544
     -4345.787       -3386.327
  22337721.010    22337721.0384   22337722.6764  117385515.576 7  91469253.97446
      -285.900        -222.776
  23639551.565    23639551.3224   23639553.5794  124226670.029 6  96800023.26643
     -3873.110       -3018.005
  22171890.370    22171890.4504   22171892.5764  116514052.992 7  90790190.04046
     -3098.559       -2414.469
  20966524.663    20966523.9444   20966527.0054  110179818.544 8  85854422.88646
      -518.255        -403.834
  24265530.991    24265530.6164   24265531.8824  127516241.906 7  99363326.30044
      3103.057        2417.960
  23002510.836    23002510.9184   23002513.4534  120879022.937 7  94191470.36144
      1900.531        1480.927
  23209473.385    23209473.6714   23209475.6924  121966627.436 7  95038949.44145
      1780.397        1387.307
  23629310.310    23629309.7244   23629314.0024  124172841.156 6  96758077.84044
     -3877.535       -3021.467
 08  4 24 10 13  0.0000000  0 12G 1G 4G 5G11G12G14G17G20G23G30G31G32
  22097038.613    22097037.9904   22097040.9124  116120712.508 7  90483692.04445
     -2302.246       -1793.959
  22377307.585    22377307.5644   22377310.7484  117593549.179 7  91631361.55145
      2060.559        1605.634
  22053671.204    22053670.7444   22053673.7414  115892823.092 7  90306128.22244
       468.991         365.451
  24076942.940    24076942.3894   24076945.2464  126525158.454 7  98591049.99244
     -4352.433       -3391.506
  22339414.829    22339414.8754   22339416.4554  117394416.443 7  91476189.70546
      -307.348        -239.489
  23661697.573    23661697.0284   23661699.6134  124343046.768 6  96890706.42743
     -3885.210       -3027.442
  22189628.021    22189627.9224   22189629.9284  116607263.566 7  90862821.58946
     -3115.329       -2427.526
  20969545.862    20969545.1014   20969548.0244  110195694.124 8  85866793.37246
      -540.023        -420.816
  24247834.205    24247833.7914   24247835.1824  127423245.637 7  99290861.70444
      3096.831        2413.116
  22991710.116    22991710.3044   22991712.9684  120822265.858 7  94147244.07444
      1883.420        1467.589
  23199352.869    23199353.1544   23199354.8344  121913445.531 7  94997509.37145
      1765.154        1375.442
  23651472.526    23651472.2004   23651476.6054  124289303.815 6  96848827.74744
     -3886.484       -3028.376
 08  4 24 10 13 30.0000000  0 12G 1G 4G 5G11G12G14G17G20G23G30G31G32
  22110234.270    22110233.7934   22110236.6214  116190056.787 8  90537726.54645
     -2320.642       -1808.297
  22365584.874    22365584.8744   22365587.7844  117531945.667 7  91583358.88545
      2046.391        1594.585
  22051054.281    22051053.7854   22051056.7134  115879070.988 7  90295412.29445
       447.837         348.964
  24101807.288    24101806.7744   24101809.8014  126655820.770 7  98692864.67744
     -4358.342       -3396.103
  22341228.899    22341228.8364   22341230.6054  117403949.894 7  91483618.40845
      -328.156        -255.710
  23683910.308    23683909.9424   23683912.0914  124459775.166 6  96981663.63843
     -3896.622       -3036.330
  22207458.820    22207458.8594   22207461.1574  116700965.259 7  90935835.73146
     -3131.396       -2440.055
  20972688.900    20972688.0944   20972691.0014  110212212.044 8  85879664.77246
      -561.147        -437.268
  24230171.188    24230170.6804   24230172.5224  127330426.396 7  99218535.07044
      3091.143        2408.687
  22981005.771    22981006.0404   22981008.7534  120766014.018 7  94103411.48444
      1866.785        1454.631
  23189317.868    23189317.9744   23189320.0444  121860710.499 7  94956416.86145
      1750.519        1364.066
  23673684.259    23673683.5674   23673688.2454  124406026.640 6  96939780.60844
     -3894.979       -3035.083
 08  4 24 10 14  0.0000000  0 12G 1G 4G 5G11G12G14G17G20G23G30G31G32
  22123532.928    22123532.5554   22123535.5654  116259942.951 7  90592183.32645
     -2339.139       -1822.702
  22353941.646    22353941.4584   22353944.2434  117470759.089 7  91535681.01245
      2032.018        1583.396
  22048556.425    22048555.7654   22048558.9394  115865945.013 7  90285184.27945
       426.538         332.366
  24126703.280    24126702.7284   24126705.8774  126786649.444 7  98794809.02644
     -4364.251       -3400.733
  22343160.036    22343160.0574   22343161.5464  117414097.980 7  91491525.99045
      -349.070        -271.996
  23706185.597    23706185.4374   23706187.5244  124576834.128 6  97072878.42543
     -3907.958       -3045.156
  22225379.549    22225379.3314   22225381.6364  116795138.499 7  91009217.54745
     -3147.499       -2452.598
  20975950.833    20975950.0874   20975952.9204  110229353.418 8  85893021.76346
      -582.347        -453.780
  24212538.974    24212538.5624   24212540.0674  127237768.522 7  99146334.18344
      3085.277        2404.110
  22970394.842    22970394.8864   22970397.4794  120710252.460 7  94059960.92944
      1849.929        1441.500
  23179365.282    23179365.3824   23179367.3234  121808408.466 7  94915661.95945
      1735.598        1352.403
  23695941.175    23695940.4554   23695944.6074  124522989.974 6  97030921.55944
     -3903.244       -3041.489
 08  4 24 10 14 30.0000000  0 12G 1G 4G 5G11G12G14G17G20G23G30G31G32
  22136938.638    22136938.1224   22136941.1594  116330389.634 7  90647076.84345
     -2357.934       -1837.352
  22342381.605    22342381.8214   22342384.5724  117410012.494 7  91488345.99145
      2017.115        1571.781
  22046182.066    22046181.3874   22046184.3844  115853466.793 7  90275460.99745
       404.750         315.392
  24151634.292    24151633.7574   24151636.7054  126917662.325 6  98896896.93244
     -4370.584       -3405.653
  22345212.115    22345212.0674   22345213.7994  117424881.557 7  91499928.79946
      -370.517        -288.716
  23728527.520    23728527.2454   23728529.4134  124694241.473 6  97164364.60243
     -3919.803       -3054.385
  22243393.094    22243392.9654   22243395.0814  116889800.896 7  91082980.53946
     -3163.955       -2465.412
  20979335.325    20979334.5484   20979337.3124  110247139.133 8  85906880.81546
      -604.030        -470.674
  24194941.788    24194941.5584   24194942.6894  127145295.275 7  99074277.14344
      3078.921        2399.166
  22959881.448    22959881.4844   22959884.0924  120655003.835 7  94016910.09444
      1832.619        1428.010
  23169498.775    23169499.0454   23169501.0864  121756563.029 7  94875263.56945
      1720.169        1340.385
  23718247.321    23718246.7314   23718251.0464  124640209.478 6  97122261.31944
     -3911.971       -3048.284
 08  4 24 10 15  0.0000000  0 12G 1G 4G 5G11G12G14G17G20G23G30G31G32
  22150452.400    22150451.8974   22150454.9464  116401404.701 7  90702413.19345
     -2376.460       -1851.787
  22330908.026    22330907.9394   22330910.8544  117349717.699 7  91441363.03345
      2002.413        1560.325
  22043932.476    22043931.7884   22043935.4994  115841647.230 7  90266250.94445
       383.194         298.596
  24176601.379    24176600.9794   24176603.8124  127048866.857 6  98999134.18444
     -4376.437       -3410.202
  22347387.124    22347387.0264   22347388.4864  117436310.735 8  91508834.63745
      -391.563        -305.112
  23750937.018    23750937.0884   23750939.2724  124812004.217 6  97256127.79343
     -3931.143       -3063.213
  22261501.233    22261501.0034   22261503.2394  116984959.833 7  91157130.36145
     -3180.056       -2477.960
  20982844.452    20982843.6734   20982846.4824  110265579.040 8  85921249.44946
      -625.392        -487.311
  24177382.304    24177381.8364   24177383.3394  127053019.114 7  99002373.70244
      3072.749        2394.355
  22949467.960    22949467.6354   22949470.5564  120600280.356 7  93974268.43844
      1815.521        1414.694
  23159721.794    23159721.8564   23159723.7674  121705183.731 7  94835227.75845
      1704.979        1328.567
  23740603.862    23740603.3684   23740607.7764  124757694.058 6  97213807.59944
     -3920.395       -3054.854
 08  4 24 10 15 30.0000000  0 12G 1G 4G 5G11G12G14G17G20G23G30G31G32
  22164072.982    22164072.3814   22164075.5644  116472981.498 7  90758187.35045
     -2395.140       -1866.347
  22319519.843    22319519.8444   22319522.6444  117289871.557 7  91394729.63445
      1987.417        1548.634
  22041808.105    22041807.4234   22041810.6964  115830482.440 7  90257551.14744
       361.298         281.527
  24201603.824    24201603.6844   24201606.2254  127180255.134 7  99101514.53144
     -4382.606       -3415.022
  22349683.785    22349683.8224   22349685.3594  117448380.645 7  91518239.72845
      -412.929        -321.766
  23773412.699    23773412.2134   23773414.6114  124930114.472 6  97348161.79843
     -3942.658       -3072.208
  22279702.177    22279702.3824   22279704.4504  117080607.748 7  91231661.16046
     -3196.358       -2490.676
  20986476.982    20986476.2494   20986479.1094  110284667.699 8  85936123.52846
      -647.057        -504.203
  24159859.587    24159859.3964   24159860.5854  126960937.204 7  98930621.58244
      3066.250        2389.288
  22939153.515    22939153.8594   22939156.4864  120546079.416 7  93932033.97744
      1798.044        1401.069
  23150033.073    23150033.0444   23150034.6414  121654268.653 7  94795553.69345
      1689.529        1316.520
  23763009.756    23763009.2214   23763013.3094  124875436.495 6  97305555.00644
     -3928.960       -3061.529
 08  4 24 10 16  0.0000000  0 12G 1G 4G 5G11G12G14G17G20G23G30G31G32
  22177797.131    22177796.5874   22177799.7684  116545102.406 7  90814385.46245
     -2413.100       -1880.341
  22308214.449    22308214.3504   22308217.1444  117230460.970 7  91348435.66345
      1973.036        1537.432
  22039805.290    22039804.4184   22039808.0744  115819957.759 7  90249350.10045
       340.143         265.061
  24226638.021    24226637.6224   24226640.3894  127311809.276 6  99204024.19544
     -4387.891       -3419.128
  22352099.573    22352099.6374   22352101.1354  117461075.858 7  91528132.07145
      -433.634        -337.895
  23795951.295    23795950.5594   23795952.9124  125048553.724 6  97440452.09343
     -3953.440       -3080.597
  22297993.346    22297993.2674   22297995.2234  117176727.048 7  91306559.38645
     -3211.821       -2502.720
  20990229.888    20990229.3144   20990232.1504  110304389.828 8  85951491.41846
      -667.980        -520.506
  24142371.584    24142371.2064   24142372.2524  126869036.318 7  98859010.51644
      3060.309        2384.650
  22928936.612    22928936.6164   22928939.1944  120492388.093 7  93890196.63544
      1781.160        1387.908
  23140429.829    23140430.0124   23140431.9364  121603804.284 7  94756230.77545
      1674.599        1304.878
  23785461.183    23785460.3104   23785464.4574  124993418.593 6  97397489.08344
     -3936.735       -3067.586
 08  4 24 10 16 30.0000000  0 12G 1G 4G 5G11G12G14G17G20G23G30G31G32
  22191626.654    22191626.0874   22191629.2154  116617777.109 8  90871015.09645
     -2431.923       -1895.002
  22296994.352    22296994.2874   22296997.0634  117171499.484 7  91302491.65045
      1957.680        1525.463
  22037926.804    22037926.1664   22037929.3474  115810085.915 7  90241657.73045
       317.946         247.758
  24251704.980    24251704.8554   24251707.8224  127443538.372 6  99306670.16244
     -4394.077       -3423.945
  22354636.757    22354636.5444   22354638.2334  117474408.369 7  91538521.04945
      -455.266        -354.754
  23818553.358    23818552.9574   23818555.6544  125167330.903 6  97533005.72943
     -3965.073       -3089.667
  22316375.619    22316375.6094   22316377.6244  117273326.722 7  91381831.84445
     -3228.182       -2515.456
  20994105.586    20994104.8734   20994107.8004  110324756.575 8  85967361.64846
      -689.850        -537.546
  24124920.335    24124919.9914   24124921.3954  126777330.917 7  98787551.84544
      3053.308        2379.201
  22918819.078    22918819.0734   22918821.8254  120439220.283 7  93848767.20844
      1763.263        1373.977
  23130915.122    23130915.3724   23130916.9824  121553804.444 7  94717269.89845
      1658.701        1292.499
  23807959.459    23807958.8784   23807963.0414  125111649.613 6  97489617.13644
     -3945.363       -3074.306
 08  4 24 10 17  0.0000000  0 12G 1G 4G 5G11G12G14G17G20G23G30G31G32
  22205563.256    22205562.6044   22205565.8414  116691014.181 7  90928082.91045
     -2450.053       -1909.132
  22285862.048    22285862.2084   22285865.0424  117112999.865 7  91256907.53845
      1942.781        1513.853
  22036174.502    22036173.8854   22036177.1824  115800878.480 7  90234483.11844
       296.363         230.933
  24276807.599    24276806.8754   24276809.8154  127575450.383 6  99409458.66644
     -4399.566       -3428.229
  22357296.726    22357296.7434   22357298.5064  117488388.533 7  91549414.74045
      -476.299        -371.140
  23841221.617    23841221.2824   23841223.7574  125286453.363 6  97625828.40343
     -3975.950       -3098.145
  22334850.974    22334850.9624   22334852.7354  117370414.356 7  91457484.45845
     -3243.859       -2527.681
  20998105.948    20998105.2324   20998107.9994  110345778.343 8  85983742.33846
      -711.115        -554.112
  24107508.668    24107508.6594   24107510.0004  126685833.710 7  98716255.38444
      3046.955        2374.255
  22908803.582    22908803.7094   22908806.3224  120386588.884 7  93807755.71344
      1745.932        1360.467
  23121491.215    23121491.3834   23121493.2764  121504281.793 7  94678680.90145
      1643.315        1280.502
  23830507.489    23830506.6014   23830511.2074  125230137.880 6  97581945.65644
     -3953.337       -3080.519
 08  4 24 10 17 30.0000000  0 12G 1G 4G 5G11G12G14G17G20G23G30G31G32
  22219602.659    22219602.1634   22219605.6124  116764792.474 7  90985572.44745
     -2468.343       -1923.382
  22274814.542    22274814.4744   22274817.6194  117054944.941 7  91211669.94645
      1927.629        1502.048
  22034545.487    22034544.8924   22034547.8964  115792317.081 7  90227811.90144
       274.556         213.941
  24301939.877    24301939.4884   24301942.6384  127707523.691 6  99512372.86744
     -4405.151       -3432.581
  22360076.733    22360076.8634   22360078.4384  117502997.194 7  91560798.11545
      -497.475        -387.647
  23863951.209    23863950.8864   23863953.6314  125405899.070 6  97718902.94643
     -3986.929       -3106.700
  22353414.873    22353414.9014   22353416.6764  117467968.010 7  91533500.03445
     -3259.494       -2539.769
  21002227.243    21002226.4994   21002229.2774  110367435.476 8  86000617.98346
      -732.576        -570.842
  24090134.195    24090133.3094   24090134.8034  126594527.934 7  98645108.04344
      3040.238        2369.020
  22898887.148    22898887.1684   22898889.6954  120334477.239 7  93767149.26944
      1728.338        1346.759
  23112154.938    23112155.1374   23112156.7114  121455219.105 7  94640450.28545
      1627.663        1268.310
  23853099.450    23853099.0814   23853103.0064  125348861.757 6  97674457.80444
     -3961.395       -3086.808
 08  4 24 10 18  0.0000000  0 12G 1G 4G 5G11G12G14G17G20G23G30G31G32
  22233747.011    22233746.5544   22233749.9214  116839122.073 7  91043491.58145
     -2486.908       -1937.849
  22263854.193    22263854.3164   22263857.4014  116997348.825 7  91166789.86745
      1912.122        1489.962
  22033041.521    22033040.9494   22033044.1124  115784414.806 7  90221654.29745
       252.306         196.598
  24327104.846    24327104.7894   24327107.7964  127839767.755 6  99615420.13943
     -4411.035       -3437.173
  22362978.590    22362978.5904   22362980.3814  117518246.574 7  91572680.77645
      -519.077        -404.479
  23886744.754    23886744.2294   23886746.3624  125525677.283 6  97812236.62343
     -3998.204       -3115.488
  22372069.690    22372069.6064   22372071.7704  117565997.805 7  91609886.50945
     -3275.787       -2552.591
  21006471.635    21006470.9064   21006473.8334  110389739.903 8  86017997.98546
      -754.353        -587.800
  24072798.151    24072797.8554   24072799.4954  126503428.407 7  98574121.45544
      3033.059        2363.417
  22889072.187    22889072.1904   22889074.9144  120282899.893 7  93726959.15444
      1710.230        1332.643
  23102908.721    23102908.9994   23102910.7714  121406630.555 7  94602589.12945
      1611.614        1255.803
  23875738.546    23875737.8334   23875742.0034  125467830.891 6  97767161.11444
     -3969.778       -3093.331
 08  4 24 10 18 30.0000000  0 12G 1G 4G 5G11G12G14G17G20G23G30G31G32
  22247996.623    22247995.8874   22247999.4034  116914003.191 7  91101840.48545
     -2505.228       -1952.131
  22252982.096    22252982.1374   22252985.2274  116940215.584 7  91122270.46445
      1896.714        1477.959
  22031664.230    22031663.5784   22031666.5344  115777174.590 7  90216012.58644
       230.307         179.454
  24352302.688    24352302.4174   24352305.4754  127972181.903 6  99718599.91543
     -4416.604       -3441.507
  22366002.727    22366002.5904   22366004.3544  117534138.621 7  91585064.20845
      -540.437        -421.123
  23909600.943    23909600.2274   23909602.9904  125645787.283 6  97905828.80043
     -4009.167       -3124.027
  22390814.621    22390814.5504   22390816.8004  117664503.677 7  91686644.33345
     -3291.423       -2564.717
  21010839.394    21010838.7774   21010841.5484  110412693.902 8  86035884.40346
      -775.966        -604.671
  24055502.490    24055502.1234   24055503.5484  126412539.435 7  98503298.97844
      3026.092        2357.986
  22879359.791    22879359.8544   22879362.4274  120231860.827 7  93687188.44044
      1692.331        1318.706
  23093754.131    23093753.9704   23093755.6084  121358520.104 7  94565100.47245
      1595.667        1243.378
  23898423.824    23898423.4014   23898427.9684  125587044.582 6  97860054.80344
     -3977.876       -3099.636
 08  4 24 10 19  0.0000000  0 12G 1G 4G 5G11G12G14G17G20G23G30G31G32
  22262350.082    22262349.5614   22262353.2194  116989432.792 7  91160616.78645
     -2523.096       -1966.050
  22242198.464    22242198.5004   22242201.2994  116883546.149 7  91078112.47045
      1881.540        1466.129
  22030412.166    22030411.4174   22030414.5534  115770596.273 7  90210886.62445
       208.607         162.555
  24377531.883    24377531.3504   24377535.1844  128104762.469 6  99821909.36543
     -4421.749       -3445.516
  22369149.159    22369148.9534   22369150.6814  117550672.286 7  91597947.60645
      -561.477        -437.513
  23932519.379    23932519.0554   23932521.0894  125766225.168 6  97999676.48143
     -4019.679       -3132.226
  22409649.808    22409649.7354   22409651.9824  117763482.511 7  91763770.78645
     -3306.873       -2576.820
  21015330.683    21015329.9634   21015332.6674  110436295.351 8  86054275.21746
      -797.133        -621.136
  24038247.110    24038246.7054   24038248.3504  126321862.449 7  98432641.65744
      3019.359        2352.742
  22869750.180    22869750.4304   22869752.9084  120181361.678 7  93647838.45544
      1674.604        1304.893
  23084689.904    23084689.8414   23084691.8624  121310889.092 7  94527985.50945
      1580.041        1231.200
  23921155.946    23921155.0444   23921159.4264  125706499.828 6  97953136.75044
     -3985.554       -3105.630
 08  4 24 10 19 30.0000000  0 12G 1G 4G 5G11G12G14G17G20G23G30G31G32
  22276805.847    22276805.4384   22276808.8964  117065398.099 7  91219810.47945
     -2541.162       -1980.124
  22231501.182    22231501.1814   22231504.2974  116827332.098 7  91034309.32045
      1866.098        1454.107
  22029284.763    22029283.8944   22029286.7734  115764670.110 7  90206268.83245
       186.594         145.393
  24402790.076    24402790.1894   24402793.6254  128237496.526 6  99925338.43643
     -4427.085       -3449.670
  22372415.606    22372415.4024   22372416.9414  117567837.031 8  91611322.74145
      -582.764        -454.099
  23955497.879    23955497.7234   23955499.9164  125886977.056 6  98093768.86943
     -4030.360       -3140.538
  22428571.960    22428571.9744   22428573.8794  117862920.521 7  91841255.29845
     -3322.267       -2588.771
  21019942.956    21019942.1984   21019944.9684  110460533.642 8  86073162.32946
      -818.614        -637.868
  24021030.726    24021030.5944   24021031.8024  126231389.448 7  98362143.31544
      3012.284        2347.251
  22860241.695    22860241.8444   22860244.3114  120131394.211 7  93608902.77044
      1656.606        1290.865
  23075715.437    23075715.5004   23075717.2504  121263728.473 7  94491236.95245
      1564.049        1218.742
  23943931.130    23943930.5444   23943934.7084  125826183.622 6  98046396.80844
     -3993.323       -3111.677
 08  4 24 10 20  0.0000000  0 12G 1G 4G 5G11G12G14G17G20G23G30G31G32
  22291365.399    22291364.7434   22291368.1894  117141906.800 7  91279427.38845
     -2559.471       -1994.400
  22220893.017    22220892.9674   22220895.9204  116771585.581 7  90990870.49145
      1850.263        1441.765
  22028282.895    22028282.0414   22028285.2654  115759407.044 7  90202167.75745
       164.304         128.030
  24428079.561    24428079.2854   24428082.4744  128370391.361 6 100028892.77543
     -4432.661       -3454.013
  22375803.863    22375803.7244   22375805.4274  117585642.973 7  91625197.49645
      -604.346        -470.924
  23978537.255    23978536.7594   23978539.1254  126008050.191 6  98188111.56143
     -4041.239       -3149.022
  22447582.919    22447583.1444   22447585.3594  117962823.307 7  91919101.16145
     -3338.044       -2601.094
  21024678.333    21024677.5784   21024680.3644  110485417.878 8  86092552.52846
      -840.387        -654.848
  24003855.549    24003854.9704   24003856.2624  126141132.394 7  98291813.19144
      3004.836        2341.426
  22850836.590    22850836.7934   22850839.4624  120081970.784 7  93570391.02744
      1638.212        1276.522
  23066832.901    23066833.1134   23066834.6724  121217050.365 7  94454864.36145
      1547.768        1206.053
  23966751.050    23966750.4134   23966754.5184  125946103.498 7  98139840.80344
     -4001.345       -3117.933
 08  4 24 10 20 30.0000000  0 12G 1G 4G 5G11G12G14G17G20G23G30G31G32
  22306030.987    22306030.3844   22306033.6074  117218975.347 7  91339480.89445
     -2578.104       -2008.911
  22210377.320    22210377.2134   22210380.5314  116716325.791 7  90947810.90245
      1834.006        1429.097
  22027411.076    22027410.4984   22027413.3074  115754825.251 7  90198597.54645
       141.500         110.258
  24453402.101    24453401.5104   24453404.8844  128503462.121 6 100132584.26043
     -4438.470       -3458.546
  22379317.574    22379317.5094   22379318.8574  117604107.165 7  91639585.16645
      -626.290        -488.013
  24001640.772    24001640.1734   24001642.7484  126129459.250 6  98282716.00643
     -4052.392       -3157.710
  22466685.769    22466685.6014   22466687.9364  118063209.065 7  91997324.08045
     -3354.043       -2613.550
  21029539.926    21029539.1414   21029541.9244  110510965.810 8  86112459.98646
      -862.528        -672.105
  23986725.048    23986724.7004   23986725.7284  126051111.603 7  98221667.16644
      2996.846        2335.201
  22841538.673    22841539.2504   22841541.6824  120033110.956 7  93532318.43744
      1619.419        1261.887
  23058045.734    23058045.9344   23058047.7594  121170874.261 7  94418882.89545
      1530.963        1192.960
  23989618.949    23989618.2594   23989622.3604  126066274.813 6  98233480.76344
     -4009.672       -3124.415
 08  4 24 10 21  0.0000000  0 12G 1G 4G 5G11G12G14G17G20G23G30G31G32
  22320798.431    22320797.6464   22320800.7574  117296577.998 7  91399950.59545
     -2595.495       -2022.465
  22199950.313    22199950.4544   22199953.6624  116661532.004 7  90905114.46345
      1818.773        1417.228
  22026664.616    22026663.9074   22026667.1814  115750902.510 7  90195540.84945
       119.909          93.432
  24478753.580    24478752.8874   24478756.5324  128636683.160 6 100236392.73443
     -4443.083       -3462.135
  22382952.010    22382951.9404   22382953.4684  117623206.663 7  91654467.90945
      -647.110        -504.239
  24024803.615    24024802.3894   24024805.5894  126251178.324 6  98377562.02143
     -4062.268       -3165.415
  22485875.074    22485875.0184   22485877.3284  118164050.282 7  92075901.67345
     -3368.774       -2625.024
  21034523.370    21034522.5234   21034525.3024  110537153.818 8  86132866.30946
      -883.498        -688.440
  23969635.630    23969635.4364   23969636.5734  125961306.800 7  98151689.44844
      2989.993        2329.870
  22832344.672    22832344.7564   22832347.4014  119984793.906 7  93494668.79944
      1601.619        1248.020
  23049350.412    23049350.5584   23049352.4194  121125179.389 7  94383276.46745
      1515.265        1180.722
  24012529.588    24012529.2874   24012533.1304  126186671.985 6  98327296.71444
     -4016.839       -3130.002
 08  4 24 10 21 30.0000000  0 12G 1G 4G 5G11G12G14G17G20G23G30G31G32
  22335666.937    22335666.4644   22335669.7374  117374713.422 7  91460835.23545
     -2613.579       -2036.568
  22189612.742    22189612.8284   22189615.6924  116607207.410 7  90862783.62645
      1802.806        1404.787
  22026044.198    22026043.4814   22026046.4544  115747640.853 7  90192999.31645
        97.523          75.983
  24504133.095    24504132.7624   24504136.1014  128770053.201 6 100340317.29043
     -4448.296       -3466.197
  22386707.471    22386707.6294   22386708.9364  117642942.513 7  91669846.49145
      -668.639        -521.018
  24048024.267    24048023.8424   24048026.2884  126373205.549 6  98472648.12543
     -4072.860       -3173.645
  22505151.065    22505150.9204   22505153.3534  118265345.674 7  92154833.04845
     -3384.234       -2637.064
  21039628.644    21039627.9344   21039630.7734  110563982.824 8  86153771.98446
      -905.137        -705.302
  23952588.317    23952587.7604   23952589.0904  125871721.664 7  98081882.89644
      2982.318        2323.883
  22823254.031    22823254.0644   22823256.9324  119937023.421 7  93457445.05944
      1583.056        1233.544
  23040747.369    23040747.4084   23040749.2744  121079968.852 7  94348047.44545
      1498.774        1167.877
  24035483.334    24035482.9174   24035486.9264  126307293.877 6  98421287.78544
     -4024.585       -3136.056
 08  4 24 10 22  0.0000000  0 12G 1G 4G 5G11G12G14G17G20G23G30G31G32
  22350639.372    22350638.8824   22350642.0124  117453393.888 7  91522144.69045
     -2631.620       -2050.614
  22179367.461    22179367.3934   22179370.5514  116553367.675 7  90820830.60145
      1786.681        1392.218
  22025552.017    22025551.1904   22025554.0154  115745054.642 7  90190984.09245
        75.047          58.477
  24529543.312    24529542.4334   24529545.8964  128903583.731 6 100444367.00143
     -4453.543       -3470.299
  22390586.798    22390586.8704   22390588.3364  117663328.325 7  91685731.53945
      -690.277        -537.884
  24071306.117    24071305.3004   24071308.4494  126495551.961 6  98567982.98243
     -4083.370       -3181.844
  22524515.332    22524515.2224   22524517.6954  118367107.251 7  92234127.96545
     -3399.671       -2649.097
  21044858.534    21044857.8194   21044860.6074  110591465.733 8  86175187.20746
      -926.847        -722.211
  23935585.321    23935585.0984   23935586.4614  125782372.074 7  98012259.90744
      2974.498        2317.781
  22814270.569    22814270.5614   22814273.4314  119889815.461 7  93420659.64944
      1564.299        1218.929
  23032238.915    23032239.1234   23032241.3084  121035257.753 7  94313207.32445
      1482.098        1154.886
  24058482.025    24058481.3704   24058485.5204  126428151.601 6  98515462.53644
     -4032.392       -3142.121
 08  4 24 10 22 30.0000000  0 12G 1G 4G 5G11G12G14G17G20G23G30G31G32
  22365715.249    22365714.7354   22365717.8784  117532617.566 7  91583877.39845
     -2649.766       -2064.745
  22169214.935    22169214.6764   22169217.8434  116500015.565 7  90779257.56245
      1770.321        1379.467
  22025188.816    22025187.8944   22025190.7024  115743145.256 7  90189496.28145
        52.370          40.806
  24554983.166    24554982.3934   24554986.1024  129037272.581 6 100548540.11343
     -4458.860       -3474.426
  22394590.212    22394590.1554   22394591.4504  117684364.598 7  91702123.46645
      -712.000        -554.800
  24094647.893    24094647.4834   24094650.2424  126618214.969 6  98663564.48643
     -4093.948       -3190.088
  22543968.032    22543967.9374   22543970.3864  118469332.253 7  92313783.91845
     -3415.159       -2661.163
  21050212.700    21050212.1704   21050214.9974  110619602.733 8  86197112.09646
      -948.765        -739.295
  23918628.422    23918628.0054   23918628.9694  125693261.123 7  97942822.82644
      2966.403        2311.480
  22805394.772    22805394.7014   22805397.6694  119843172.670 7  93384314.65144
      1545.410        1204.217
  23023826.640    23023826.8894   23023828.6534  120991050.030 7  94278759.84445
      1465.253        1141.760
  24081525.043    24081524.8494   24081528.5564  126549243.811 6  98609820.13244
     -4040.266       -3148.262
 08  4 24 10 23  0.0000000  0 12G 1G 4G 5G11G12G14G17G20G23G30G31G32
  22380892.399    22380891.8684   22380895.0154  117612373.492 7  91646024.80745
     -2667.508       -2078.570
  22159153.599    22159153.6494   22159156.7164  116447143.780 7  90738058.78045
      1754.244        1366.943
  22024952.092    22024951.7674   22024954.6224  115741904.486 7  90188529.45145
        30.056          23.422
  24580451.172    24580450.9734   24580454.2824  129171108.220 6 100652827.56343
     -4463.739       -3478.242
  22398714.893    22398715.1224   22398716.5774  117706042.201 7  91719015.11345
      -733.446        -571.515
  24118047.465    24118047.3994   24118050.1954  126741183.121 6  98759383.77643
     -4104.151       -3198.041
  22563506.486    22563506.5674   22563509.1184  118572009.367 7  92393792.07545
     -3430.209       -2672.889
  21055689.963    21055689.1014   21055691.9294  110648384.824 8  86219539.73946
      -970.260        -756.044
  23901715.186    23901714.7134   23901715.9494  125604382.441 7  97873566.76744
      2958.570        2305.377
  22796625.148    22796625.1794   22796628.0504  119797088.365 7  93348404.83144
      1526.674        1189.612
  23015508.466    23015508.6124   23015510.5734  120947337.591 7  94244698.26845
      1448.640        1128.811
  24104610.903    24104610.2634   24104614.0494  126670559.268 6  98704351.69844
     -4047.706       -3154.060
 08  4 24 10 23 30.0000000  0 12G 1G 4G 5G11G12G14G17G20G23G30G31G32
  22396170.702    22396170.1234   22396173.4234  117692662.276 8  91708587.55245
     -2684.975       -2092.187
  22149184.853    22149184.8084   22149187.8384  116394756.947 7  90697237.86945
      1738.263        1354.500
  22024844.094    22024843.3954   22024846.5334  115741335.410 7  90188086.00945
         7.930           6.187
  24605947.080    24605946.8824   24605950.2514  129305090.786 6 100757229.53443
     -4468.331       -3481.798
  22402962.468    22402962.3934   22402964.1774  117728363.356 7  91736408.23245
      -754.615        -588.003
  24141506.348    24141505.5234   24141508.5574  126864455.793 6  98855440.33043
     -4113.961       -3205.681
  22583131.404    22583131.4004   22583133.9434  118675138.268 7  92474152.27245
     -3444.971       -2684.387
  21061289.970    21061289.2794   21061291.9814  110677813.858 8  86242471.45946
      -991.567        -772.627
  23884847.207    23884846.9644   23884848.1434  125515741.007 7  97804495.61844
      2950.896        2299.402
  22787962.951    22787962.9954   22787965.6864  119751567.389 7  93312933.97544
      1508.133        1175.171
  23007285.329    23007285.2514   23007287.0524  120904124.732 7  94211026.01945
      1432.199        1115.999
  24127738.687    24127737.9554   24127742.0264  126792097.596 6  98799056.88344
     -4054.752       -3159.526
 08  4 24 10 24  0.0000000  0 12G 1G 4G 5G11G12G14G17G20G23G30G31G32
  22411550.575    22411549.9364   22411553.2074  117773483.528 7  91771565.20845
     -2702.948       -2106.195
  22139309.021    22139309.0764   22139311.7814  116342859.027 7  90656797.94745
      1721.713        1341.594
  22024864.077    22024863.3054   22024866.5684  115741440.628 7  90188168.00745
       -14.825         -11.555
  24631471.143    24631471.0404   24631474.4694  129439219.543 6 100861745.36843
     -4473.399       -3485.764
  22407332.761    22407332.8974   22407334.4774  117751329.728 7  91754304.11545
      -776.338        -604.941
  24165021.679    24165021.5094   24165024.0434  126988031.779 6  98951733.22643
     -4124.285       -3213.720
  22602841.976    22602841.9764   22602844.4414  118778718.697 7  92554864.45645
     -3460.206       -2696.272
  21067013.347    21067012.7174   21067015.5244  110707890.961 8  86265908.17246
     -1013.397        -789.660
  23868025.290    23868024.8404   23868025.9884  125427341.222 7  97735612.76944
      2942.569        2292.908
  22779408.462    22779408.6354   22779410.9104  119706613.816 7  93277905.23144
      1488.936        1160.205
  22999157.937    22999157.9194   22999160.1244  120861416.181 7  94177746.80345
      1415.184        1102.741
  24150908.803    24150908.3554   24150912.7794  126913858.329 6  98893935.18244
     -4062.478       -3165.574
 08  4 24 10 24 30.0000000  0 12G 1G 4G 5G11G12G14G17G20G23G30G31G32
  22427031.137    22427030.7384   22427034.0814  117854835.732 7  91834956.54245
     -2720.571       -2119.932
  22129526.489    22129526.6624   22129529.3944  116291452.747 7  90616741.11745
      1705.335        1328.833
  22025012.933    22025012.0834   22025014.9304  115742221.578 7  90188776.55645
       -37.287         -29.065
  24657023.307    24657022.4994   24657025.8944  129573493.031 6 100966373.96843
     -4478.162       -3489.479
  22411826.203    22411826.3554   22411827.7704  117774941.825 8  91772703.14145
      -797.806        -621.666
  24188594.726    24188594.4064   24188597.6164  127111909.426 6  99048261.23243
     -4134.225       -3221.478
  22622638.178    22622638.0534   22622640.5874  118882748.493 7  92635926.66145
     -3475.108       -2707.871
  21072860.162    21072859.5464   21072862.3584  110738616.472 8  86289850.17546
     -1034.979        -806.478
  23851250.006    23851249.4914   23851250.4364  125339186.167 7  97666920.56944
      2934.400        2286.535
  22770962.514    22770962.6704   22770965.1384  119662230.652 7  93243320.96644
      1469.953        1145.416
  22991126.977    22991127.2064   22991129.0564  120819213.896 7  94144861.97245
      1398.295        1089.565
  24174121.668    24174120.8744   24174124.9744  127035840.648 6  98988986.37644
     -4069.715       -3171.214
 08  4 24 10 25  0.0000000  0 12G 1G 4G 5G11G12G14G17G20G23G30G31G32
  22442612.144    22442611.7604   22442614.9684  117936713.919 7  91898757.69745
     -2737.960       -2133.466
  22119838.029    22119837.8044   22119840.5064  116240537.310 7  90577066.73845
      1688.994        1316.101
  22025289.496    22025288.7454   22025291.6834  115743675.981 7  90189909.86945
       -59.670         -46.497
  24682600.649    24682600.3564   24682603.5694  129707905.605 6 101071110.99343
     -4482.677       -3492.982
  22416441.846    22416441.9204   22416443.3144  117799196.524 7  91791602.90745
      -819.146        -638.290
  24212224.407    24212223.9854   24212226.7494  127236082.532 6  99145019.52243
     -4143.926       -3229.049
  22642518.829    22642518.8684   22642521.2464  118987222.473 7  92717334.93745
     -3489.799       -2719.327
  21078829.861    21078829.1394   21078831.9874  110769987.025 8  86314294.72946
     -1056.379        -823.159
  23834521.049    23834520.6284   23834521.7094  125251275.703 7  97598418.93044
      2926.262        2280.206
  22762625.142    22762625.1794   22762627.8934  119618417.361 7  93209180.76344
      1450.974        1130.628
  22983192.282    22983192.2904   22983194.4644  120777517.050 7  94112370.99945
      1381.488        1076.486
  24197374.878    24197374.2894   24197378.9094  127158038.720 6  99084205.62144
     -4076.777       -3176.708
 08  4 24 10 25 30.0000000  0 12G 1G 4G 5G11G12G14G17G20G23G30G31G32
  22458292.725    22458292.2254   22458295.3894  118019114.489 7  91962965.85845
     -2755.268       -2146.968
  22110242.521    22110242.4194   22110245.2734  116190113.068 7  90537775.10845
      1672.723        1303.415
  22025694.042    22025693.5724   22025696.6804  115745802.817 7  90191567.14245
       -81.981         -63.884
  24708204.178    24708204.3344   24708207.2154  129842453.459 6 101175953.40643
     -4487.040       -3496.402
  22421179.499    22421179.3274   22421180.9834  117824092.121 8  91811002.05245
      -840.422        -654.880
  24235909.201    24235908.7524   24235911.6014  127360547.061 6  99242004.81943
     -4153.545       -3236.525
  22662483.471    22662483.4754   22662485.7214  119092136.394 7  92799086.08845
     -3504.292       -2730.622
  21084921.944    21084921.1494   21084923.9904  110802000.689 8  86339240.44146
     -1077.718        -839.783
  23817838.853    23817838.5984   23817839.8644  125163611.025 7  97530108.82444
      2918.102        2273.836
  22754396.611    22754396.4104   22754398.9424  119575174.371 7  93175484.94244
      1432.005        1115.843
  22975353.914    22975353.9584   22975355.9774  120736325.584 7  94080273.62045
      1364.719        1063.419
  24220669.404    24220668.5454   24220673.0544  127280447.731 7  99179588.68544
     -4083.731       -3182.125
 08  4 24 10 26  0.0000000  0 13G 1G 2G 4G 5G11G12G14G17G20G23G30G31
                                G32
  22474072.745    22474072.2934   22474075.5594  118102040.014 7  92027583.12545
     -2772.959       -2160.748
  24741824.343    24741823.3974   24741824.0954  130019153.760 6 101313652.35242
      3161.628        2463.610
  22100742.058    22100741.8754   22100744.3104  116140186.572 7  90498871.33045
      1655.837        1290.264
  22026228.111    22026227.3354   22026230.1584  115748607.497 7  90193752.60445
      -104.840         -81.693
  24733834.251    24733833.9294   24733836.7614  129977138.597 6 101280902.74543
     -4491.817       -3500.107
  22426039.508    22426039.5904   22426041.2804  117849633.089 8  91830904.08545
      -862.172        -671.821
  24259650.127    24259649.1014   24259651.9004  127485304.852 6  99339218.68543
     -4163.555       -3244.333
  22682531.873    22682531.9744   22682534.0704  119197491.621 7  92881181.03145
     -3519.240       -2742.270
  21091136.862    21091136.2764   21091139.1814  110834661.175 8  86364690.13046
     -1099.528        -856.777
  23801205.069    23801204.6024   23801205.6064  125076199.377 7  97461995.90544
      2909.443        2267.098
  22746277.202    22746277.4164   22746280.1334  119532508.504 7  93142238.82944
      1412.507        1100.656
  22967613.111    22967613.0994   22967614.9734  120695647.057 7  94048576.15645
      1347.342        1049.879
  24244003.650    24244003.2544   24244008.0684  127403071.919 6  99275139.81044
     -4091.128       -3187.889
 08  4 24 10 26 30.0000000  0 13G 1G 2G 4G 5G11G12G14G17G20G23G30G31
                                G32
  22489953.809    22489953.2744   22489956.3584  118185494.714 7  92092612.68145
     -2790.606       -2174.497
  24723789.527    24723789.4124   24723790.0224  129924381.199 6 101239803.61542
      3156.589        2459.678
  22091337.553    22091337.6074   22091340.1604  116090766.630 7  90460362.27345
      1638.847        1277.030
  22026891.844    22026891.3884   22026894.3734  115752097.011 7  90196471.72045
      -127.695         -99.500
  24759490.750    24759490.6584   24759493.9384  130111965.216 6 101385962.28643
     -4496.551       -3503.793
  22431023.789    22431023.7404   22431025.5334  117875825.439 8  91851313.69446
      -883.941        -688.782
  24283446.691    24283446.2284   24283449.4654  127610359.407 6  99436663.74243
     -4173.396       -3251.991
  22702665.342    22702665.4264   22702667.4134  119303292.995 7  92963623.65645
     -3534.104       -2753.844
  21097476.217    21097475.5404   21097478.4714  110867974.680 8  86390648.68846
     -1121.330        -873.758
  23784620.699    23784620.3364   23784621.7364  124989049.399 7  97394086.82644
      2900.628        2260.232
  22738269.785    22738269.8174   22738272.3934  119490428.788 7  93109449.46044
      1392.847        1085.341
  22959970.984    22959971.2944   22959973.1744  120655489.110 7  94017284.33845
      1329.902        1036.283
  24267380.341    24267379.3434   24267383.5594  127525915.883 6  99370862.76144
     -4098.299       -3193.475
 08  4 24 10 27  0.0000000  0 13G 1G 2G 4G 5G11G12G14G17G20G23G30G31
                                G32
  22505935.567    22505935.0354   22505938.2124  118269479.386 7  92158055.26945
     -2808.335       -2188.306
  24705784.443    24705783.6044   24705784.6164  129829764.480 6 101166076.32843
      3151.246        2455.522
  22082030.395    22082030.4514   22082033.0534  116041857.627 7  90422251.36845
      1621.707        1263.668
  22027686.834    22027686.3154   22027689.2784  115756274.710 7  90199727.05845
      -150.757        -117.465
  24785174.425    24785174.5004   24785177.6384  130246933.954 6 101491132.65643
     -4501.374       -3507.566
  22436132.591    22436132.5394   22436134.0724  117902671.668 8  91872232.82545
      -905.820        -705.832
  24307300.842    24307300.3774   24307302.8064  127735710.527 6  99534339.91743
     -4183.316       -3259.720
  22722883.748    22722883.5144   22722885.6364  119409540.310 7  93046413.77845
     -3549.035       -2765.483
  21103940.346    21103939.5044   21103942.5144  110901943.232 8  86417117.67146
     -1143.257        -890.848
  23768087.560    23768087.2294   23768088.3834  124902166.465 7  97326385.83644
      2891.575        2253.170
  22730374.808    22730375.0514   22730377.3374  119448939.993 7  93077120.54944
      1373.046        1069.909
  22952429.472    22952429.4664   22952431.2614  120615856.757 7  93986402.00145
      1312.220        1022.507
  24290798.076    24290797.5564   24290801.9034  127648978.221 6  99466755.46244
     -4105.760       -3199.276
 08  4 24 10 27 30.0000000  0 13G 1G 2G 4G 5G11G12G14G17G20G23G30G31
                                G32
  22522017.220    22522016.7244   22522019.9184  118353989.623 7  92223907.37245
     -2825.643       -2201.799
  24687809.183    24687808.3944   24687809.4884  129735303.577 6 101092470.46143
      3146.192        2451.563
  22072820.573    22072820.6794   22072823.2404  115993459.459 7  90384538.51845
      1604.839        1250.522
  22028612.395    22028611.7524   22028614.8654  115761138.977 7  90203517.41945
      -173.495        -135.187
  24810884.464    24810884.0064   24810887.4844  130382040.089 6 101596410.07943
     -4505.726       -3510.948
  22441365.290    22441365.1194   22441366.7394  117930169.185 8  91893659.46445
      -927.356        -722.615
  24331209.310    24331209.0484   24331212.2464  127861353.569 6  99632243.58843
     -4192.905       -3267.197
  22743185.789    22743185.7804   22743187.9464  119516229.014 7  93129547.79245
     -3563.518       -2776.768
  21110528.389    21110527.7084   21110530.6554  110936564.182 8  86444095.02046
     -1164.825        -907.665
  23751605.055    23751604.5794   23751606.0474  124815551.131 7  97258893.37744
      2882.777        2246.330
  22722591.913    22722592.1724   22722594.5544  119408042.089 7  93045252.06744
      1353.492        1054.667
  22944987.835    22944987.8314   22944989.3994  120576749.879 7  93955929.16345
      1294.873        1008.995
  24314256.919    24314256.2694   24314260.9454  127772253.958 6  99562813.83144
     -4112.593       -3204.598
 08  4 24 10 28  0.0000000  0 13G 1G 2G 4G 5G11G12G14G17G20G23G30G31
                                G32
  22538198.788    22538198.2594   22538201.4804  118439024.240 7  92290168.09645
     -2843.448       -2215.670
  24669863.702    24669863.2664   24669864.4694  129641001.694 6 101018988.50443
      3140.519        2447.148
  22063708.487    22063708.4224   22063711.1284  115945575.082 7  90347226.02645
      1587.334        1236.884
  22029668.942    22029668.2874   22029671.6734  115766691.150 7  90207843.78145
      -196.789        -153.339
  24836620.098    24836620.2754   24836623.3754  130517282.392 6 101701793.67743
     -4510.565       -3514.734
  22446721.596    22446721.8114   22446723.3994  117958318.651 7  91915594.12445
      -949.418        -739.805
  24355173.943    24355173.2714   24355176.0394  127987286.401 6  99730373.06943
     -4202.845       -3274.938
  22763571.637    22763571.6024   22763573.9394  119623357.082 7  93213024.11545
     -3578.496       -2788.436
  21117240.873    21117240.1224   21117242.9124  110971837.934 8  86471581.09346
     -1186.869        -924.832
  23735174.128    23735173.8544   23735175.0314  124729206.531 7  97191611.86344
      2873.424        2239.044
  22714922.438    22714922.6214   22714924.9124  119367738.226 7  93013846.47944
      1333.310        1038.945
  22937646.397    22937646.5884   22937648.1534  120538171.178 7  93925867.92345
      1276.882         994.965
  24337757.049    24337756.3984   24337760.4954  127895744.354 6  99659040.13344
     -4120.071       -3210.423
 08  4 24 10 28 30.0000000  0 12G 1G 2G 4G 5G12G14G17G20G23G30G31G32
  22554479.140    22554478.6844   22554481.8384  118524578.047 7  92356833.41545
     -2860.319       -2228.818
  24651948.812    24651948.6414   24651949.4034  129546858.065 6 100945629.82443
      3135.534        2443.279
  22054694.249    22054694.1254   22054696.7084  115898203.435 7  90310313.07445
      1570.597        1223.841
  22030856.096    22030855.3854   22030858.4884  115772928.713 7  90212704.20545
      -219.243        -170.844
  22452201.817    22452201.8364   22452203.5094  117987116.783 7  91938034.22745
      -970.649        -756.349
  24379191.794    24379191.8104   24379194.5504  128113503.103 6  99828723.69843
     -4211.844       -3281.945
  22784040.098    22784040.0954   22784042.3064  119730919.112 7  93296838.66845
     -3592.500       -2799.344
  21124076.684    21124075.9444   21124078.8144  111007760.520 8  86499572.72346
     -1208.142        -941.410
  23718795.153    23718794.5514   23718795.8754  124643132.950 7  97124541.55244
      2864.684        2232.214
  22707365.737    22707365.8954   22707368.1814  119328027.220 7  92982902.84744
      1313.889        1023.807
  22930405.114    22930405.3554   22930407.1134  120500119.260 7  93896217.08745
      1259.700         981.591
  24361295.467    24361294.9274   24361299.2584  128019443.381 6  99755429.22344
     -4126.661       -3215.588
 08  4 24 10 29  0.0000000  0 12G 1G 2G 4G 5G12G14G17G20G23G30G31G32
  22570856.464    22570855.8644   22570859.1224  118610640.713 7  92423895.23245
     -2877.392       -2242.121
  24634063.033    24634063.0194   24634063.7004  129452866.970 6 100872390.01743
      3130.322        2439.218
  22045775.658    22045775.7124   22045778.5574  115851338.582 7  90273795.02945
      1553.546        1210.550
  22032171.920    22032171.5244   22032174.4944  115779844.119 7  90218092.82045
      -241.964        -188.546
  22457803.909    22457803.7814   22457805.3594  118016555.024 7  91960973.12445
      -992.105        -773.069
  24403262.149    24403261.9964   24403264.6064  128239992.953 6  99927287.14443
     -4221.031       -3289.126
  22804588.684    22804588.9314   22804591.2264  119838904.133 7  93380982.77445
     -3606.685       -2810.398
  21131034.345    21131033.7274   21131036.5284  111044323.361 8  86528063.17746
     -1229.590        -958.124
  23702466.515    23702465.9894   23702466.9134  124557324.585 7  97057677.85544
      2855.633        2225.168
  22699920.680    22699921.0424   22699923.1864  119288903.412 7  92952416.77244
      1294.161        1008.433
  22923263.276    22923263.4884   22923265.1274  120462587.724 7  93866971.61645
      1242.158         967.927
  24384872.296    24384871.8274   24384875.9944  128143339.493 6  99851971.66444
     -4133.359       -3220.816
 08  4 24 10 29 30.0000000  0 12G 1G 2G 4G 5G12G14G17G20G23G30G31G32
  22587331.031    22587330.4884   22587333.7484  118697216.099 7  92491356.58145
     -2894.155       -2255.185
  24616207.689    24616207.0404   24616208.1764  129359036.519 6 100799275.38943
      3125.119        2435.167
  22036955.405    22036955.6734   22036958.3524  115804988.049 7  90237677.73845
      1536.602        1197.356
  22033617.914    22033617.4124   22033620.5024  115787443.828 7  90224014.67745
      -264.552        -206.148
  22463528.439    22463528.4634   22463530.1664  118046638.963 7  91984415.18345
     -1013.371        -789.636
  24427385.073    24427384.6004   24427387.2364  128366758.966 6 100026065.87943
     -4229.854       -3295.994
  22825219.100    22825219.1294   22825221.2464  119947315.991 7  93465459.43945
     -3620.611       -2821.242
  21138115.165    21138114.3034   21138117.0844  111081532.095 8  86557057.07846
     -1250.843        -974.696
  23686189.571    23686189.0874   23686190.1144  124471790.077 7  96991027.71944
      2846.718        2218.217
  22692588.879    22692589.2334   22692591.4414  119250374.720 7  92922394.43044
      1274.547         993.152
  22916221.995    22916222.1334   22916223.6984  120425584.551 7  93838137.92945
      1224.770         954.367
  24408487.036    24408486.6744   24408490.7744  128267437.314 6  99948671.37744
     -4139.715       -3225.752
 08  4 24 10 30  0.0000000  0 12G 1G 2G 4G 5G12G14G17G20G23G30G31G32
  22603902.266    22603901.7554   22603905.1124  118784298.364 7  92559212.86345
     -2911.545       -2268.732
  24598382.429    24598382.1094   24598383.9694  129265365.417 6 100726284.93843
      3119.331        2430.640
  22028233.005    22028232.9224   22028235.6704  115759150.319 7  90201960.02545
      1518.953        1183.599
  22035194.102    22035193.3494   22035196.3254  115795724.546 7  90230467.17845
      -287.788        -224.245
  22469375.440    22469375.4434   22469376.9034  118077364.368 7  92008357.07645
     -1035.243        -806.688
  24451559.156    24451559.0704   24451561.7514  128493794.625 6 100125054.62543
     -4239.339       -3303.394
  22845929.525    22845929.3534   22845931.5624  120056148.063 7  93550263.47945
     -3635.069       -2832.503
  21145317.489    21145316.7494   21145319.7284  111119381.849 8  86586550.39246
     -1272.703        -991.712
  23669964.879    23669964.5214   23669965.4154  124386528.094 7  96924589.76244
      2837.074        2210.699
  22685370.415    22685370.2484   22685372.5734  119212439.781 7  92892834.74544
      1254.208         977.303
  22909280.704    22909280.7214   22909282.3354  120389108.439 7  93809715.04945
      1206.737         940.322
  24432139.389    24432138.6644   24432142.8214  128391730.326 6 100045523.05644
     -4146.745       -3231.241
 08  4 24 10 30 30.0000000  0 12G 1G 2G 4G 5G12G14G17G20G23G30G31G32
  22620571.991    22620571.4614   22620574.6904  118871898.554 7  92627472.77345
     -2928.395       -2281.866
  24580590.863    24580590.6824   24580591.5824  129171869.100 6 100653430.67443
      3113.824        2426.345
  22019610.544    22019610.6724   22019613.5144  115713840.642 7  90166653.78045
      1501.725        1170.177
  22036901.883    22036901.1814   22036904.3484  115804699.926 7  90237460.99545
      -310.568        -242.003
  22475346.896    22475346.8674   22475348.3724  118108744.344 7  92032809.01645
     -1056.706        -823.410
  24475786.882    24475786.1894   24475789.1534  128621110.624 6 100224261.87943
     -4248.279       -3310.338
  22866721.681    22866721.5054   22866723.7994  120165411.113 7  93635403.33145
     -3649.039       -2843.399
  21152644.507    21152643.7194   21152646.5574  111157884.837 8  86616552.69746
     -1294.108       -1008.396
  23653794.891    23653794.5304   23653795.4774  124301554.862 7  96858376.94544
      2827.818        2203.502
  22678267.431    22678267.4724   22678269.8184  119175113.827 7  92863749.60044
      1234.221         961.729
  22902442.724    22902442.7394   22902444.3804  120353174.297 7  93781714.50745
      1188.958         926.460
  24455831.227    24455830.4734   24455834.7504  128516229.684 6 100142535.36344
     -4153.174       -3236.240
 08  4 24 10 31  0.0000000  0 12G 1G 2G 4G 5G12G14G17G20G23G30G31G32
  22637338.057    22637337.5614   22637340.9134  118960005.144 7  92696127.27045
     -2945.336       -2295.069
  24562831.048    24562830.9114   24562832.0264  129078541.223 6 100580707.66143
      3108.032        2421.867
  22011087.861    22011087.6164   22011090.5314  115669051.539 7  90131753.08245
      1484.232        1156.548
  22038740.654    22038739.8404   22038742.7044  115814361.133 7  90244989.20745
      -333.500        -259.868
  22481440.851    22481440.8964   22481442.3444  118140768.940 7  92057763.24145
     -1078.285        -840.218
  24500065.090    24500064.5234   24500067.8344  128748694.673 6 100323677.97043
     -4257.316       -3317.379
  22887593.684    22887593.6674   22887595.8554  120275093.113 7  93720869.56145
     -3663.051       -2854.308
  21160093.720    21160093.1674   21160095.9254  111197031.703 8  86647056.82446
     -1315.660       -1025.186
  23637678.906    23637678.6614   23637679.9794  124216862.368 7  96792382.31644
      2818.421        2196.269
  22671278.707    22671278.8564   22671281.3014  119138389.902 7  92835133.56844
      1214.032         945.998
  22895706.130    22895706.4204   22895707.8464  120317774.278 7  93754130.14845
      1171.025         912.482
  24479559.253    24479558.4394   24479563.1794  128640924.492 6 100239700.20743
     -4159.770       -3241.370
 08  4 24 10 31 30.0000000  0 12G 1G 2G 4G 5G12G14G17G20G23G30G31G32
  22654199.433    22654198.8274   22654202.1634  119048611.562 7  92765171.25045
     -2961.786       -2307.886
  24545102.856    24545102.3624   24545103.4314  128985378.905 6 100508113.66843
      3102.710        2417.693
  22002663.231    22002663.1934   22002666.2724  115624780.840 7  90097256.40445
      1467.048        1143.154
  22040708.498    22040707.7334   22040710.9184  115824704.132 7  90253048.68545
      -356.099        -277.481
  22487656.556    22487656.6544   22487658.3694  118173433.432 7  92083216.08845
     -1099.400        -856.675
  24524393.800    24524392.8894   24524396.0614  128876539.763 6 100423297.45043
     -4265.741       -3323.956
  22908544.028    22908543.9614   22908546.1504  120385187.541 7  93806657.33845
     -3676.602       -2864.891
  21167664.532    21167663.9724   21167666.8524  111236817.138 8  86678058.47746
     -1336.748       -1041.623
  23621616.161    23621615.6304   23621616.3314  124132450.916 7  96726607.19444
      2809.107        2188.926
  22664404.683    22664404.7694   22664407.3714  119102265.444 7  92806984.64644
      1194.177         930.530
  22889070.744    22889070.8214   22889072.6774  120282906.150 7  93726960.19845
      1153.439         898.785
  24503323.978    24503323.4614   24503327.9204  128765807.441 6 100337011.45644
     -4165.827       -3246.104
 08  4 24 10 32  0.0000000  0 12G 1G 2G 4G 5G12G14G17G20G23G30G31G32
  22671155.733    22671155.1144   22671158.3344  119137717.091 7  92834604.15945
     -2978.561       -2320.959
  24527406.803    24527406.4924   24527407.6824  128892386.232 6 100435651.88343
      3096.745        2413.048
  21994337.954    21994338.1094   21994341.1174  115581031.892 7  90063166.38745
      1449.483        1129.458
  22042806.665    22042806.1934   22042809.1034  115835730.844 7  90261640.92545
      -379.059        -295.373
  22493994.456    22493994.3854   22493996.2134  118206738.772 8  92109168.29845
     -1120.948        -873.464
  24548771.153    24548770.4184   24548773.5284  129004644.519 6 100523119.28943
     -4274.619       -3330.877
  22929572.567    22929572.5554   22929574.6644  120495693.415 7  93892765.87345
     -3690.442       -2875.663
  21175357.277    21175356.5994   21175359.4074  111277241.728 8  86709558.10146
     -1358.257       -1058.383
  23605606.773    23605606.6454   23605607.5884  124048324.133 7  96661054.05644
      2799.364        2181.332
  22657645.342    22657645.4274   22657647.8154  119066744.484 7  92779305.99944
      1173.838         914.670
  22882537.608    22882537.7974   22882539.1834  120248573.350 7  93700207.41545
      1135.383         884.703
  24527124.100    24527123.7354   24527128.2454  128890877.519 6 100434468.27043
     -4172.124       -3250.976
 08  4 24 10 32 30.0000000  0 12G 1G 2G 4G 5G12G14G17G20G23G30G31G32
  22688206.370    22688205.7214   22688208.9594  119227319.068 7  92904423.86645
     -2994.972       -2333.747
  24509743.517    24509743.0104   24509744.5104  128799565.629 6 100363324.17143
      3091.177        2408.708
  21986112.411    21986112.5014   21986115.3254  115537806.238 7  90029484.14245
      1432.142        1115.952
  22045035.126    22045034.3004   22045037.4324  115847441.199 7  90270765.87945
      -401.701        -313.019
  22500453.910    22500454.1024   22500455.6874  118240684.144 8  92135619.23445
     -1142.156        -889.992
  24573196.951    24573196.6324   24573199.4344  129133006.152 6 100623141.31943
     -4282.917       -3337.332
  22950678.666    22950678.7164   22950680.8494  120606606.683 7  93979191.66745
     -3703.854       -2886.120
  21183171.445    21183170.5604   21183173.5844  111318304.911 8  86741555.40446
     -1379.373       -1074.846
  23589652.493    23589652.5514   23589653.4654  123964483.317 7  96595723.40444
      2789.854        2173.905
  22651000.678    22651001.0654   22651003.3024  119031828.248 7  92752098.56444
      1153.809         899.071
  22876106.194    22876106.4304   22876107.9094  120214776.969 7  93673872.63345
      1117.600         870.853
  24550959.697    24550959.3044   24550963.7184  129016133.211 6 100532069.83643
     -4178.196       -3255.731
 08  4 24 10 33  0.0000000  0 12G 1G 2G 4G 5G12G14G17G20G23G30G31G32
  22705350.403    22705350.0864   22705353.4564  119317412.820 7  92974626.79145
     -3011.140       -2346.339
  24492113.165    24492112.6514   24492113.8234  128706916.608 6 100291130.13943
      3085.562        2404.336
  21977986.341    21977986.2624   21977989.1484  115495103.112 7  89996208.99045
      1414.877        1102.507
  22047393.221    22047392.5214   22047395.3864  115859832.923 7  90280421.77145
      -424.291        -330.608
  22507034.811    22507034.7354   22507036.5794  118275266.348 7  92162566.38645
     -1163.192        -906.380
  24597671.856    24597671.3184   24597673.8024  129261618.978 6 100723359.02343
     -4291.120       -3343.724
  22971861.552    22971861.6804   22971863.6794  120717923.496 7  94065932.09445
     -3717.091       -2896.439
  21191106.240    21191105.4484   21191108.4324  111360002.833 8  86774047.25946
     -1400.360       -1091.192
  23573752.971    23573752.4964   23573753.3584  123880929.920 7  96530617.17544
      2780.469        2166.599
  22644471.476    22644471.5544   22644473.8804  118997516.040 7  92725361.78644
      1133.801         883.476
  22869776.926    22869776.9334   22869778.4804  120181516.289 7  93647955.25145
      1099.919         857.084
  24574829.333    24574829.2324   24574833.8054  129141569.353 6 100629812.05743
     -4184.097       -3260.325
 08  4 24 10 33 30.0000000  0 12G 1G 2G 4G 5G12G14G17G20G23G30G31G32
  22722588.333    22722587.7154   22722591.1904  119407997.522 7  93045212.26145
     -3027.672       -2359.221
  24474515.846    24474515.8264   24474516.7904  128614442.839 6 100219072.70143
      3079.473        2399.576
  21969960.018    21969960.1664   21969963.1624  115452925.765 7  89963343.52345
      1397.111        1088.661
  22049880.988    22049880.2724   22049883.4134  115872907.671 7  90290609.89045
      -447.243        -348.495
  22513737.114    22513737.0764   22513738.7984  118310486.620 7  92190010.74645
     -1184.655        -923.105
  24622193.273    24622193.2254   24622195.9054  129390481.891 6 100823771.60443
     -4299.629       -3350.363
  22993120.716    22993120.7094   22993122.8604  120829642.217 7  94152985.81945
     -3730.651       -2906.997
  21199162.113    21199161.2594   21199164.2804  111402336.217 8  86807034.24646
     -1421.725       -1107.828
  23557908.532    23557908.0174   23557908.8544  123797666.448 7  96465736.59544
      2770.540        2158.853
  22638057.326    22638057.7104   22638060.3124  118963811.602 7  92699098.59045
      1113.314         867.518
  22863550.042    22863550.2854   22863551.9654  120148794.742 7  93622457.89145
      1081.622         842.820
  24598733.830    24598733.1624   24598737.5024  129267185.819 6 100727695.07243
     -4190.215       -3265.135
 08  4 24 10 34  0.0000000  0 12G 1G 2G 4G 5G12G14G17G20G23G30G31G32
  22739919.468    22739919.0334   22739922.1794  119499072.328 7  93116179.58045
     -3044.159       -2372.076
  24456952.685    24456952.1984   24456952.9814  128522148.131 6 100147154.76643
      3073.359        2394.830
  21962034.705    21962034.7834   21962037.6564  115411277.514 7  89930890.32445
      1379.256        1074.744
  22052499.591    22052499.0244   22052501.6084  115886667.144 7  90301331.56245
      -470.250        -366.425
  22520560.765    22520560.7254   22520562.5534  118346345.559 7  92217952.78245
     -1206.102        -939.820
  24646762.204    24646762.0814   24646765.3644  129519593.543 6 100924377.97642
     -4307.984       -3356.882
  23014456.280    23014456.1644   23014458.4494  120941761.185 7  94240351.30045
     -3744.124       -2917.510
  21207338.925    21207338.1964   21207341.1184  111445305.598 8  86840516.83046
     -1443.127       -1124.538
  23542119.843    23542119.5524   23542120.4234  123714697.863 7  96401085.83544
      2760.539        2151.067
  22631760.313    22631760.2564   22631762.5364  118930717.949 7  92673311.33945
      1092.749         851.489
  22857426.691    22857426.8754   22857428.2404  120116615.486 7  93597383.20145
      1063.413         828.636
  24622671.250    24622670.6704   24622675.1584  129392981.264 6 100825717.73643
     -4196.304       -3269.844
 08  4 24 10 34 30.0000000  0 12G 1G 2G 4G 5G12G14G17G20G23G30G31G32
  22757344.026    22757343.4234   22757346.7514  119590638.168 7  93187529.54745
     -3060.102       -2384.489
  24439424.751    24439424.3424   24439425.6794  128430037.982 6 100075380.63643
      3067.490        2390.257
  21954210.758    21954211.0114   21954214.0214  115370163.354 7  89898853.28145
      1361.785        1061.134
  22055248.561    22055247.9424   22055251.3894  115901114.611 7  90312589.34945
      -492.821        -384.014
  22527506.458    22527506.3754   22527508.3074  118382845.482 7  92246394.26645
     -1227.090        -956.167
  24671379.245    24671379.1374   24671381.8574  129648954.077 6 101025178.29843
     -4315.914       -3363.047
  23035867.966    23035867.7704   23035870.0944  121054280.864 7  94328028.95445
     -3757.052       -2927.570
  21215637.183    21215636.4534   21215639.3404  111488913.318 8  86874496.94346
     -1463.974       -1140.758
  23526388.608    23526388.2854   23526389.4244  123632028.959 7  96336668.30944
      2750.795        2143.471
  22625579.974    22625580.1054   22625582.4134  118898240.173 7  92648003.97445
      1072.545         835.755
  22851407.074    22851407.3664   22851408.8384  120084982.991 7  93572734.48945
      1045.526         814.700
  24646643.895    24646643.3134   24646648.0234  129518956.245 6 100923880.09243
     -4201.855       -3274.170
 08  4 24 10 35  0.0000000  0 12G 1G 2G 4G 5G12G14G17G20G23G30G31G32
  22774860.752    22774860.1604   22774863.5404  119682689.842 7  93259258.13945
     -3076.502       -2397.265
  24421932.145    24421931.4834   24421932.5184  128338111.764 6 100003749.84543
      3061.073        2385.251
  21946488.711    21946488.8594   21946491.6834  115329582.200 7  89867231.54245
      1343.760        1047.091
  22058128.418    22058127.5644   22058130.8834  115916247.300 7  90324381.06445
      -515.838        -401.953
  22534573.514    22534573.6334   22534575.4054  118419982.842 7  92275332.44845
     -1248.543        -972.891
  24696042.175    24696041.9934   24696044.3164  129778557.764 6 101126168.06742
     -4324.193       -3369.495
  23057354.883    23057354.9084   23057357.2764  121167195.725 7  94416014.52645
     -3770.443       -2938.008
  21224056.304    21224055.5894   21224058.4604  111533154.937 8  86908970.71946
     -1485.326       -1157.401
  23510714.528    23510714.1224   23510715.0934  123549660.524 7  96272485.07144
      2740.530        2135.500
  22619516.476    22619516.5584   22619519.2244  118866377.737 7  92623176.09645
      1051.746         819.544
  22845491.210    22845491.2984   22845493.3354  120053896.186 7  93548511.06445
      1027.075         800.310
  24670649.004    24670648.1554   24670652.7214  129645105.815 6 101022178.54943
     -4207.946       -3278.912
 08  4 24 10 35 30.0000000  0 12G 1G 2G 4G 5G12G14G17G20G23G30G31G32
  22792469.552    22792469.0474   22792472.3594  119775224.575 7  93331363.14845
     -3093.431       -2410.467
  24404474.264    24404473.7154   24404475.0534  128246371.660 6  99932264.05743
      3053.991        2379.730
  21938868.028    21938868.0944   21938871.0034  115289535.509 7  89836026.25745
      1325.091        1032.542
  22061138.402    22061137.8154   22061141.1334  115932065.098 7  90336706.61545
      -539.581        -420.466
  22541761.701    22541761.6834   22541763.5004  118457756.693 7  92304766.60745
     -1270.637        -990.107
  24720750.379    24720749.9064   24720752.7444  129908401.688 6 101227345.11542
     -4333.003       -3376.372
  23078916.414    23078916.5254   23078918.8894  121280502.115 7  94504304.74145
     -3784.291       -2948.779
  21232595.895    21232595.1764   21232598.0634  111578030.054 8  86943938.14746
     -1507.341       -1174.599
  23495097.754    23495097.4164   23495098.3034  123467594.657 7  96208537.63845
      2729.593        2126.945
  22613570.962    22613570.9574   22613573.3984  118835132.204 7  92598828.92045
      1030.363         802.886
  22839679.840    22839679.9584   22839681.6074  120023356.481 7  93524713.93545
      1007.967         785.420
  24694687.273    24694686.5364   24694691.6524  129771426.972 6 101120610.41443
     -4214.392       -3283.937
 08  4 24 10 36  0.0000000  0 12G 1G 2G 4G 5G12G14G17G20G23G30G31G32
  22810170.770    22810170.0734   22810173.2094  119868243.897 7  93403845.69945
     -3108.613       -2422.299
  24387053.322    24387052.6394   24387053.9894  128154823.742 6  99860928.02243
      3048.458        2375.408
  21931350.518    21931350.3934   21931353.2404  115250029.339 8  89805242.27645
      1307.945        1019.174
  22064279.546    22064278.9094   22064282.1974  115948571.992 7  90349569.11845
      -561.641        -437.644
  22549071.495    22549071.4634   22549073.1854  118496170.222 7  92334699.19945
     -1291.019       -1005.990
  24745504.432    24745504.5384   24745507.8634  130038486.697 6 101328709.98542
     -4340.065       -3381.867
  23100553.114    23100553.1554   23100555.5304  121394203.723 7  94592903.73445
     -3796.474       -2958.304
  21241256.486    21241255.6404   21241258.5404  111623541.704 8  86979401.92746
     -1527.507       -1190.259
  23479539.650    23479539.4464   23479540.3824  123385838.213 7  96144831.62244
      2720.146        2119.578
  22607743.572    22607743.5954   22607746.1734  118804509.105 7  92574966.69445
      1010.468         787.381
  22833973.712    22833973.7744   22833975.4154  119993369.596 7  93501347.49845
       990.453         771.785
  24718758.413    24718757.7494   24718762.5204  129897922.307 6 101219178.18743
     -4219.287       -3287.752
 08  4 24 10 36 30.0000000  0 12G 1G 2G 4G 5G12G14G17G20G23G30G31G32
  22827962.447    22827961.9904   22827965.3634  119961741.663 7  93476701.09545
     -3124.677       -2434.813
  24369668.738    24369668.2574   24369669.1294  128063466.527 6  99789740.56743
      3041.904        2370.310
  21923934.921    21923934.9934   21923937.9384  115211061.063 7  89774877.42145
      1289.850        1005.077
  22067551.092    22067550.4964   22067553.4974  115965764.000 7  90362965.48045
      -584.616        -455.548
  22556502.373    22556502.3534   22556503.9224  118535218.738 7  92365126.60245
     -1312.323       -1022.586
  24770304.268    24770304.0754   24770306.6234  130168806.454 6 101430257.74242
     -4348.025       -3388.078
  23122263.225    23122263.1354   23122265.5534  121508291.616 7  94681803.54145
     -3809.483       -2968.434
  21250037.165    21250036.3064   21250039.3274  111669683.877 8  87015356.68846
     -1548.697       -1206.772
  23464040.209    23464040.0384   23464040.7644  123304388.929 7  96081364.83944
      2709.696        2111.449
  22602034.329    22602034.7244   22602036.8654  118774506.728 7  92551588.19545
       989.625         771.130
  22828372.065    22828372.0384   22828373.6064  119963933.013 7  93478409.89145
       971.885         757.310
  24742861.356    24742860.8644   24742865.5494  130024585.160 6 101317876.51143
     -4225.055       -3292.265
 08  4 24 10 37  0.0000000  0 12G 1G 2G 4G 5G12G14G17G20G23G30G31G32
  22845846.479    22845845.9274   22845849.2524  120055721.695 7  93549932.24645
     -3140.625       -2447.240
  24352321.477    24352321.3404   24352322.6694  127972308.852 6  99718708.70744
      3035.340        2365.203
  21916623.550    21916623.5854   21916626.3084  115172638.910 7  89744938.14045
      1271.698         990.934
  22070954.202    22070953.6494   22070956.8254  115983647.431 7  90376900.64145
      -607.574        -473.439
  22564054.947    22564055.0084   22564056.6504  118574907.669 7  92396053.03245
     -1333.546       -1039.129
  24795148.235    24795147.8054   24795150.8934  130299364.169 6 101531991.00242
     -4355.832       -3394.156
  23144047.727    23144047.5844   23144050.4094  121622769.746 7  94771007.33745
     -3822.333       -2978.443
  21258938.760    21258938.1024   21258941.1804  111716462.678 8  87051807.56846
     -1569.769       -1223.170
  23448600.919    23448600.7924   23448601.5234  123223255.673 7  96018144.19544
      2699.136        2103.204
  22596444.597    22596444.8144   22596447.2144  118745132.623 7  92528699.31345
       968.727         754.850
  22822876.414    22822876.5264   22822878.2864  119935054.746 7  93455907.38445
       953.359         742.873
  24766997.519    24766996.7284   24767001.8084  130151419.387 6 101416708.37043
     -4230.562       -3296.537
 08  4 24 10 37 30.0000000  0 12G 1G 2G 4G 5G12G14G17G20G23G30G31G32
  22863821.794    22863821.2584   22863824.7724  120150183.323 7  93623538.65945
     -3156.851       -2459.881
  24335013.558    24335013.3214   24335014.5684  127881354.175 6  99647834.96744
      3028.243        2359.666
  21909416.531    21909416.5994   21909419.3064  115134766.266 8  89715427.06145
      1253.057         976.405
  22074489.276    22074488.7204   22074491.6654  116002223.980 7  90391375.84345
      -630.933        -491.628
  22571729.586    22571729.4934   22571731.1754  118615237.992 7  92427479.25045
     -1355.186       -1055.989
  24820037.848    24820037.4484   24820040.2944  130430158.682 6 101633908.72842
     -4363.930       -3400.455
  23165906.237    23165906.3394   23165908.6324  121737637.082 7  94860514.27845
     -3835.506       -2988.706
  21267961.709    21267961.0464   21267963.9864  111763879.119 8  87088755.62546
     -1591.306       -1239.965
  23433222.750    23433222.4264   23433223.3634  123142443.115 7  95955173.55144
      2688.183        2094.679
  22590975.411    22590975.4284   22590977.5444  118716390.400 7  92506302.79745
       947.344         738.186
  22817488.133    22817488.1974   22817489.5964  119906737.692 7  93433842.13045
       934.349         728.070
  24791165.734    24791165.2964   24791169.8364  130278424.673 6 101515673.43743
     -4236.500       -3301.161
 08  4 24 10 38  0.0000000  0 12G 1G 2G 4G 5G12G14G17G20G23G30G31G32
  22881889.099    22881888.5624   22881892.1274  120245127.610 7  93697521.15145
     -3172.670       -2472.211
  24317745.277    24317744.8784   24317745.8854  127790608.443 6  99577124.02244
      3021.524        2354.435
  21902315.172    21902315.0534   21902317.8654  115097448.136 7  89686348.01245
      1234.794         962.174
  22078156.925    22078156.3594   22078159.1674  116021497.212 7  90406393.97045
      -653.901        -509.536
  22579526.528    22579526.5814   22579528.3684  118656212.454 7  92459407.36545
     -1376.401       -1072.523
  24844972.756    24844972.0664   24844974.7134  130561190.682 6 101736011.47042
     -4371.515       -3406.375
  23187839.174    23187839.0124   23187841.3744  121852894.329 7  94950325.07645
     -3848.259       -2998.646
  21277106.504    21277105.8714   21277108.7444  111811934.487 8  87126201.23546
     -1612.348       -1256.361
  23417906.654    23417906.4954   23417907.1364  123061957.061 7  95892457.29145
      2677.574        2086.429
  22585627.119    22585627.2284   22585629.3974  118688285.591 7  92484402.97445
       926.318         721.808
  22812207.612    22812207.4574   22812209.0064  119878987.048 7  93412218.26545
       915.700         713.531
  24815367.078    24815366.2814   24815371.0104  130405602.128 6 101614772.68743
     -4241.989       -3305.427
 08  4 24 10 38 30.0000000  0 12G 1G 2G 4G 5G12G14G17G20G23G30G31G32
  22900046.088    22900045.4154   22900049.0314  120340542.396 7  93771870.33545
     -3188.376       -2484.462
  24300514.988    24300514.8994   24300516.1864  127700064.357 6  99506570.23544
      3014.689        2349.113
  21895317.784    21895317.7424   21895320.4354  115060676.577 8  89657694.87745
      1216.526         947.942
  22081955.040    22081954.6124   22081957.7894  116041456.889 7  90421946.89545
      -676.806        -527.378
  22587444.228    22587444.3374   22587446.0884  118697820.157 7  92491828.95245
     -1397.508       -1088.968
  24869949.906    24869948.6704   24869952.7814  130692447.530 6 101838289.52042
     -4378.929       -3412.153
  23209843.795    23209843.4804   23209845.9794  121968529.088 7  95040430.04145
     -3860.817       -3008.439
  21286370.802    21286369.9954   21286372.7024  111860619.431 8  87164137.96346
     -1633.341       -1272.756
  23402651.193    23402651.1424   23402652.0334  122981790.270 7  95829989.71645
      2666.808        2078.039
  22580398.541    22580398.7114   22580400.8694  118660809.721 7  92462993.22845
       905.293         705.422
  22807032.837    22807032.7674   22807034.3734  119851794.910 7  93391029.66545
       897.038         698.988
  24839598.330    24839597.7134   24839603.0574  130532939.708 6 101713996.70943
     -4247.272       -3309.560
 08  4 24 10 39  0.0000000  0 12G 1G 2G 4G 5G12G14G17G20G23G30G31G32
  22918292.218    22918291.8594   22918295.5164  120436427.824 7  93846586.30245
     -3204.114       -2496.713
  24283324.548    24283324.1094   24283325.4344  127609726.882 6  99436177.43844
      3007.701        2343.659
  21888424.985    21888425.1404   21888427.8834  115024455.549 7  89629470.69345
      1198.075         933.561
  22085884.604    22085884.0144   22085887.0714  116062105.855 7  90438036.92945
      -699.896        -545.369
  22595482.890    22595482.7604   22595484.5574  118740062.771 7  92524745.24245
     -1418.785       -1105.550
  24894969.926    24894969.9694   24894971.8084  130823929.292 5 101940742.83942
     -4386.547       -3418.095
  23231919.830    23231919.9864   23231922.2864  122084541.348 7  95130829.16345
     -3873.461       -3018.289
  21295754.836    21295754.0784   21295756.8454  111909933.688 8  87202564.73146
     -1654.384       -1289.116
  23387457.841    23387457.5454   23387458.5554  122901947.262 7  95767774.30445
      2655.936        2069.560
  22575290.686    22575290.8794   22575292.9204  118633967.055 7  92442076.79145
       884.040         688.864
  22801965.281    22801965.4674   22801966.7254  119825165.152 7  93370279.23145
       878.175         684.286
  24863860.703    24863859.8304   24863865.0304  130660437.927 6 101813345.89143
     -4252.680       -3313.787
 08  4 24 10 39 30.0000000  0 12G 1G 2G 4G 5G12G14G17G20G23G30G31G32
  22936626.907    22936626.4374   22936630.2114  120532777.124 7  93921663.64545
     -3219.489       -2508.697
  24266172.788    24266172.4814   24266173.8944  127519594.075 6  99365944.10144
      3000.843        2338.312
  21881636.857    21881636.9304   21881639.4864  114988783.081 7  89601673.93845
      1179.773         919.307
  22089944.131    22089943.7244   22089946.8214  116083439.983 7  90454660.91045
      -722.690        -563.134
  22603641.399    22603641.2554   22603643.0764  118782935.877 7  92558152.84345
     -1439.717       -1121.857
  24920031.957    24920030.7964   24920033.9404  130955628.970 6 102043366.01642
     -4393.734       -3423.687
  23254066.805    23254066.9384   23254069.3204  122200924.122 7  95221516.99445
     -3885.707       -3027.821
  21305258.055    21305257.1934   21305259.9204  111959872.424 8  87241477.92346
     -1675.188       -1305.361
  23372325.962    23372325.4484   23372326.2724  122822427.567 7  95705810.94945
      2645.087        2061.107
  22570302.677    22570302.8964   22570305.1264  118607755.748 7  92421652.44145
       863.046         672.499
  22797004.560    22797004.5074   22797006.0204  119799095.191 7  93349965.01145
       859.494         669.729
  24888151.970    24888151.4124   24888156.4894  130788090.306 6 101912815.23543
     -4257.724       -3317.700
 08  4 24 10 40  0.0000000  0 11G 1G 2G 4G 5G12G17G20G23G30G31G32
  22955050.138    22955049.8154   22955053.3854  120629591.748 7  93997103.54345
     -3234.982       -2520.765
  24249060.855    24249060.8234   24249062.0124  127429672.265 6  99295875.23144
      2993.774        2332.808
  21874954.039    21874954.0504   21874956.5584  114953664.362 8  89574308.63845
      1161.282         904.898
  22094135.315    22094134.7324   22094137.7204  116105462.792 7  90471821.57145
      -745.650        -581.028
  22611920.281    22611920.2314   22611922.1464  118826441.909 7  92592053.61745
     -1460.840       -1138.315
  23276284.793    23276284.6594   23276286.8134  122317678.335 7  95312494.19445
     -3898.067       -3037.450
  21314880.420    21314879.6574   21314882.3514  112010439.372 8  87280880.90146
     -1696.087       -1321.618
  23357256.654    23357256.0634   23357256.7134  122743237.154 7  95644104.13645
      2634.094        2052.552
  22565436.152    22565436.1554   22565438.4064  118582180.721 7  92401723.86945
       841.798         655.950
  22792150.913    22792151.0174   22792152.3184  119773590.187 7  93330090.98145
       840.621         655.031
  24912473.281    24912472.4264   24912477.5764  130915898.676 6 102012406.14243
     -4262.913       -3321.740
 08  4 24 10 40 30.0000000  0 11G 1G 2G 4G 5G12G17G20G23G30G31G32
  22973562.424    22973561.7454   22973565.2704  120726873.707 7  94072907.69045
     -3250.464       -2532.839
  24231990.968    24231990.4694   24231991.9364  127339967.742 6  99225975.67644
      2986.506        2327.141
  21868377.718    21868377.6874   21868380.2734  114919105.178 8  89547379.40645
      1142.637         890.360
  22098458.066    22098457.1134   22098460.2964  116128178.163 7  90489521.86145
      -768.744        -599.021
  22620320.098    22620320.2274   22620322.2534  118870584.125 7  92626450.15045
     -1481.994       -1154.802
  23298573.220    23298573.1354   23298575.5814  122434805.735 7  95403762.29845
     -3910.431       -3047.096
  21324622.890    21324622.1224   21324624.7844  112061636.459 8  87320774.76046
     -1717.101       -1338.022
  23342251.168    23342250.5824   23342251.4264  122664382.671 7  95582659.09645
      2622.868        2043.800
  22560691.352    22560691.5844   22560693.9054  118557247.911 7  92382295.69645
       820.368         639.246
  22787405.936    22787406.0774   22787407.5194  119748655.848 7  93310661.67045
       821.594         640.201
  24936824.345    24936823.8674   24936829.1984  131043863.658 6 102112118.63743
     -4268.021       -3325.675
 08  4 24 10 41  0.0000000  0 11G 1G 2G 4G 5G12G17G20G23G30G31G32
  22992161.836    22992161.3814   22992164.8164  120824613.913 7  94149068.88545
     -3265.710       -2544.708
  24214961.465    24214960.7314   24214962.0824  127250476.287 6  99156242.09644
      2979.376        2321.580
  21861906.778    21861906.9984   21861909.5074  114885100.715 8  89520882.40145
      1124.120         875.935
  22102911.029    22102910.3584   22102913.3854  116151579.554 7  90507756.75145
      -791.551        -616.790
  22628839.655    22628839.8154   22628841.7354  118915354.584 7  92661336.23745
     -1502.893       -1171.091
  23320930.972    23320931.0684   23320933.3994  122552296.567 7  95495313.61345
     -3922.479       -3056.478
  21334483.998    21334483.1104   21334485.7684  112113456.001 8  87361153.58246
     -1737.798       -1354.136
  23327308.749    23327308.3024   23327309.0264  122585860.103 7  95521472.70045
      2611.783        2035.162
  22556067.952    22556068.2344   22556070.6274  118532952.593 7  92363364.24545
       799.132         622.701
  22782768.757    22782768.8594   22782770.2904  119724286.917 7  93291672.90445
       802.740         625.505
  24961203.882    24961203.1684   24961208.1994  131171979.164 6 102211949.15143
     -4272.976       -3329.566
 08  4 24 10 41 30.0000000  0 11G 1G 2G 4G 5G12G17G20G23G30G31G32
  23010847.975    23010847.6234   23010851.0794  120922810.738 7  94225585.80545
     -3280.793       -2556.460
  24197972.722    24197972.5594   24197973.5054  127161201.485 6  99086677.34444
      2972.211        2316.019
  21855542.045    21855542.0544   21855544.7324  114851653.723 8  89494819.80945
      1105.598         861.502
  22107494.762    22107494.0514   22107497.3394  116175667.625 7  90526526.71245
      -814.347        -634.553
  22637478.964    22637478.9424   22637480.8084  118960753.840 7  92696712.28045
     -1523.737       -1187.325
  23343357.453    23343357.4604   23343359.9044  122670149.228 7  95587146.88645
     -3934.387       -3065.756
  21344463.329    21344462.4714   21344465.1494  112165898.231 8  87402017.67146
     -1758.416       -1370.193
  23312430.328    23312429.7284   23312430.5294  122507673.044 7  95460547.74145
      2600.617        2026.453
  22551566.902    22551566.8344   22551569.1034  118509297.239 7  92344931.48645
       777.839         606.110
  22778239.601    22778239.7684   22778241.3014  119700485.742 7  93273126.46645
       783.899         610.835
  24985611.854    24985611.2074   24985616.2594  131300241.011 6 102311893.00743
     -4277.815       -3333.373
 08  4 24 10 42  0.0000000  0 11G 1G 2G 4G 5G12G17G20G23G30G31G32
  23029620.790    23029620.1084   23029623.5794  121021461.654 7  94302456.71545
     -3295.920       -2568.249
  24181026.270    24181025.8734   24181026.8764  127072144.983 6  99017282.69844
      2964.865        2310.290
  21849283.615    21849283.4904   21849286.2534  114818765.253 7  89469192.52745
      1086.961         846.984
  22112209.024    22112208.2514   22112211.5434  116200441.458 7  90545831.00245
      -837.269        -652.418
  22646237.358    22646237.4394   22646239.3474  119006780.113 7  92732576.90145
     -1544.678       -1203.645
  23365852.351    23365852.4104   23365854.8034  122788360.334 7  95679259.41945
     -3946.353       -3075.086
  21354560.693    21354560.0644   21354562.7384  112218961.081 8  87443365.33246
     -1779.104       -1386.315
  23297615.982    23297615.6554   23297616.3224  122429823.810 7  95399886.04645
      2589.312        2017.648
  22547187.216    22547187.4584   22547189.7154  118486283.387 7  92326998.62145
       756.424         589.422
  22773818.670    22773818.7874   22773820.4894  119677253.805 7  93255023.65745
       764.869         596.000
  25010046.729    25010046.2204   25010051.0074  131428648.304 6 102411950.52343
     -4282.614       -3337.100
 08  4 24 10 42 30.0000000  0 11G 1G 2G 4G 5G12G17G20G23G30G31G32
  23048480.848    23048480.4504   23048483.8134  121120572.542 7  94379685.96045
     -3311.238       -2580.191
  24164122.778    24164122.4414   24164123.4584  126983318.165 6  98948067.01344
      2957.115        2304.238
  21843133.244    21843133.3024   21843135.9744  114786445.441 7  89444008.28745
      1067.906         832.128
  22117055.452    22117054.7944   22117058.0184  116225909.879 7  90565676.53645
      -860.437        -670.469
  22655116.911    22655116.9404   22655118.8414  119053441.690 7  92768936.55645
     -1565.923       -1220.201
  23388416.836    23388416.6284   23388419.1204  122906936.046 7  95771656.04945
     -3958.523       -3084.571
  21364777.978    21364777.1564   21364779.7894  112272652.473 8  87485202.81546
     -1800.114       -1402.695
  23282868.257    23282867.8904   23282868.4714  122352323.291 7  95339496.04245
      2577.584        2008.505
  22542931.951    22542931.9534   22542934.4514  118463920.839 7  92309573.24245
       734.635         572.441
  22769507.929    22769508.1574   22769509.6234  119654601.184 7  93237372.25545
       745.489         580.903
  25034510.828    25034510.1204   25034515.3664  131557207.821 6 102512126.83243
     -4287.749       -3341.094
 08  4 24 10 43  0.0000000  0 11G 1G 2G 4G 5G12G17G20G23G30G31G32
  22767635.715    22767634.9234   22767638.4784  119644720.253 7  93229671.19245
     -3326.422       -2592.013
  23847469.747    23847469.3794   23847470.2614  125319296.074 6  97651426.44044
      2949.412        2298.240
  21537298.154    21537298.0574   21537300.7914  113179270.702 8  88191664.30745
      1048.907         817.334
  21822240.888    21822240.1314   21822243.4554  114676649.062 7  89358460.30145
      -883.513        -688.449
  22364323.764    22364323.8304   22364325.8254  117525314.738 7  91578188.26045
     -1586.936       -1236.574
  23111257.367    23111257.2674   23111259.6204  121450453.430 7  94636734.54145
     -3970.471       -3093.875
  21075321.376    21075320.7114   21075323.3614  110751548.303 8  86299926.80646
     -1820.917       -1418.896
  22968393.471    22968392.9804   22968393.6554  120699747.413 7  94051774.59345
      2565.915        1999.411
  22239007.212    22239007.3834   22239009.8604  116866786.435 7  91065052.91645
       712.893         555.498
  22465514.540    22465514.6884   22465516.2744  118057104.146 7  91992569.40745
       726.185         565.863
  24759210.675    24759210.9044   24759215.5054  130110496.546 6 101384819.38543
     -4292.646       -3344.927
 08  4 24 10 43 30.0000000  0 10G 1G 2G 4G 5G12G17G20G23G30G31
  22786667.751    22786667.5234   22786670.6344  119744735.819 7  93307605.35445
     -3341.345       -2603.642
  23830653.871    23830653.3384   23830654.4564  125230927.523 6  97582567.84844
      2941.764        2292.292
  21531363.577    21531363.7124   21531366.2964  113148085.280 8  88167364.00345
      1030.040         802.618
  21827349.806    21827349.3214   21827352.3554  114703497.390 7  89379381.07045
      -906.457        -706.332
  22373443.125    22373442.9154   22373444.7354  117573234.908 7  91615528.62045
     -1607.796       -1252.824
  23133957.144    23133957.1354   23133959.3294  121569742.190 7  94729686.85945
     -3982.159       -3102.987
  21085775.272    21085774.6384   21085777.3224  110806484.678 8  86342734.40446
     -1841.512       -1434.952
  22953777.977    22953777.8274   22953778.5324  120622944.210 7  93991927.94545
      2554.258        1990.338
  22234999.259    22234999.3004   22235001.7234  116845723.336 7  91048640.09545
       691.260         538.641
  22461423.357    22461423.4954   22461424.9554  118035605.637 7  91975817.39145
       706.975         550.891
 08  4 24 10 44  0.0000000  0 10G 1G 2G 4G 5G12G17G20G23G30G31
  22805785.532    22805784.8814   22805788.0584  119845199.016 7  93385888.33644
     -3356.059       -2615.106
  23813881.465    23813881.3984   23813882.3584  125142790.631 6  97513889.78144
      2934.140        2286.344
  21525537.494    21525537.5764   21525540.1784  113117468.245 7  88143506.55545
      1011.226         787.973
  21832589.796    21832589.3094   21832592.5814  114731034.099 7  89400838.23245
      -929.221        -724.072
  22382680.971    22382681.1184   22382682.9134  117621781.865 7  91653357.44945
     -1628.540       -1268.990
  23156723.688    23156723.6494   23156726.0334  121689382.233 7  94822912.95545
     -3993.672       -3111.959
  21096347.302    21096346.5684   21096349.3874  110862040.233 8  86386024.39346
     -1862.033       -1450.931
  22939229.741    22939229.3274   22939230.2234  120546492.561 7  93932355.27745
      2542.627        1981.265
  22231114.881    22231114.9294   22231117.4744  116825311.285 7  91032734.56845
       669.681         521.833
  22457442.457    22457442.3964   22457444.2644  118014685.665 7  91959516.11545
       687.832         535.969
 08  4 24 10 44 30.0000000  0 10G 1G 2G 4G 5G12G17G20G23G30G31
  22824987.943    22824987.2734   22824990.7074  119946107.923 7  93464518.64444
     -3370.857       -2626.641
  23797155.188    23797154.7084   23797155.3934  125054888.451 6  97445394.59744
      2926.297        2280.228
  21519819.751    21519819.7764   21519822.4944  113087421.917 7  88120093.87945
       992.215         773.161
  21837961.216    21837960.3874   21837963.6764  114759259.423 7  89422831.97445
      -952.143        -741.928
  22392038.572    22392038.3474   22392040.3504  117670954.884 7  91691674.07545
     -1649.363       -1285.221
  23179556.872    23179556.7744   23179559.2614  121809370.954 7  94916410.60144
     -4005.218       -3120.947
  21107037.097    21107036.2774   21107038.9164  110918214.657 8  86429796.64746
     -1882.611       -1466.967
  22924748.799    22924748.6424   22924749.4114  120470395.517 7  93873058.91945
      2530.805        1972.058
  22227354.799    22227354.8794   22227357.5194  116805552.647 7  91017338.17845
       647.887         504.848
  22453571.690    22453571.8454   22453573.4604  117994345.785 7  91943666.86045
       668.487         520.898
 08  4 24 10 45  0.0000000  0 10G 1G 2G 4G 5G12G17G20G23G30G31
  22844274.786    22844274.2444   22844277.5134  120047462.053 7  93543495.85244
     -3386.460       -2638.800
  23780473.299    23780472.6904   23780473.4814  124967225.388 7  97377085.78144
      2917.493        2273.362
  21514211.303    21514211.2654   21514214.0984  113057949.339 7  88097128.15345
       972.185         757.546
  21843463.436    21843462.7654   21843465.9654  114788175.143 7  89445363.70345
      -975.983        -760.504
  22401514.840    22401514.8144   22401516.8664  117720754.469 7  91730478.92945
     -1671.061       -1302.124
  23202456.374    23202456.2644   23202458.6844  121929708.094 7  95010179.83944
     -4017.638       -3130.626
  21117844.622    21117843.7684   21117846.5144  110975008.781 8  86474051.82446
     -1904.057       -1483.686
  22910336.512    22910336.1484   22910337.0674  120394657.449 7  93814042.22645
      2517.934        1962.020
  22223720.068    22223720.0084   22223722.4954  116786450.623 7  91002453.44545
       625.155         487.127
  22449812.540    22449812.5054   22449814.0364  117974589.438 7  91928272.31145
       648.193         505.083
 08  4 24 10 45 30.0000000  0 10G 1G 2G 4G 5G12G17G20G23G30G31
  22863645.174    22863644.5274   22863647.9554  120149254.464 7  93622814.58444
     -3400.500       -2649.740
  23763836.150    23763835.8844   23763836.9764  124879799.278 7  97308961.53344
      2910.049        2267.560
  21508711.672    21508711.6074   21508714.3344  113029048.059 8  88074607.67345
       953.660         743.113
  21849096.382    21849095.7134   21849099.0844  114817776.208 7  89468429.48645
      -998.299        -777.892
  22411109.866    22411109.8464   22411111.7144  117771175.924 7  91769768.39445
     -1691.254       -1317.859
  23225420.662    23225420.5354   23225422.9264  122050385.700 7  95104214.22144
     -4028.384       -3138.994
  21128768.803    21128768.1454   21128770.9194  111032416.215 8  86518784.80046
     -1923.982       -1499.208
  22895992.051    22895991.6844   22895992.2664  120319276.884 7  93755304.18745
      2506.526        1953.135
  22220209.352    22220209.4614   22220211.8934  116768002.440 7  90988078.22745
       603.876         470.558
  22446163.225    22446163.4234   22446165.1184  117955413.252 7  91913329.79245
       629.334         490.386
 08  4 24 10 46  0.0000000  0 10G 1G 2G 4G 5G12G17G20G23G30G31
  22883099.951    22883099.3554   22883103.0004  120251490.781 7  93702479.30444
     -3415.111       -2661.119
  23747246.809    23747246.3544   23747247.1224  124792620.524 7  97241030.04044
      2901.965        2261.269
  21503322.436    21503322.2944   21503325.0164  113000727.554 7  88052539.87045
       934.469         728.153
  21854861.005    21854860.4204   21854863.7404  114848070.063 7  89492035.09445
     -1021.185        -795.724
  22420824.410    22420824.2774   22420825.9674  117822225.618 7  91809547.37745
     -1711.982       -1334.017
  23248450.592    23248450.5644   23248452.9474  122171409.843 7  95198518.89344
     -4039.723       -3147.845
  21139811.117    21139810.2904   21139813.2794  111090443.632 8  86564000.93446
     -1944.431       -1515.136
  22881717.327    22881717.0914   22881717.7404  120244263.902 7  93696852.56345
      2494.413        1943.700
  22216824.779    22216824.9524   22216827.3624  116750216.835 7  90974219.29445
       581.963         453.484
  22442626.622    22442626.6324   22442627.9314  117936826.658 7  91898846.73045
       609.844         475.198
 08  4 24 10 46 30.0000000  0 10G 1G 2G 4G 5G12G17G20G23G30G31
  22902638.673    22902638.3404   22902641.7654  120354168.168 7  93782487.66344
     -3429.878       -2672.631
  23730704.846    23730704.6594   23730705.5134  124705691.444 7  97173293.08944
      2893.459        2254.648
  21498043.881    21498043.7614   21498046.5594  112972988.883 8  88030925.36345
       914.904         712.912
  21860757.758    21860757.0384   21860760.3674  114879056.342 7  89516180.21445
     -1044.402        -813.817
  22430657.972    22430657.9824   22430659.7454  117873902.339 7  91849814.97145
     -1732.998       -1350.386
  23271546.150    23271546.1834   23271548.3204  122292777.122 7  95293090.77144
     -4051.305       -3156.866
  21150971.104    21150970.3604   21150973.3124  111149089.833 8  86609699.20046
     -1965.165       -1531.284
  22867513.206    22867512.9794   22867513.6424  120169621.071 7  93638689.34745
      2481.904        1933.949
  22213566.857    22213566.8594   22213569.4324  116733095.544 7  90960878.01845
       559.641         436.088
  22439202.072    22439202.1264   22439203.6354  117918830.860 8  91884824.01546
       590.019         459.758
 08  4 24 10 47  0.0000000  0 10G 1G 2G 4G 5G12G17G20G23G30G31
  22922260.244    22922259.6664   22922263.2294  120457279.743 7  93862834.33444
     -3444.344       -2683.910
  23714209.762    23714209.3694   23714210.3494  124619010.021 7  97105749.15444
      2885.142        2248.156
  21492875.512    21492875.6114   21492878.2854  112945829.183 8  88009761.94745
       895.561         697.837
  21866784.975    21866784.2374   21866787.7104  114910730.143 7  89540861.10945
     -1067.333        -831.678
  22440609.907    22440609.8014   22440611.6684  117926200.216 7  91890566.59745
     -1753.681       -1366.501
  23294705.482    23294705.3774   23294707.4114  122414480.783 7  95387924.86644
     -4062.439       -3165.526
  21162247.912    21162247.2124   21162249.9934  111208348.846 8  86655874.86546
     -1985.581       -1547.204
  22853379.166    22853378.9804   22853379.6744  120095346.458 7  93580813.03445
      2469.589        1924.357
  22210434.437    22210434.5204   22210437.0514  116716635.452 7  90948051.97345
       537.521         418.844
  22435889.379    22435889.5274   22435890.8804  117901422.444 7  91871258.94646
       570.412         444.480
 08  4 24 10 47 30.0000000  0 10G 1G 2G 4G 5G12G17G20G23G30G31
  22941964.631    22941963.7634   22941966.8464  120560824.226 7  93943518.36544
     -3458.488       -2694.934
  23697763.079    23697762.2844   23697763.2294  124532579.821 7  97038400.92944
      2876.989        2241.824
  21487817.776    21487817.8864   21487820.6224  112919251.162 8  87989051.78845
       876.391         682.901
  21872943.500    21872942.7004   21872945.7554  114943091.978 7  89566078.14345
     -1090.052        -849.388
  22450680.278    22450679.9694   22450681.8934  117979119.507 7  91931802.43645
     -1774.181       -1382.480
  23317928.658    23317928.5884   23317930.7074  122536518.307 7  95483018.92644
     -4073.324       -3174.019
  21173641.252    21173640.5364   21173643.4304  111268220.694 8  86702528.11146
     -2005.848       -1563.023
  22839316.264    22839315.7284   22839316.4244  120021444.068 7  93523226.84645
      2457.331        1914.801
  22207428.771    22207428.7614   22207431.2334  116700839.396 7  90935743.35145
       515.615         401.776
  22432689.091    22432689.1984   22432690.4614  117884604.610 7  91858154.23945
       550.881         429.263
 08  4 24 10 48  0.0000000  0 10G 1G 2G 4G 5G12G17G20G23G30G31
  22961748.583    22961747.7894   22961751.1314  120664790.793 7  94024531.26344
     -3472.538       -2705.876
  23681362.084    23681361.9464   23681362.8634  124446395.234 7  96971244.12544
      2868.719        2235.369
  21482869.661    21482869.7464   21482872.4554  112893248.058 8  87968789.64146
       857.179         667.935
  21879230.533    21879230.1124   21879233.4804  114976133.142 7  89591824.51545
     -1112.653        -867.004
  22460866.456    22460866.5824   22460868.4634  118032650.536 7  91973514.92945
     -1794.534       -1398.342
  23341213.541    23341213.0504   23341215.3424  122658879.234 6  95578364.98044
     -4083.983       -3182.321
  21185149.160    21185148.4494   21185151.2674  111328695.990 8  86749651.83946
     -2025.838       -1578.570
  22825322.677    22825322.2504   22825322.7864  119947907.911 7  93465925.95945
      2445.112        1905.288
  22204548.018    22204547.9504   22204550.3664  116685700.167 7  90923946.56845
       493.706         384.707
  22429599.706    22429599.7284   22429601.0044  117868369.586 7  91845503.58446
       531.455         414.123
 08  4 24 10 48 30.0000000  0 10G 1G 2G 4G 5G12G17G20G23G30G31
  22981612.535    22981612.2144   22981615.4274  120769178.256 7  94105872.18344
     -3486.355       -2716.649
  23665009.428    23665008.7904   23665009.6554  124360459.698 6  96904281.35244
      2860.564        2229.005
  21478031.328    21478031.3854   21478033.9574  112867822.563 8  87948977.57845
       838.083         653.054
  21885647.633    21885646.9274   21885650.4054  115009854.230 7  89618100.69745
     -1135.209        -884.581
  22471169.665    22471169.6774   22471171.6494  118086793.344 7  92015704.13945
     -1814.776       -1414.120
  23364558.794    23364558.8234   23364561.3404  122781562.524 7  95673962.38944
     -4094.597       -3190.602
  21196771.858    21196771.2184   21196774.1154  111389773.892 8  86797245.00346
     -2045.759       -1594.096
  22811399.807    22811399.3184   22811399.9004  119874741.943 7  93408913.50345
      2432.861        1895.732
  22201792.498    22201792.6724   22201794.9234  116671220.422 7  90912663.60645
       471.835         367.660
  22426621.446    22426621.7054   22426623.0334  117852720.146 7  91833309.23745
       512.005         398.952
 08  4 24 10 49  0.0000000  0 10G 1G 2G 4G 5G12G17G20G23G30G31
  23001555.268    23001554.8084   23001558.2714  120873977.862 7  94187534.22644
     -3500.606       -2727.749
  23648703.076    23648702.6584   23648703.5454  124274769.734 7  96837509.97244
      2851.769        2222.156
  21473302.296    21473302.0714   21473304.6664  112842969.701 8  87929611.68646
       818.451         637.757
  21892192.959    21892192.1854   21892195.2434  115044248.576 7  89644901.49945
     -1158.088        -902.400
  22481587.798    22481587.7404   22481589.7884  118141540.549 7  92058364.28945
     -1835.384       -1430.168
  23387964.380    23387964.3154   23387966.5604  122904558.516 7  95769803.42044
     -4105.470       -3199.062
  21208507.885    21208507.2334   21208510.1354  111451446.843 8  86845301.79246
     -2066.081       -1609.925
  22797546.355    22797546.0264   22797546.5554  119801942.371 7  93352186.54045
      2420.088        1885.790
  22199161.663    22199161.6234   22199164.0414  116657395.372 7  90901890.83745
       449.521         350.278
  22423754.150    22423754.0794   22423755.3634  117837651.356 7  91821567.42045
       492.186         383.523
 08  4 24 10 49 30.0000000  0 10G 1G 2G 4G 5G12G17G20G23G30G31
  23021578.679    23021578.0944   23021581.2114  120979200.082 7  94269525.54344
     -3514.573       -2738.626
  23632446.546    23632446.0884   23632447.2354  124189340.853 6  96770942.03544
      2843.167        2215.452
  21468684.407    21468684.4804   21468687.0384  112818704.145 7  87910703.48845
       798.935         622.552
  21898868.326    21898867.5014   21898870.7314  115079328.527 7  89672236.53545
     -1180.876        -920.165
  22492123.055    22492122.9064   22492124.9504  118196903.688 7  92101504.37345
     -1855.831       -1446.102
  23411431.059    23411431.1374   23411433.4314  123027877.376 7  95865895.94044
     -4116.152       -3207.388
  21220359.477    21220358.7804   21220361.4464  111513726.989 8  86893831.83246
     -2086.257       -1625.658
  22783765.717    22783765.4404   22783765.8954  119729524.668 7  93295757.14345
      2407.411        1875.904
  22196658.089    22196658.2574   22196660.6694  116644239.401 7  90891639.41245
       427.236         332.905
  22420999.570    22420999.7404   22421001.0394  117823176.637 7  91810288.33546
       472.421         368.124
 08  4 24 10 50  0.0000000  0 10G 1G 2G 4G 5G12G17G20G23G30G31
  23041682.247    23041681.5494   23041685.1224  121084844.549 7  94351845.87744
     -3528.549       -2749.520
  23616240.332    23616240.0544   23616240.8154  124104177.409 7  96704580.96144
      2834.317        2208.559
  21464179.286    21464179.2434   21464181.9974  112795029.266 8  87892255.55545
       779.272         607.225
  21905674.631    21905673.8874   21905676.9904  115115095.610 7  89700106.97545
     -1203.742        -937.985
  22502775.798    22502775.6524   22502777.7154  118252883.757 7  92145125.21945
     -1876.305       -1462.052
  23434959.411    23434959.3004   23434961.8244  123151518.892 7  95962239.94544
     -4126.705       -3215.614
  21232326.477    21232325.8274   21232328.6884  111576614.378 8  86942834.94246
     -2106.425       -1641.371
  22770058.852    22770058.6944   22770059.2824  119657493.129 7  93239628.29945
      2394.516        1865.868
  22194282.432    22194282.5354   22194285.1914  116631755.945 7  90881912.04745
       404.837         315.456
  22418358.975    22418359.0284   22418360.5604  117809300.050 7  91799475.38146
       452.547         352.630
 08  4 24 10 50 30.0000000  0 10G 1G 2G 4G 5G12G17G20G23G30G31
  23061865.281    23061864.4534   23061867.5674  121190906.168 7  94434491.30344
     -3542.353       -2760.279
  23600084.584    23600084.3014   23600084.9644  124019279.228 7  96638426.58044
      2825.436        2201.641
  21459786.325    21459786.3584   21459789.1304  112771944.009 7  87874267.01146
       759.606         591.902
  21912610.936    21912610.1834   21912613.3444  115151546.660 7  89728510.40145
     -1226.519        -955.728
  22513545.118    22513545.0894   22513546.8414  118309476.828 7  92189223.70445
     -1896.706       -1477.950
  23458548.021    23458547.8934   23458550.3494  123275477.298 7  96058830.73344
     -4137.233       -3223.807
  21244408.391    21244407.5884   21244410.5874  111640105.060 8  86992308.18146
     -2126.453       -1656.980
  22756425.672    22756425.2294   22756425.8634  119585848.577 7  93183801.27745
      2381.594        1855.786
  22192034.609    22192034.8734   22192037.2664  116619943.849 7  90872707.83545
       382.489         298.046
  22415832.172    22415832.0534   22415833.4054  117796020.360 7  91789127.61946
       432.638         337.119
 08  4 24 10 51  0.0000000  0 10G 1G 2G 4G 5G12G17G20G23G30G31
  23082126.422    23082125.9454   23082129.2884  121297380.867 7  94517458.58144
     -3556.042       -2770.936
  23583979.999    23583979.3904   23583979.8904  123934647.355 7  96572479.69244
      2816.564        2194.728
  21455505.516    21455505.4824   21455508.3874  112749448.294 7  87856737.86646
       739.997         576.627
  21919677.264    21919676.5034   21919679.7824  115188679.457 7  89757445.02945
     -1249.122        -973.338
  22524430.437    22524430.4604   22524432.2824  118366680.031 7  92233797.64145
     -1916.967       -1493.738
  23482196.032    23482196.0944   23482198.6614  123399748.637 7  96155665.43944
     -4147.615       -3231.901
  21256604.547    21256603.8234   21256606.6734  111704196.219 8  87042249.31746
     -2146.361       -1672.469
  22742866.227    22742866.0344   22742866.7514  119514590.727 7  93128274.95945
      2368.769        1845.838
  22189914.807    22189914.9794   22189917.4104  116608802.709 7  90864026.41445
       360.160         280.647
  22413418.153    22413418.4724   22413419.9534  117783336.934 7  91779244.41646
       412.812         321.676
 08  4 24 10 51 30.0000000  0 10G 1G 2G 4G 5G12G17G20G23G30G31
  23102465.470    23102465.1404   23102468.3934  121404264.178 7  94600744.25344
     -3569.695       -2781.586
  23567925.741    23567925.2344   23567926.0204  123850282.403 6  96506740.78244
      2807.560        2187.699
  21451336.805    21451336.8354   21451339.6214  112727541.575 7  87839667.73746
       720.275         561.253
  21926872.433    21926871.7244   21926874.9994  115226491.348 7  89786908.82245
     -1271.820        -991.035
  22535431.339    22535431.3904   22535433.1584  118424490.021 7  92278844.40345
     -1937.200       -1509.515
  23505902.971    23505902.8804   23505905.4354  123524327.870 6  96252739.91144
     -4157.852       -3239.875
  21268914.217    21268913.5774   21268916.3464  111768884.484 8  87092655.78946
     -2166.323       -1688.046
  22729380.706    22729380.3114   22729380.8034  119443723.095 7  93073053.52645
      2355.613        1835.525
  22187922.167    22187922.1554   22187924.8024  116598331.429 7  90855866.96845
       337.747         263.179
  22411118.020    22411118.1594   22411119.5834  117771249.038 7  91769825.29646
       392.871         306.133
 08  4 24 10 52  0.0000000  0 10G 1G 2G 4G 5G12G17G20G23G30G31
  23122878.482    23122878.1074   23122881.3104  121511534.338 7  94684331.36744
     -3581.572       -2790.834
  23551919.114    23551918.6864   23551919.5804  123766167.809 7  96441196.95344
      2800.186        2181.975
  21447277.019    21447276.9404   21447279.5524  112706205.595 8  87823042.23246
       702.141         547.126
  21934193.325    21934192.6324   21934195.8724  115264962.481 7  89816886.33245
     -1292.800       -1007.368
  22546543.550    22546543.7164   22546545.5454  118482886.301 7  92324348.00445
     -1955.765       -1523.975
  23529663.774    23529664.0704   23529666.7194  123649193.954 6  96350038.31344
     -4166.388       -3246.538
  21281333.741    21281332.8824   21281335.6934  111834148.868 8  87143511.26346
     -2184.530       -1702.236
  22715965.341    22715965.2494   22715965.8474  119373226.612 7  93018121.20145
      2344.155        1826.612
  22186053.770    22186053.7374   22186056.3334  116588512.365 7  90848215.79045
       316.954         246.975
  22408927.376    22408927.7004   22408929.2514  117759738.362 8  91760855.96046
       374.573         291.879
 08  4 24 10 52 30.0000000  0 10G 1G 2G 4G 5G12G17G20G23G30G31
  23143363.404    23143363.2954   23143366.5804  121619184.885 7  94768214.93044
     -3595.055       -2801.344
  23535960.203    23535959.6604   23535960.3994  123682301.504 7  96375846.56644
      2790.969        2174.778
  21443325.081    21443324.9944   21443327.6674  112685437.745 8  87806859.42446
       682.383         531.728
  21941638.664    21941638.0664   21941641.2034  115304087.797 7  89847373.56445
     -1315.488       -1025.056
  22557766.771    22557766.7184   22557768.4554  118541863.438 7  92370304.24445
     -1975.947       -1539.702
  23553478.090    23553478.2154   23553480.9254  123774339.435 7  96447554.48544
     -4176.508       -3254.433
  21293861.580    21293860.9814   21293863.7154  111899983.020 8  87194810.32746
     -2204.451       -1717.761
  22702621.035    22702620.7844   22702621.5724  119303100.070 8  92963476.98445
      2331.035        1816.426
  22184308.507    22184308.7384   22184310.9224  116579342.347 7  90841070.35945
       294.454         229.439
  22406846.589    22406846.5604   22406848.1384  117748801.880 7  91752334.03846
       354.565         276.284
 08  4 24 10 53  0.0000000  0 10G 1G 2G 4G 5G12G17G20G23G30G31
  23163925.862    23163925.2204   23163928.6324  121727239.178 7  94852413.04744
     -3608.470       -2811.802
  23520053.488    23520053.0804   23520053.7444  123598712.263 7  96310712.06044
      2781.679        2167.550
  21439486.454    21439486.3824   21439489.0404  112665265.554 8  87791140.80046
       662.482         516.219
  21949213.219    21949212.5834   21949215.6774  115343892.904 7  89878390.51745
     -1338.170       -1042.720
  22569104.696    22569104.7604   22569106.4764  118601445.876 7  92416732.09645
     -1996.153       -1555.437
  23577350.277    23577350.3064   23577352.7384  123899787.385 7  96545306.13044
     -4186.555       -3262.229
  21306502.945    21306502.1154   21306505.0694  111966412.191 8  87246573.02746
     -2224.313       -1733.231
  22689352.328    22689351.9424   22689352.7164  119233373.483 8  92909144.87545
      2317.564        1805.895
  22182691.883    22182692.1804   22182694.5844  116570848.528 7  90834451.81845
       271.845         211.830
  22404879.699    22404879.8274   22404881.5404  117738466.957 7  91744280.88046
       334.446         260.600
 08  4 24 10 53 30.0000000  0 10G 1G 2G 4G 5G12G17G20G23G30G31
  23184563.188    23184562.2054   23184565.8564  121835688.321 7  94936918.87544
     -3621.579       -2822.011
  23504199.264    23504198.7994   23504199.5914  123515396.236 7  96245790.50344
      2772.573        2160.448
  21435760.220    21435760.3304   21435762.7994  112645683.444 8  87775881.79846
       642.816         500.898
  21956916.082    21956915.1994   21956918.4914  115384370.384 7  89909931.39345
     -1360.487       -1060.125
  22580556.818    22580556.8394   22580558.4754  118661625.988 7  92463625.69945
     -2016.009       -1570.924
  23601278.472    23601277.8744   23601280.5854  124025528.206 6  96643285.71544
     -4196.241       -3269.787
  21319255.472    21319254.8474   21319257.5644  112033430.047 7  87298795.37546
     -2243.713       -1748.357
  22676158.659    22676158.3504   22676159.2674  119164041.094 8  92855119.72645
      2304.425        1795.686
  22181203.837    22181203.7384   22181206.1304  116563025.983 7  90828356.34045
       249.520         194.428
  22403026.411    22403026.6134   22403028.1064  117728728.107 7  91736692.19745
       314.652         245.180
 08  4 24 10 54  0.0000000  0 10G 1G 2G 4G 5G12G17G20G23G30G31
  23205275.151    23205274.6114   23205277.9884  121944530.823 7  95021731.20744
     -3634.447       -2832.043
  23488397.352    23488396.9044   23488397.6614  123432356.894 7  96181084.45444
      2763.484        2153.362
  21432146.887    21432146.9704   21432149.5994  112626694.146 8  87761084.67346
       623.233         485.640
  21964746.242    21964745.5124   21964749.0114  115425520.626 7  89941996.53245
     -1382.736       -1077.456
  22592122.450    22592122.3744   22592123.8664  118722403.307 7  92510984.67545
     -2035.713       -1586.274
  23625261.544    23625261.3834   23625264.0844  124151560.569 6  96741492.45644
     -4205.845       -3277.285
  21332120.134    21332119.2904   21332122.1784  112101032.649 8  87351472.37446
     -2263.085       -1763.442
  22663040.996    22663040.4314   22663041.1644  119095107.114 7  92801405.11445
      2291.326        1785.441
  22179842.938    22179843.1184   22179845.5764  116555876.447 7  90822785.30645
       227.219         177.049
  22401286.964    22401287.0694   22401288.8244  117719587.471 7  91729569.63946
       294.854         229.756
 08  4 24 10 54 30.0000000  0 10G 1G 2G 4G 5G12G17G20G23G30G31
  23226059.408    23226059.0264   23226062.6524  122053754.432 7  95106840.48744
     -3647.085       -2841.880
  23472646.522    23472646.1464   23472647.6194  123349587.379 7  96116588.76244
      2754.481        2146.347
  21428644.621    21428644.6604   21428647.3524  112608289.685 8  87746743.46446
       603.740         470.442
  21972703.353    21972702.7204   21972705.6664  115467333.046 7  89974577.66545
     -1404.738       -1094.597
  22603799.475    22603799.4494   22603801.1694  118783766.692 7  92558800.31445
     -2055.187       -1601.447
  23649297.927    23649297.9354   23649300.5704  124277873.297 7  96839918.12744
     -4215.065       -3284.492
  21345093.952    21345093.2624   21345096.2234  112169211.053 8  87404598.40946
     -2282.133       -1778.271
  22649997.330    22649997.0944   22649997.6414  119026564.970 8  92747996.04945
      2278.251        1775.255
  22178609.161    22178609.1564   22178611.7854  116549391.706 7  90817732.28545
       205.108         159.823
  22399659.926    22399659.7994   22399661.3884  117711036.129 7  91722906.24346
       275.226         214.459
 08  4 24 10 55  0.0000000  0 10G 1G 2G 4G 5G12G17G20G23G30G31
  23246917.401    23246916.9224   23246920.3364  122163363.586 7  95192250.26544
     -3660.050       -2851.985
  23456949.141    23456948.7094   23456949.6564  123267096.810 6  96052310.43144
      2744.964        2138.941
  21425255.099    21425255.1894   21425257.9994  112590477.330 8  87732863.47046
       583.869         454.988
  21980786.765    21980786.2594   21980789.4404  115509813.602 7  90007679.37045
     -1427.212       -1112.107
  22615589.171    22615589.0724   22615590.7314  118845721.524 7  92607076.82245
     -2075.069       -1616.933
  23673387.883    23673388.0434   23673390.7554  124404469.467 6  96938564.70644
     -4224.529       -3291.817
  21358178.316    21358177.6204   21358180.7744  112237969.850 8  87458176.53946
     -2301.643       -1793.499
  22637030.185    22637029.8534   22637030.3754  118958422.999 7  92694898.61345
      2264.646        1764.659
  22177503.129    22177503.1634   22177505.6214  116543579.189 7  90813203.06545
       182.505         142.214
  22398146.106    22398146.1924   22398147.9414  117703082.335 7  91716708.48746
       255.137         198.810
 08  4 24 10 55 30.0000000  0 10G 1G 2G 4G 5G12G17G20G23G30G31
  23267848.425    23267848.1254   23267851.3324  122273356.162 6  95277958.77544
     -3672.889       -2861.988
  23441305.226    23441304.6624   23441305.8794  123184888.162 7  95988251.78244
      2735.418        2131.494
  21421978.793    21421978.9044   21421981.9084  112573259.025 8  87719446.16346
       563.854         439.371
  21988997.713    21988997.0724   21989000.2724  115552962.109 7  90041301.60345
     -1449.483       -1129.465
  22627490.856    22627490.9844   22627492.7244  118908266.903 7  92655813.47645
     -2094.781       -1632.296
  23697531.817    23697531.8404   23697534.5954  124531346.405 7  97037429.94244
     -4234.064       -3299.297
  21371372.995    21371372.2784   21371375.4444  112307308.311 8  87512206.51746
     -2320.915       -1808.492
  22624140.054    22624139.6584   22624140.2324  118890684.662 7  92642115.59545
      2251.070        1754.078
  22176525.462    22176525.3334   22176527.7204  116538440.747 7  90809199.09145
       159.898         124.601
  22396746.621    22396746.7584   22396748.5134  117695727.461 7  91710977.44146
       235.042         183.156
 08  4 24 10 56  0.0000000  0 10G 1G 2G 4G 5G12G17G20G23G30G31
  23288851.184    23288850.8804   23288854.1904  122383728.317 7  95363963.08644
     -3685.507       -2871.823
  23425715.513    23425715.0774   23425716.0744  123102962.918 7  95924413.98444
      2725.979        2124.137
  21418815.551    21418815.5794   21418818.5164  112556636.334 8  87706493.66546
       544.052         423.916
  21997335.509    21997334.7234   21997337.6934  115596776.246 7  90075442.52645
     -1471.712       -1146.793
  22639504.927    22639504.7394   22639506.4884  118971399.947 7  92705008.09645
     -2114.348       -1647.545
  23721728.692    23721728.7044   23721731.0514  124658500.414 7  97136511.05744
     -4243.168       -3306.351
  21384677.333    21384676.6064   21384679.4894  112377223.905 8  87566686.47746
     -2340.272       -1823.644
  22611326.723    22611326.3384   22611327.0714  118823351.239 8  92589648.07945
      2237.545        1743.541
  22175675.885    22175675.7194   22175677.9664  116533976.376 7  90805720.37745
       137.430         107.090
  22395460.761    22395460.7364   22395462.5504  117688970.989 7  91705712.66645
       215.098         167.615
